[[{"header":{"parameterUnit":"m.s-1","parameterCategory":1,"la1":30.6,"la2":28.766,"lo1":-90.7593,"lo2":-88.6598,"dy":0.0162,"dx":0.0183,"nx":116,"ny":114,"refTime":"2023-05-05T00:00:00:Z","depth":0,"parameterNumber":2,"parameterNumberName":"U-component_of_WINDS"},"data":[0.0,0.0,0.0,0.0,0.0,0.0,0.0,0.0,0.0,0.0,0.0,0.0,0.0,0.0,0.0,0.0,0.0,0.0,0.0,0.0,0.0,0.0,0.0,0.0,0.0,0.0,0.0,0.0,0.0,0.0,0.0,0.0,0.0,0.0,0.0,0.0,0.0,0.0,0.0,0.0,0.0,0.0,0.0,0.0,0.0,0.0,0.0,0.0,0.0,0.0,0.0,0.0,0.0,0.0,0.0,0.0,0.0,0.0,0.0,0.0,0.0,0.0,0.0,0.0,0.0,0.0,0.0,0.0,0.0,0.0,0.0,0.0,0.0,0.0,0.0,0.0,0.0,0.0,0.0,0.0,0.0,0.0,0.0,0.0,0.0,0.0,0.0,0.0,0.0,0.0,0.0,0.0,0.0,0.0,0.0,0.0,0.0,0.0,0.0,0.0,0.0,0.0,0.0,0.0,0.0,0.0,0.0,0.0,0.0,0.0,0.0,0.0,0.0,0.0,0.0,0.0,0.0,0.0,0.0,0.0,0.0,0.0,0.0,0.0,0.0,0.0,0.0,0.0,0.0,0.0,0.0,0.0,0.0,0.0,0.0,0.0,0.0,0.0,0.0,0.0,0.0,0.0,0.0,0.0,0.0,0.0,0.0,0.0,0.0,0.0,0.0,0.0,0.0,0.0,0.0,0.0,0.0,0.0,0.0,0.0,0.0,0.0,0.0,0.0,0.0,0.0,0.0,0.0,0.0,0.0,0.0,0.0,0.0,0.0,0.0,0.0,0.0,0.0,0.0,0.0,0.0,0.0,0.0,0.0,0.0,0.0,0.0,0.0,0.0,0.0,0.0,0.0,0.0,0.0,0.0,0.0,0.0,0.0,0.0,0.0,0.0,0.0,0.0,0.0,0.0,0.0,0.0,0.0,0.0,0.0,0.0,0.0,0.0,0.0,0.0,0.0,0.0,0.0,0.0,0.0,0.0,0.0,0.0,0.0,0.0,0.0,0.0,0.0,0.0,0.0,0.0,0.0,0.0,0.0,0.0,0.0,0.0,0.0,0.0,0.0,0.0,0.0,0.0,0.0,0.0,0.0,0.0,0.0,0.0,0.0,0.0,0.0,0.0,0.0,0.0,0.0,0.0,0.0,0.0,0.0,0.0,0.0,0.0,0.0,0.0,0.0,0.0,0.0,0.0,0.0,0.0,0.0,0.0,0.0,0.0,0.0,0.0,0.0,0.0,0.0,0.0,0.0,0.0,0.0,0.0,0.0,0.0,0.0,0.0,0.0,0.0,0.0,0.0,0.0,0.0,0.0,0.0,0.0,0.0,0.0,0.0,0.0,0.0,0.0,0.0,0.0,0.0,0.0,0.0,0.0,0.0,0.0,0.0,0.0,0.0,0.0,0.0,0.0,0.0,0.0,0.0,0.0,0.0,0.0,0.0,0.0,0.0,0.0,0.0,0.0,0.0,0.0,0.0,0.0,0.0,0.0,0.0,0.0,0.0,0.0,0.0,0.0,0.0,0.0,0.0,0.0,0.0,0.0,0.0,0.0,0.0,0.0,0.0,0.0,0.0,0.0,0.0,0.0,0.0,0.0,0.0,0.0,0.0,0.0,0.0,0.0,0.0,0.0,0.0,0.0,0.0,0.0,0.0,0.0,0.0,0.0,0.0,0.0,0.0,0.0,0.0,0.0,0.0,0.0,0.0,0.0,0.0,0.0,0.0,0.0,0.0,0.0,0.0,0.0,0.0,0.0,0.0,0.0,0.0,0.0,0.0,0.0,0.0,0.0,0.0,0.0,0.0,0.0,0.0,0.0,0.0,0.0,0.0,0.0,0.0,0.0,0.0,0.0,0.0,0.0,0.0,0.0,0.0,0.0,0.0,0.0,0.0,0.0,0.0,0.0,0.0,0.0,0.0,0.0,0.0,0.0,0.0,0.0,0.0,0.0,0.0,0.0,0.0,0.0,0.0,0.0,0.0,0.0,0.0,0.0,0.0,0.0,0.0,0.0,0.0,0.0,0.0,0.0,0.0,0.0,0.0,0.0,0.0,0.0,0.0,0.0,0.0,0.0,0.0,0.0,0.0,0.0,0.0,0.0,0.0,0.0,0.0,0.0,0.0,0.0,0.0,0.0,0.0,0.0,0.0,0.0,0.0,0.0,0.0,0.0,0.0,0.0,0.0,0.0,0.0,0.0,0.0,0.0,0.0,0.0,0.0,0.0,0.0,0.0,0.0,0.0,0.0,0.0,0.0,0.0,0.0,0.0,0.0,0.0,0.0,0.0,0.0,0.0,0.0,0.0,0.0,0.0,0.0,0.0,0.0,0.0,0.0,0.0,0.0,0.0,0.0,0.0,0.0,0.0,0.0,0.0,0.0,0.0,0.0,0.0,0.0,0.0,0.0,0.0,0.0,0.0,0.0,0.0,0.0,0.0,0.0,0.0,0.0,0.0,0.0,0.0,0.0,0.0,0.0,0.0,0.0,0.0,0.0,0.0,0.0,0.0,0.0,0.0,0.0,0.0,0.0,0.0,0.0,0.0,0.0,0.0,0.0,0.0,0.0,0.0,0.0,0.0,0.0,0.0,0.0,0.0,0.0,0.0,0.0,0.0,0.0,0.0,0.0,0.0,0.0,0.0,0.0,0.0,0.0,0.0,0.0,0.0,0.0,0.0,0.0,0.0,0.0,0.0,0.0,0.0,0.0,0.0,0.0,0.0,0.0,0.0,0.0,0.0,0.0,0.0,0.0,0.0,0.0,0.0,0.0,0.0,0.0,0.0,0.0,0.0,0.0,0.0,0.0,0.0,0.0,0.0,0.0,0.0,0.0,0.0,0.0,0.0,0.0,0.0,0.0,0.0,0.0,0.0,0.0,0.0,0.0,0.0,0.0,0.0,0.0,0.0,0.0,0.0,0.0,0.0,0.0,0.0,0.0,0.0,0.0,0.0,0.0,0.0,0.0,0.0,0.0,0.0,0.0,0.0,0.0,0.0,0.0,0.0,0.0,0.0,0.0,0.0,0.0,0.0,0.0,0.0,0.0,0.0,0.0,0.0,0.0,0.0,0.0,0.0,0.0,0.0,0.0,0.0,0.0,0.0,0.0,0.0,0.0,0.0,0.0,0.0,0.0,0.0,0.0,0.0,0.0,0.0,0.0,0.0,0.0,0.0,0.0,0.0,0.0,0.0,0.0,0.0,0.0,0.0,0.0,0.0,0.0,0.0,0.0,0.0,0.0,0.0,0.0,0.0,0.0,0.0,0.0,0.0,0.0,0.0,0.0,0.0,0.0,0.0,0.0,0.0,0.0,0.0,0.0,0.0,0.0,0.0,0.0,0.0,0.0,0.0,0.0,0.0,0.0,0.0,0.0,0.0,0.0,0.0,0.0,0.0,0.0,0.0,0.0,0.0,0.0,0.0,0.0,0.0,0.0,0.0,0.0,0.0,0.0,0.0,0.0,0.0,0.0,0.0,0.0,0.0,0.0,0.0,0.0,0.0,0.0,0.0,0.0,0.0,0.0,0.0,0.0,0.0,0.0,0.0,0.0,0.0,0.0,0.0,0.0,0.0,0.0,0.0,0.0,0.0,0.0,0.0,0.0,0.0,0.0,0.0,0.0,0.0,0.0,0.0,0.0,0.0,0.0,0.0,0.0,0.0,0.0,0.0,0.0,0.0,0.0,0.0,0.0,0.0,0.0,0.0,0.0,0.0,0.0,0.0,0.0,0.0,0.0,0.0,0.0,0.0,0.0,0.0,0.0,0.0,0.0,0.0,0.0,0.0,0.0,0.0,0.0,0.0,0.0,0.0,0.0,0.0,0.0,0.0,0.0,0.0,0.0,0.0,0.0,0.0,0.0,0.0,0.0,0.0,0.0,0.0,0.0,0.0,0.0,0.0,0.0,0.0,0.0,0.0,0.0,0.0,0.0,0.0,0.0,0.0,0.0,0.0,0.0,0.0,0.0,0.0,0.0,0.0,0.0,0.0,0.0,0.0,0.0,0.0,0.0,0.0,0.0,0.0,0.0,0.0,0.0,0.0,0.0,0.0,0.0,0.0,0.0,0.0,0.0,0.0,0.0,0.0,0.0,0.0,0.0,0.0,0.0,0.0,0.0,0.0,0.0,0.0,0.0,0.0,0.0,0.0,0.0,0.0,0.0,0.0,0.0,0.0,0.0,0.0,0.0,0.0,0.0,0.0,0.0,0.0,0.0,0.0,0.0,0.0,0.0,0.0,0.0,0.0,0.0,0.0,0.0,0.0,0.0,0.0,0.0,0.0,0.0,0.0,0.0,0.0,0.0,0.0,0.0,0.0,0.0,0.0,0.0,0.0,0.0,0.0,0.0,0.0,0.0,0.0,0.0,0.0,0.0,0.0,0.0,0.0,0.0,0.0,0.0,0.0,0.0,0.0,0.0,0.0,0.0,0.0,0.0,0.0,0.0,0.0,0.0,0.0,0.0,0.0,0.0,0.0,0.0,0.0,0.0,0.0,0.0,0.0,0.0,0.0,0.0,0.0,0.0,0.0,0.0,0.0,0.0,0.0,0.0,0.0,0.0,0.0,0.0,0.0,0.0,0.0,0.0,0.0,0.0,0.0,0.0,0.0,0.0,0.0,0.0,0.0,0.0,0.0,0.0,0.0,0.0,0.0,0.0,0.0,0.0,0.0,0.0,0.0,0.0,0.0,0.0,0.0,0.0,0.0,0.0,0.0,0.0,0.0,0.0,0.0,0.0,0.0,0.0,0.0,0.0,0.0,0.0,0.0,0.0,0.0,0.0,0.0,0.0,0.0,0.0,0.0,0.0,0.0,0.0,0.0,0.0,0.0,0.0,0.0,0.0,0.0,0.0,0.0,0.0,0.0,0.0,0.0,0.0,0.0,0.0,0.0,0.0,0.0,0.0,0.0,0.0,0.0,0.0,0.0,0.0,0.0,0.0,0.0,0.0,0.0,0.0,0.0,0.0,0.0,0.0,0.0,0.0,0.0,0.0,0.0,0.0,0.0,0.0,0.0,0.0,0.0,0.0,0.0,0.0,0.0,0.0,0.0,0.0,0.0,0.0,0.0,0.0,0.0,0.0,0.0,0.0,0.0,0.0,0.0,0.0,0.0,0.0,0.0,0.0,0.0,0.0,0.0,0.0,0.0,0.0,0.0,0.0,0.0,0.0,0.0,0.0,0.0,0.0,0.0,0.0,0.0,0.0,0.0,0.0,0.0,0.0,0.0,0.0,0.0,0.0,0.0,0.0,0.0,0.0,0.0,0.0,0.0,0.0,0.0,0.0,0.0,0.0,0.0,0.0,0.0,0.0,0.0,0.0,0.0,0.0,0.0,0.0,0.0,0.0,0.0,0.0,0.0,0.0,0.0,0.0,0.0,0.0,0.0,0.0,0.0,0.0,0.0,0.0,0.0,0.0,0.0,0.0,0.0,0.0,0.0,0.0,0.0,0.0,0.0,0.0,0.0,0.0,0.0,0.0,0.0,0.0,0.0,0.0,0.0,0.0,0.0,0.0,0.0,0.0,0.0,0.0,0.0,0.0,0.0,0.0,0.0,0.0,0.0,0.0,0.0,0.0,0.0,0.0,0.0,0.0,0.0,0.0,0.0,0.0,0.0,0.0,0.0,0.0,0.0,0.0,0.0,0.0,0.0,0.0,0.0,0.0,0.0,0.0,0.0,0.0,0.0,0.0,0.0,0.0,0.0,0.0,0.0,0.0,0.0,0.0,0.0,0.0,0.0,0.0,0.0,0.0,0.0,0.0,0.0,0.0,0.0,0.0,0.0,0.0,0.0,0.0,0.0,0.0,0.0,0.0,0.0,0.0,0.0,0.0,0.0,0.0,0.0,0.0,0.0,0.0,0.0,0.0,0.0,0.0,0.0,0.0,0.0,0.0,0.0,0.0,0.0,0.0,0.0,0.0,0.0,0.0,0.0,0.0,0.0,0.0,0.0,0.0,0.0,0.0,0.0,0.0,0.0,0.0,0.0,0.0,0.0,0.0,0.0,0.0,0.0,0.0,0.0,0.0,0.0,0.0,0.0,0.0,0.0,0.0,0.0,0.0,0.0,0.0,0.0,0.0,0.0,0.0,0.0,0.0,0.0,0.0,0.0,-0.8606,0.0,0.0,0.0,0.0,0.0,0.0,0.0,0.0,0.0,0.0,0.0,0.0,0.0,0.0,0.0,0.0,0.0,0.0,0.0,0.0,0.0,0.0,0.0,0.0,0.0,0.0,0.0,0.0,0.0,0.0,0.0,0.0,0.0,0.0,0.0,0.0,0.0,0.0,0.0,-1.5951,-1.6473,-1.7182,-1.6636,-1.5731,-1.4594,0.0,0.0,0.0,0.0,0.0,0.0,0.0,0.0,0.0,0.0,0.0,0.0,0.0,0.0,0.0,0.0,0.0,0.0,0.0,0.0,0.0,0.0,0.0,0.0,0.0,0.0,0.0,0.0,0.0,0.0,0.0,0.0,0.0,0.0,0.0,0.0,0.0,0.0,0.0,0.0,0.0,0.0,0.0,0.0,0.0,0.0,0.0,0.0,0.0,0.0,0.0,0.0,0.0,0.0,0.0,0.0,0.0,0.0,0.0,0.0,0.0,0.0,0.0,0.0,0.0,0.0,0.0,0.0,0.0,0.0,0.0,-0.9489,0.0,0.0,0.0,0.0,0.0,0.0,0.0,0.0,0.0,0.0,0.0,0.0,0.0,0.0,0.0,0.0,0.0,0.0,0.0,0.0,0.0,0.0,0.0,-1.5087,-1.5714,-1.5745,-1.6159,-1.6141,0.0,0.0,0.0,0.0,0.0,0.0,0.0,-1.5513,-1.6021,-1.6917,-1.7312,-1.8039,-1.9097,-1.9925,-1.9193,-1.7154,-1.6372,0.0,0.0,0.0,0.0,0.0,0.0,0.0,0.0,0.0,0.0,0.0,0.0,0.0,0.0,0.0,0.0,0.0,0.0,0.0,0.0,0.0,0.0,0.0,0.0,0.0,0.0,0.0,0.0,0.0,0.0,0.0,0.0,0.0,0.0,0.0,0.0,0.0,0.0,0.0,0.0,0.0,0.0,0.0,0.0,0.0,0.0,0.0,0.0,0.0,0.0,0.0,0.0,0.0,0.0,0.0,0.0,0.0,0.0,0.0,0.0,0.0,0.0,0.0,-1.4431,-1.4548,-1.4433,-1.438,-1.4174,-1.3789,-1.2542,-1.1447,-1.0616,-1.0343,0.0,0.0,0.0,0.0,0.0,0.0,0.0,0.0,0.0,0.0,0.0,0.0,0.0,0.0,0.0,0.0,0.0,0.0,0.0,0.0,0.0,-1.5607,-1.5882,-1.6344,-1.6452,-1.6378,-1.6099,0.0,0.0,0.0,0.0,0.0,-1.5978,-1.7,-1.7733,-1.8153,-2.0373,-2.1457,-2.1473,-2.2328,-2.2401,-2.1714,-1.9272,-1.7594,-1.6556,0.0,0.0,0.0,0.0,0.0,0.0,0.0,0.0,0.0,0.0,0.0,0.0,0.0,0.0,0.0,0.0,0.0,0.0,0.0,0.0,0.0,0.0,0.0,0.0,0.0,0.0,0.0,0.0,0.0,0.0,0.0,0.0,0.0,0.0,0.0,0.0,0.0,0.0,0.0,0.0,0.0,-1.3006,-1.3712,0.0,0.0,0.0,0.0,0.0,0.0,0.0,0.0,0.0,0.0,0.0,0.0,0.0,-1.4136,-1.4553,-1.4732,-1.5025,-1.5428,-1.5731,-1.5826,-1.5765,-1.5987,-1.5945,-1.5721,-1.5308,0.0,-1.2247,-1.1977,0.0,0.0,0.0,0.0,0.0,0.0,0.0,0.0,0.0,0.0,0.0,0.0,0.0,0.0,0.0,0.0,0.0,0.0,0.0,0.0,0.0,-1.6785,-1.7466,-1.7712,-1.8243,-1.8397,-1.7985,-1.7523,0.0,0.0,0.0,-1.6756,-1.7095,-1.8289,-1.9553,-2.0875,-2.2562,-2.354,-2.3816,-2.4436,-2.4643,-2.4402,-2.273,-2.0766,-1.8705,-1.8159,0.0,0.0,0.0,0.0,0.0,0.0,0.0,0.0,0.0,0.0,0.0,0.0,0.0,0.0,0.0,0.0,0.0,0.0,0.0,0.0,0.0,0.0,0.0,0.0,0.0,0.0,0.0,0.0,0.0,0.0,0.0,0.0,0.0,0.0,0.0,0.0,0.0,0.0,0.0,-1.3589,-1.3854,-1.4425,-1.4558,-1.4584,0.0,0.0,0.0,0.0,0.0,0.0,0.0,0.0,0.0,-1.3831,-1.4475,-1.4859,-1.4883,-1.5621,-1.608,-1.6376,-1.6617,-1.6768,-1.6852,-1.6844,-1.6672,-1.6378,-1.6256,-1.5632,-1.4612,-1.3649,-1.3142,-1.2946,0.0,0.0,0.0,0.0,-1.2802,-1.2973,0.0,0.0,0.0,0.0,0.0,0.0,0.0,0.0,0.0,0.0,0.0,0.0,-1.6629,-1.7915,-1.8896,-1.9373,-1.9943,-2.0132,-1.9775,-1.901,-1.8384,-1.7891,-1.7758,-1.7963,-1.8547,-2.0007,-2.1726,-2.3696,-2.4681,-2.5458,-2.5948,-2.6391,-2.6512,-2.6268,-2.5618,-2.3739,-2.0929,-2.0012,-1.8639,-1.6935,0.0,0.0,0.0,0.0,0.0,0.0,0.0,0.0,0.0,0.0,0.0,0.0,0.0,0.0,0.0,0.0,0.0,0.0,0.0,0.0,0.0,0.0,0.0,0.0,0.0,0.0,0.0,0.0,0.0,0.0,0.0,0.0,0.0,0.0,0.0,0.0,0.0,-1.448,-1.463,-1.4979,-1.5057,-1.5057,0.0,0.0,0.0,0.0,0.0,0.0,-1.4301,-1.4481,-1.4545,-1.4436,-1.5235,-1.5561,-1.5404,-1.6379,-1.6934,-1.7064,-1.7397,-1.7648,-1.7719,-1.7714,-1.7523,-1.7183,-1.7167,-1.7091,-1.6812,-1.5298,-1.4527,-1.4261,-1.4026,-1.3932,-1.3932,-1.409,-1.4326,-1.4561,0.0,0.0,0.0,0.0,0.0,0.0,0.0,0.0,0.0,0.0,0.0,-1.6658,-1.846,-1.8746,-1.9487,-2.1216,-2.0819,-2.0626,-2.0974,-2.0313,-1.9836,-1.9664,-1.9595,-1.9822,-2.0369,-2.2544,-2.4478,-2.6121,-2.7133,-2.7641,-2.7703,-2.8292,-2.8142,-2.7397,-2.7373,-2.5791,-2.3081,-2.1865,-2.0488,-1.894,-1.747,0.0,0.0,0.0,0.0,0.0,0.0,0.0,0.0,0.0,0.0,0.0,0.0,0.0,0.0,0.0,0.0,0.0,0.0,0.0,0.0,0.0,0.0,0.0,0.0,0.0,0.0,0.0,0.0,0.0,0.0,0.0,0.0,0.0,0.0,0.0,0.0,0.0,0.0,-1.5597,-1.5492,0.0,0.0,0.0,0.0,-1.4553,-1.4407,-1.4327,-1.4301,-1.4968,-1.5352,-1.5313,-1.5998,-1.6453,-1.6708,-1.6958,-1.7213,-1.7477,-1.8228,-1.8515,-1.8377,-1.8874,-1.8965,-1.8785,-1.8735,-1.8683,-1.8565,-1.6901,-1.6173,-1.6157,-1.614,-1.6132,-1.6132,-1.6132,-1.6187,-1.6195,0.0,0.0,0.0,0.0,0.0,0.0,0.0,0.0,-1.3901,-1.5124,-1.6561,-1.7879,-1.8877,-2.0433,-2.1635,-2.2294,-2.2705,-2.2998,-2.3152,-2.2398,-2.186,-2.1667,-2.1599,-2.2133,-2.3364,-2.4934,-2.6297,-2.7381,-2.8126,-2.8707,-2.9101,-2.9534,-2.9656,-2.9485,-2.8855,-2.7895,-2.6559,-2.413,-2.248,-2.1337,-1.9242,-1.8008,0.0,0.0,0.0,0.0,0.0,0.0,0.0,0.0,0.0,0.0,0.0,0.0,0.0,0.0,0.0,0.0,0.0,0.0,0.0,0.0,0.0,0.0,0.0,0.0,0.0,0.0,0.0,0.0,0.0,0.0,0.0,0.0,0.0,0.0,0.0,0.0,0.0,-1.6354,-1.6602,0.0,-1.6567,-1.6527,-1.6397,-1.6148,-1.6069,-1.598,-1.584,-1.6094,-1.6198,-1.6056,-1.6831,-1.7159,-1.6996,-1.7632,-1.8063,-1.8284,-1.8577,-1.8873,-1.9182,-1.9371,-1.9475,-1.9514,-1.9358,-1.9247,-1.9204,-1.8612,-1.7999,-1.7333,-1.6861,-1.6828,-1.7083,-1.7234,-1.7504,-1.7834,0.0,0.0,0.0,0.0,0.0,0.0,0.0,0.0,-1.4196,-1.5888,-1.743,-1.8815,-1.9972,-2.1779,-2.3123,-2.3702,-2.4126,-2.4429,-2.4592,-2.38,-2.3236,-2.3123,-2.3334,-2.4245,-2.5887,-2.6904,-2.7894,-2.8898,-2.951,-2.996,-3.0387,-3.0753,-3.0902,-3.0834,-3.0084,-2.9564,-2.9044,-2.6504,-2.4612,-2.3133,-2.1043,-1.9711,-1.8844,0.0,0.0,0.0,0.0,0.0,0.0,0.0,0.0,0.0,0.0,0.0,0.0,0.0,0.0,0.0,0.0,0.0,0.0,0.0,0.0,0.0,0.0,0.0,0.0,0.0,0.0,0.0,0.0,0.0,0.0,0.0,0.0,0.0,0.0,0.0,-1.6824,-1.6931,-1.7164,-1.7294,-1.7138,-1.7075,-1.6981,-1.6918,-1.6918,-1.6823,-1.6592,-1.6883,-1.6963,-1.6749,-1.751,-1.7816,-1.7524,-1.8202,-1.8627,-1.8907,-1.9054,-1.9387,-1.9911,-1.9964,-2.0087,-2.022,-2.0043,-2.0009,-2.0,-1.9877,-1.9488,-1.8956,-1.8208,-1.808,-1.8343,-1.8458,-1.8737,-1.9094,0.0,0.0,0.0,0.0,0.0,0.0,0.0,-1.3633,-1.4592,-1.7174,-1.8121,-1.9454,-2.1825,-2.2739,-2.3807,-2.543,-2.497,-2.4758,-2.5202,-2.4446,-2.397,-2.3984,-2.4833,-2.6087,-2.7691,-2.837,-2.9383,-3.0752,-3.1293,-3.1551,-3.1578,-3.1949,-3.1884,-3.1411,-3.1038,-3.0707,-3.0348,-2.8898,-2.6768,-2.4321,-2.2864,-2.1565,-2.0354,0.0,0.0,0.0,0.0,0.0,0.0,0.0,0.0,0.0,0.0,0.0,0.0,0.0,0.0,0.0,0.0,0.0,0.0,0.0,0.0,0.0,0.0,0.0,0.0,0.0,0.0,0.0,0.0,0.0,0.0,0.0,0.0,0.0,-1.6818,-1.7206,-1.7439,-1.7252,-1.7105,-1.7042,-1.7042,-1.6872,-1.6755,-1.6765,-1.6775,-1.667,-1.6459,-1.7264,-1.7646,-1.7455,-1.8068,-1.8434,-1.8443,-1.8626,-1.8944,-1.9347,-1.971,-2.0113,-2.0549,-2.0728,-2.0831,-2.0815,-2.0971,-2.0997,-2.097,-2.066,-2.0713,-2.0917,-2.0198,-1.9947,-1.9913,-1.9913,-1.9956,-1.9965,0.0,0.0,0.0,0.0,0.0,0.0,0.0,-1.4577,-1.5771,-1.736,-1.8975,-2.037,-2.1465,-2.331,-2.4664,-2.5116,-2.5665,-2.5962,-2.5989,-2.5673,-2.5584,-2.5841,-2.7118,-2.8029,-2.8502,-3.0283,-3.1329,-3.1562,-3.2404,-3.2747,-3.2568,-3.2662,-3.2605,-3.2469,-3.1847,-3.1482,-3.1179,-3.0067,-2.8773,-2.7315,-2.5113,-2.3421,-2.2135,0.0,0.0,0.0,0.0,0.0,0.0,0.0,0.0,0.0,0.0,0.0,0.0,0.0,0.0,0.0,0.0,0.0,0.0,0.0,0.0,0.0,0.0,0.0,0.0,0.0,0.0,0.0,0.0,0.0,0.0,0.0,0.0,-1.7539,-1.7338,-1.7591,-1.7714,-1.7501,-1.7757,-1.7879,-1.7756,-1.793,-1.8012,-1.7885,-1.8174,-1.8277,-1.8064,-1.8292,-1.8334,-1.8143,-1.8592,-1.8926,-1.9049,-1.9393,-1.9756,-2.0182,-2.0301,-2.0567,-2.0952,-2.0976,-2.1195,-2.1443,-2.1338,-2.1293,-2.1284,-2.1185,-2.1203,-2.1248,-2.0605,-2.0482,-2.0722,-2.0722,-2.0819,-2.1014,0.0,0.0,0.0,0.0,0.0,0.0,0.0,-1.4946,-1.6234,-1.7486,-1.9358,-2.0911,-2.1759,-2.3547,-2.4862,-2.537,-2.5846,-2.6172,-2.6285,-2.6351,-2.6821,-2.7724,-2.8581,-2.9329,-2.9967,-3.1504,-3.2291,-3.2267,-3.323,-3.3555,-3.3384,-3.3407,-3.3348,-3.321,-3.2676,-3.2294,-3.2,-3.098,-3.02,-2.9469,-2.7567,-2.5697,-2.3875,-2.3112,-2.2064,-2.0926,-2.0031,-1.9447,-1.8956,-1.7976,0.0,0.0,0.0,0.0,0.0,0.0,0.0,0.0,0.0,0.0,0.0,0.0,0.0,0.0,0.0,0.0,0.0,0.0,0.0,0.0,0.0,0.0,0.0,0.0,-1.7996,-1.8108,-1.8361,-1.8332,-1.8307,-1.8316,-1.8493,-1.8545,-1.8449,-1.8556,-1.8593,-1.8495,-1.8724,-1.8794,-1.8609,-1.8742,-1.8798,-1.8795,-1.9173,-1.95,-1.9806,-2.0012,-2.0332,-2.0769,-2.0769,-2.0979,-2.1374,-2.1374,-2.1458,-2.1687,-2.1562,-2.1526,-2.1526,-2.1526,-2.1526,0.0,0.0,0.0,0.0,0.0,-2.1374,-2.1526,0.0,0.0,0.0,0.0,0.0,0.0,0.0,-1.5033,-1.6368,-1.7581,-1.9405,-2.1072,-2.2277,-2.3445,-2.4584,-2.5697,-2.5694,-2.5854,-2.637,-2.6749,-2.7661,-2.9345,-2.9554,-3.0266,-3.1742,-3.233,-3.2754,-3.3079,-3.3925,-3.4233,-3.4057,-3.4092,-3.3979,-3.3725,-3.3326,-3.2982,-3.2686,-3.1749,-3.121,-3.0915,-2.9905,-2.7952,-2.5519,-2.4703,-2.376,-2.2745,-2.1985,-2.1341,-2.0728,-1.9965,0.0,0.0,0.0,0.0,0.0,0.0,0.0,0.0,0.0,0.0,0.0,0.0,0.0,0.0,0.0,0.0,0.0,0.0,0.0,0.0,0.0,0.0,0.0,0.0,-1.8442,-1.8592,-1.9486,-1.9213,-1.9013,-1.9248,-1.9078,-1.8968,-1.8968,-1.8841,-1.8759,-1.8722,-1.8807,-1.8779,-1.8574,0.0,0.0,0.0,0.0,-2.0149,-2.0543,-2.0585,-2.0787,-2.1181,-2.1181,-2.133,-2.1696,-2.1696,-2.1696,-2.1696,-2.1696,-2.1696,-2.1696,-2.1696,-2.1696,-2.1696,-2.1696,-2.1696,-2.1696,-2.1696,-2.1696,-2.1696,0.0,0.0,0.0,0.0,0.0,0.0,0.0,-1.5562,-1.7046,-1.7832,-1.9123,-2.0467,-2.1789,-2.2899,-2.3821,-2.4496,-2.5394,-2.626,-2.7039,-2.7527,-2.8316,-2.9515,-3.0392,-3.1436,-3.2687,-3.3482,-3.4134,-3.4724,-3.5022,-3.5075,-3.4872,-3.4524,-3.4243,-3.3992,-3.3526,-3.324,-3.2982,-3.2407,-3.1911,-3.1468,-3.0691,-2.9014,-2.6869,-2.6506,-2.552,-2.431,-2.3769,-2.306,-2.2276,-2.1707,-2.0773,-1.9859,-1.9668,0.0,0.0,0.0,0.0,0.0,0.0,0.0,0.0,0.0,0.0,0.0,0.0,0.0,0.0,0.0,0.0,0.0,0.0,0.0,0.0,-1.9306,-1.9089,-1.9,-1.955,-1.9362,-1.9181,-1.907,-1.8867,-1.8757,-1.8757,-1.9023,-1.9108,-1.8966,-1.9524,-1.9817,-1.9617,-2.0003,-2.0251,-2.0283,-2.0323,-2.0594,-2.0989,-2.0998,-2.12,-2.1568,0.0,0.0,-2.1696,-2.1696,-2.1696,-2.1696,-2.1696,-2.1696,-2.1696,-2.1696,-2.1696,-2.1696,-2.1696,-2.1696,-2.1696,-2.1696,-2.1696,-2.1696,0.0,0.0,0.0,0.0,0.0,0.0,0.0,-1.571,-1.7243,-1.791,-1.912,-2.0261,-2.1185,-2.2019,-2.285,-2.3665,-2.5,-2.6255,-2.7335,-2.7769,-2.8785,-3.0573,-3.1115,-3.2018,-3.3406,-3.4034,-3.4629,-3.5196,-3.5318,-3.5318,-3.5086,-3.4743,-3.441,-3.4076,-3.3725,-3.3441,-3.324,-3.2766,-3.2376,-3.2001,-3.1396,-3.0264,-2.8848,-2.7835,-2.6801,-2.5755,-2.5036,-2.4382,-2.3738,-2.3259,-2.2433,-2.1539,-2.1324,-2.0482,-1.9421,0.0,0.0,0.0,0.0,0.0,0.0,0.0,0.0,0.0,0.0,0.0,0.0,0.0,0.0,-1.9045,0.0,0.0,-1.9183,-1.9551,-1.9359,-1.9278,-1.9688,-1.9561,-1.9447,-1.9469,-1.9259,-1.9229,-1.9436,-1.9524,-1.965,-1.9734,-2.0112,-2.0301,-2.0228,-2.0369,-2.0613,-2.0805,-2.0814,-2.1007,-2.142,-2.142,-2.1485,-2.1696,-2.1696,-2.1696,-2.1696,-2.1696,-2.1696,-2.1696,-2.1696,-2.1696,-2.1696,-2.1696,-2.1696,-2.1696,-2.1696,-2.1696,-2.1696,-2.1696,-2.1696,-2.1696,0.0,0.0,0.0,0.0,0.0,0.0,0.0,-1.5645,-1.7091,-1.776,-1.8762,-1.9745,-2.056,-2.1004,-2.1803,-2.3187,-2.4534,-2.5917,-2.7403,-2.7854,-2.9174,-3.1593,-3.1603,-3.2294,-3.3938,-3.4335,-3.4782,-3.526,-3.5452,-3.5413,-3.5154,-3.4962,-3.4632,-3.4202,-3.3894,-3.3641,-3.3441,-3.297,-3.2636,-3.2419,-3.1816,-3.122,-3.0481,-2.8834,-2.7725,-2.7012,-2.6106,-2.5443,-2.493,-2.4476,-2.3759,-2.2966,-2.2585,-2.1635,-2.0602,-2.0014,-1.9491,0.0,0.0,0.0,0.0,0.0,0.0,0.0,0.0,0.0,-1.8733,-1.8708,-1.9339,-1.9826,-1.9617,-1.9519,-1.948,-1.9611,-1.9487,-1.9485,-1.989,-1.9797,-1.9746,-1.9979,-1.9804,-1.9836,-2.0235,-2.0117,-2.0131,-2.0493,-2.0585,-2.0631,-2.0631,-2.0714,-2.0897,-2.1218,-2.1227,-2.1392,-2.1687,-2.1696,-2.1696,-2.1696,-2.1696,-2.1696,-2.1696,-2.1696,-2.1696,-2.1696,-2.1696,-2.1696,-2.1696,-2.1696,-2.1696,-2.1696,-2.1696,-2.1696,-2.1696,-2.1696,-2.1696,-2.1696,0.0,0.0,0.0,0.0,0.0,0.0,0.0,0.0,-1.6519,-1.7194,-1.7364,-1.8112,-1.9882,-2.0047,-2.0893,-2.3098,-2.3852,-2.5135,-2.7345,-2.8038,-2.937,-3.1593,-3.1674,-3.2464,-3.4125,-3.4571,-3.4958,-3.5375,-3.5811,-3.5791,-3.5358,-3.5154,-3.4962,-3.4714,-3.4243,-3.3907,-3.3641,-3.3227,-3.2896,-3.2587,-3.1651,-3.1088,-3.0716,-2.9398,-2.8474,-2.7786,-2.7035,-2.628,-2.5596,-2.4952,-2.4376,-2.3792,-2.2956,-2.2293,-2.1783,-2.1513,0.0,-2.038,-1.9962,-1.9564,0.0,-1.9301,-1.9424,-1.954,0.0,0.0,-1.9619,-1.9495,-1.9836,-2.0051,-1.9675,-1.9899,-2.0091,-1.9905,-1.9689,-1.9711,-2.0111,-1.9974,-1.9989,-2.0379,-2.0113,-2.0017,-2.0411,-2.0457,-2.0466,-2.0512,-2.0842,-2.1044,-2.1044,-2.1348,-2.1577,-2.1623,-2.1623,-2.1641,-2.1696,-2.1696,-2.1696,-2.1696,-2.1696,-2.1696,-2.1696,-2.1696,-2.1696,-2.1696,-2.1696,-2.1696,-2.1696,-2.1696,-2.1696,-2.1696,-2.1696,-2.1696,-2.1696,-2.1696,-2.1696,-2.1696,0.0,0.0,0.0,0.0,0.0,0.0,0.0,0.0,0.0,-1.7116,-1.7178,-1.7609,-1.8767,-1.9366,-2.0359,-2.1987,-2.2966,-2.4325,-2.6382,-2.7358,-2.8771,-3.0799,-3.1407,-3.2396,-3.3818,-3.4114,-3.4543,-3.5041,-3.534,-3.5366,-3.5048,-3.5197,-3.5086,-3.4797,-3.441,-3.416,-3.3882,-3.314,-3.2663,-3.2304,-3.1348,-3.0803,-3.0483,-2.9068,-2.8338,-2.7994,-2.6984,-2.6342,0.0,-2.515,-2.4592,-2.4131,-2.3606,-2.3126,-2.2641,-2.2067,-2.1588,0.0,-2.0311,0.0,0.0,0.0,-1.9665,-1.9624,-1.9495,-1.9656,-1.9807,-1.9631,-2.0048,-2.0379,-2.0226,-2.0459,-2.058,0.0,-2.0357,-2.0369,-2.037,-2.0306,-2.042,-2.0814,-2.0714,-2.0677,-2.0842,-2.086,-2.0961,-2.1165,-2.133,-2.1431,-2.1431,-2.1595,-2.1696,-2.1696,-2.1696,-2.1696,-2.1696,-2.1696,-2.1696,-2.1696,-2.1696,-2.1696,-2.1696,-2.1696,-2.1696,-2.1696,-2.1696,-2.1696,-2.1696,-2.1696,-2.1696,-2.1696,-2.1696,-2.1696,-2.1696,-2.1696,-2.1696,-2.1696,0.0,0.0,0.0,0.0,0.0,0.0,0.0,0.0,0.0,0.0,-1.696,-1.7178,-1.7731,-1.8746,-1.976,-2.0715,-2.2121,-2.3683,-2.545,-2.6683,-2.8208,-3.0225,-3.0954,-3.1928,-3.3308,-3.3663,-3.4064,-3.4567,-3.4837,-3.487,-3.4636,-3.4833,-3.4714,-3.439,-3.4132,-3.3886,-3.3584,-3.28,-3.2304,-3.198,-3.0881,-3.0282,-2.9914,-2.8462,-2.7869,-2.7613,-2.6646,-2.6193,-2.5955,-2.5171,-2.47,-2.4359,-2.3998,-2.3623,-2.3195,-2.2539,-2.2149,-2.1707,-2.075,0.0,0.0,-2.0082,-1.9908,-1.9732,-1.9443,-1.9713,-1.9984,-1.9831,-2.0294,-2.0752,-2.0703,-2.0884,-2.1012,-2.0778,-2.091,-2.0936,-2.0795,-2.0771,-2.0918,-2.1236,-2.1282,-2.1282,-2.1282,-2.1282,-2.141,-2.1668,-2.1696,-2.1696,-2.1696,-2.1696,-2.1696,-2.1696,-2.1696,-2.1696,-2.1696,-2.1696,-2.1696,-2.1696,-2.1696,-2.1696,-2.1696,-2.1696,-2.1696,-2.1696,-2.1696,-2.1696,-2.1696,-2.1696,-2.1696,-2.1696,-2.1696,-2.1696,-2.1696,-2.1696,-2.1696,-2.1696,0.0,0.0,0.0,0.0,0.0,0.0,0.0,0.0,0.0,0.0,0.0,0.0,0.0,-1.8116,-1.9019,-1.9512,-2.1376,-2.3238,-2.4917,-2.6221,-2.7924,-3.0211,-3.0325,-3.1074,-3.2594,-3.3259,-3.372,-3.394,-3.4394,-3.4496,-3.4203,-3.3846,-3.3523,-3.3354,-3.3119,-3.2817,-3.2445,-3.2191,-3.1977,-3.158,-3.0074,-2.9363,-2.9096,-2.7736,-2.6997,-2.6581,-2.6162,-2.602,-2.585,-2.499,-2.4695,-2.4555,-2.3846,-2.3457,0.0,-2.3276,-2.283,-2.2231,0.0,0.0,-2.1088,-2.0682,-2.0411,-2.0226,-1.9943,-2.0079,-2.0284,-2.0284,-2.075,-2.1131,-2.0951,-2.1197,-2.1403,-2.1195,-2.1172,-2.1282,-2.1422,-2.1478,-2.1506,-2.1667,-2.1668,-2.1668,0.0,-2.1668,-2.1678,-2.1696,-2.1696,-2.1696,-2.1696,-2.1696,-2.1696,-2.1696,-2.1696,-2.1696,-2.1696,-2.1696,-2.1696,-2.1696,-2.1696,-2.1696,-2.1696,-2.1696,-2.1696,-2.1696,-2.1696,-2.1696,-2.1696,-2.1696,-2.1696,-2.1696,-2.1696,-2.1696,-2.1696,-2.1696,-2.1696,-2.1696,0.0,0.0,0.0,0.0,0.0,0.0,0.0,0.0,0.0,0.0,0.0,0.0,0.0,0.0,0.0,0.0,-2.0139,-2.1464,-2.3715,-2.497,-2.6371,-2.7982,-2.9507,-3.0506,-3.0945,-3.1853,-3.2323,-3.231,-3.273,-3.3052,-3.3221,-3.3322,-3.3452,-3.347,-3.3301,-3.2816,-3.2136,-3.1461,-3.0817,-3.0126,-2.8988,-2.8213,-2.7607,-2.6529,-2.5815,-2.5288,0.0,-2.4647,-2.4837,-2.386,-2.3649,-2.3733,-2.3239,-2.3262,-2.3372,-2.2852,-2.2365,-2.1921,0.0,0.0,-2.0896,-2.0498,-2.0342,-2.0225,-1.9942,-2.0108,-2.0303,-2.0303,-2.0664,-2.1086,-2.1312,-2.1685,-2.1995,-2.2026,-2.2188,-2.2202,-2.2117,-2.197,-2.1894,-2.1945,-2.183,0.0,0.0,0.0,0.0,-2.1696,-2.1696,-2.1696,-2.1696,-2.1696,-2.1696,-2.1696,-2.1696,-2.1696,-2.1696,-2.1696,-2.1696,-2.1696,-2.1696,-2.1696,-2.1696,-2.1696,-2.1696,-2.1696,-2.1696,-2.1696,-2.1696,-2.1696,-2.1696,-2.1696,-2.1696,-2.1696,-2.1696,-2.1696,-2.1696,-2.1696,0.0,0.0,0.0,0.0,0.0,0.0,0.0,0.0,0.0,0.0,0.0,0.0,0.0,0.0,0.0,0.0,0.0,-2.0589,-2.2861,-2.3877,-2.5043,-2.6524,-2.8174,-2.9203,-2.9485,-3.0347,-3.0796,-3.089,-3.1263,-3.1528,-3.1744,-3.2138,-3.2341,-3.2337,-3.2198,-3.1774,-3.1106,-3.0246,-2.9499,-2.882,-2.7733,-2.6947,-2.6293,-2.5529,-2.493,0.0,-2.3652,-2.3548,-2.3711,-2.3096,-2.3075,-2.3266,-2.2971,-2.3128,-2.3224,-2.2402,-2.1987,-2.1693,-2.1205,-2.0935,-2.0702,-2.0381,-2.0225,-2.0098,-1.9942,-2.0177,-2.042,-2.042,-2.082,-2.1331,-2.164,-2.2149,-2.2574,-2.2588,-2.2871,-2.2925,-2.2574,-2.2441,-2.2274,-2.2097,-2.1963,-2.183,0.0,0.0,0.0,-2.1696,-2.1696,-2.1696,-2.1696,-2.1696,-2.1696,-2.1696,-2.1696,-2.1696,-2.1696,-2.1696,-2.1696,-2.1696,-2.1696,-2.1696,-2.1696,-2.1696,-2.1696,-2.1696,-2.1696,-2.1696,-2.1696,-2.1696,-2.1696,-2.1696,-2.1696,-2.1696,-2.1696,-2.1696,-2.1696,-2.1696,0.0,0.0,0.0,0.0,0.0,0.0,0.0,0.0,0.0,0.0,0.0,0.0,0.0,0.0,0.0,0.0,0.0,0.0,-2.2242,-2.2891,-2.4002,-2.5785,-2.6418,-2.7178,-2.8239,-2.8727,-2.9192,-2.9662,-2.9879,-2.9975,-2.9914,-3.0294,-3.031,-3.0029,-3.0008,-2.9774,-2.935,-2.8638,-2.8101,-2.7661,-2.6345,-2.5589,-2.5136,-2.4591,-2.4173,-2.3782,-2.3271,-2.2795,-2.2462,-2.2756,-2.2949,0.0,-2.3065,-2.3006,-2.2777,-2.2025,-2.1769,-2.1617,-2.1061,-2.0741,-2.0566,-2.0342,-2.0108,-1.9902,-1.9942,-2.0294,-2.0605,-2.0644,-2.1243,-2.1829,0.0,0.0,-2.3094,-2.2881,-2.3196,-2.3299,-2.2891,-2.2803,-2.2627,0.0,0.0,0.0,0.0,0.0,0.0,-2.1696,0.0,-2.1696,-2.1696,-2.1696,-2.1696,-2.1696,-2.1696,-2.1696,-2.1696,-2.1696,-2.1696,-2.1696,-2.1696,-2.1696,-2.1696,-2.1696,-2.1696,-2.1696,-2.1696,-2.1696,-2.1696,-2.1696,-2.1696,-2.1696,-2.1696,-2.1696,-2.1696,-2.1696,-2.1696,-2.1696,0.0,0.0,0.0,0.0,0.0,0.0,0.0,0.0,0.0,0.0,0.0,0.0,0.0,0.0,0.0,0.0,0.0,0.0,-2.04,-2.1406,-2.2572,-2.3929,-2.4941,-2.572,-2.6297,-2.6767,-2.7243,-2.7696,-2.7678,-2.8061,-2.8827,-2.8809,-2.8935,-2.9114,-2.8884,-2.8398,-2.7774,-2.7433,-2.6824,-2.6046,-2.521,-2.4455,-2.3789,-2.3012,-2.2313,-2.1724,-2.1513,-2.1362,0.0,0.0,0.0,0.0,0.0,-2.2606,-2.2063,-2.1845,-2.1464,-2.1099,-2.0945,-2.0741,-2.0566,-2.0342,-2.0264,-2.0225,-2.0411,-2.0527,-2.0722,-2.1195,-2.1555,-2.1961,0.0,0.0,0.0,-2.3442,-2.3235,0.0,-2.328,-2.3013,0.0,0.0,0.0,-2.2008,-2.1741,-2.1696,0.0,0.0,-2.1696,-2.1696,-2.1696,-2.1696,-2.1696,-2.1696,-2.1696,-2.1696,-2.1696,-2.1696,-2.1696,-2.1696,-2.1696,-2.1696,-2.1696,-2.1696,-2.1696,-2.1696,-2.1696,-2.1696,-2.1696,-2.1696,-2.1696,-2.1696,-2.1696,-2.1696,-2.1696,-2.1696,-2.1696,-2.1696,0.0,0.0,0.0,0.0,0.0,0.0,0.0,0.0,0.0,0.0,0.0,0.0,0.0,0.0,0.0,0.0,0.0,0.0,0.0,-2.0586,-2.1469,-2.2435,-2.3289,-2.3923,-2.4399,-2.4844,-2.5346,-2.5907,-2.5961,-2.6288,-2.6773,-2.6948,-2.7104,-2.7195,-2.6952,-2.658,-2.6123,-2.5688,-2.5112,0.0,0.0,-2.3067,-2.2588,-2.2054,-2.153,-2.1099,-2.0958,0.0,0.0,0.0,0.0,-2.1899,-2.2548,-2.2327,-2.1769,-2.1578,0.0,-2.0867,-2.078,-2.0615,-2.045,-2.0459,-2.0411,-2.0489,-2.0693,-2.0925,-2.1173,-2.1322,-2.162,0.0,0.0,0.0,0.0,0.0,0.0,0.0,-2.3219,-2.3114,-2.2925,0.0,-2.2309,0.0,-2.1731,-2.1696,-2.1696,0.0,-2.1696,-2.1696,-2.1696,-2.1696,-2.1696,-2.1696,-2.1696,-2.1696,-2.1696,-2.1696,-2.1696,-2.1696,-2.1696,-2.1696,-2.1696,-2.1696,-2.1696,-2.1696,0.0,-2.1696,-2.1696,-2.1696,-2.1696,-2.1696,-2.1696,-2.1696,-2.1696,-2.1696,-2.1696,-2.1696,0.0,0.0,0.0,0.0,0.0,0.0,0.0,0.0,0.0,0.0,0.0,0.0,0.0,0.0,0.0,0.0,0.0,0.0,0.0,0.0,-2.0641,-2.1226,-2.1633,-2.209,-2.2627,-2.2971,-2.344,-2.4097,-2.4388,-2.4479,-2.438,-2.4886,-2.5039,-2.4874,-2.4789,-2.469,-2.4523,-2.3846,-2.3398,-2.3026,-2.2164,-2.1741,-2.1604,0.0,-2.1224,-2.1042,-2.0953,0.0,0.0,0.0,-2.192,-2.184,-2.2253,-2.2111,-2.1655,-2.132,-2.1051,-2.0819,-2.0644,-2.045,-2.0381,-2.0566,-2.0605,-2.0693,-2.0945,-2.1346,-2.1638,-2.1308,0.0,-2.1822,-2.175,0.0,-2.2542,-2.246,0.0,-2.3535,-2.2956,-2.3226,-2.3232,-2.253,-2.2441,-2.222,-2.1785,-2.1741,-2.1696,-2.1696,-2.1696,-2.1696,-2.1696,-2.1696,-2.1696,-2.1696,-2.1696,-2.1696,-2.1696,-2.1696,-2.1696,-2.1696,-2.1696,-2.1696,-2.1696,-2.1696,-2.1696,-2.1696,-2.1696,-2.1696,-2.1696,-2.1696,-2.1696,-2.1696,-2.1696,-2.1696,-2.1696,-2.1696,-2.1696,-2.1696,0.0,0.0,0.0,0.0,0.0,0.0,0.0,0.0,0.0,0.0,-1.8331,0.0,0.0,0.0,0.0,0.0,0.0,0.0,0.0,0.0,0.0,-2.0553,-2.0553,-2.0759,-2.1225,-2.1212,-2.1454,-2.2033,-2.1967,-2.217,-2.2628,-2.2998,-2.3163,-2.3151,-2.3388,-2.3447,-2.3299,-2.3071,-2.287,-2.2628,-2.1731,-2.1312,-2.1129,-2.0498,0.0,0.0,0.0,0.0,0.0,0.0,-2.1642,-2.1653,-2.2216,-2.1883,-2.1282,-2.1205,-2.0925,-2.0644,-2.0605,-2.0566,-2.0566,-2.0605,-2.0731,-2.0935,-2.132,-2.1329,0.0,0.0,0.0,-2.1645,-2.1959,-2.2298,0.0,-2.2794,0.0,0.0,0.0,0.0,-2.3329,0.0,0.0,0.0,0.0,0.0,0.0,0.0,0.0,-2.1696,-2.1696,-2.1696,-2.1696,-2.1696,-2.1696,-2.1696,-2.1696,-2.1696,-2.1696,-2.1696,-2.1696,-2.1696,-2.1696,-2.1696,-2.1696,-2.1696,-2.1696,0.0,-2.1696,-2.1696,-2.1696,-2.1696,-2.1696,-2.1696,-2.1696,-2.1696,-2.1696,-2.1742,0.0,0.0,0.0,0.0,0.0,0.0,0.0,0.0,0.0,0.0,-2.0668,-2.0304,0.0,0.0,0.0,0.0,0.0,0.0,0.0,0.0,0.0,0.0,0.0,0.0,-2.0367,-2.0198,0.0,0.0,0.0,-2.0984,-2.1257,0.0,0.0,-2.131,-2.1343,-2.1348,-2.1275,-2.1066,-2.0944,-2.0858,-2.0548,-2.0346,0.0,0.0,0.0,0.0,0.0,0.0,0.0,0.0,-2.1429,-2.1593,-2.1915,-2.1789,-2.1512,-2.1397,-2.1079,-2.078,-2.078,-2.0693,-2.0644,-2.0731,-2.0896,-2.1116,-2.1244,0.0,0.0,0.0,0.0,-2.1744,-2.1812,0.0,0.0,0.0,0.0,0.0,0.0,0.0,0.0,0.0,0.0,0.0,0.0,0.0,0.0,0.0,0.0,-2.1696,-2.1696,-2.1696,-2.1696,-2.1696,-2.1696,-2.1696,-2.1696,-2.1696,-2.1696,-2.1696,-2.1696,-2.1696,-2.1696,-2.1696,-2.1696,-2.1696,-2.1696,0.0,-2.1696,-2.1696,-2.1696,-2.1696,-2.1696,-2.1696,-2.1696,-2.1696,-2.1824,-2.2025,0.0,0.0,0.0,0.0,0.0,0.0,0.0,-2.0131,-2.1237,-2.1805,-2.2469,-2.2041,-1.9735,-1.9296,-1.9077,0.0,0.0,0.0,0.0,0.0,0.0,0.0,0.0,0.0,0.0,0.0,0.0,0.0,0.0,0.0,0.0,0.0,0.0,0.0,0.0,0.0,-1.9642,-1.9405,-1.9278,0.0,0.0,0.0,0.0,0.0,0.0,0.0,0.0,0.0,0.0,0.0,-2.131,-2.1574,-2.162,-2.1676,-2.1748,-2.1586,-2.132,-2.1022,-2.0984,-2.0858,-2.077,-2.0935,-2.1167,-2.1314,-2.1228,-2.1517,0.0,0.0,-2.1317,-2.1608,-2.1613,0.0,0.0,0.0,0.0,0.0,0.0,0.0,0.0,0.0,0.0,0.0,0.0,0.0,0.0,0.0,0.0,0.0,-2.1696,-2.1696,-2.1696,-2.1696,-2.1696,-2.1696,-2.1696,-2.1696,-2.1696,-2.1696,-2.1696,-2.1696,-2.1696,-2.1696,-2.1696,-2.1696,-2.1696,0.0,0.0,-2.1696,-2.1696,-2.1696,-2.1696,-2.1696,-2.1705,-2.1787,-2.2016,-2.23,0.0,0.0,0.0,0.0,0.0,0.0,0.0,-2.0889,-2.1805,-2.182,-2.2453,-2.2751,-2.2375,-2.1723,-2.0992,0.0,0.0,0.0,0.0,0.0,0.0,0.0,0.0,0.0,0.0,0.0,0.0,0.0,0.0,0.0,0.0,0.0,0.0,0.0,0.0,0.0,0.0,-1.9369,0.0,0.0,0.0,0.0,0.0,0.0,0.0,0.0,0.0,0.0,0.0,0.0,0.0,-2.1487,-2.1374,-2.1487,-2.1634,-2.1748,0.0,0.0,-2.1205,-2.1167,-2.1167,-2.1167,-2.1474,-2.1721,-2.1597,0.0,0.0,-2.1765,-2.1129,-2.0761,-2.1561,-2.1662,-2.185,0.0,0.0,0.0,0.0,0.0,0.0,0.0,0.0,0.0,0.0,0.0,0.0,0.0,0.0,0.0,-2.1696,-2.1696,-2.1696,-2.1696,-2.1696,-2.1696,-2.1696,-2.1696,-2.1696,-2.1696,-2.1696,-2.1696,-2.1696,-2.1696,-2.1696,-2.1696,-2.1696,0.0,0.0,-2.1696,-2.1696,-2.1696,-2.1696,-2.1696,-2.1733,-2.2089,-2.2245,-2.2382,0.0,0.0,0.0,0.0,0.0,0.0,0.0,-2.1299,-2.2503,-2.2469,-2.3393,-2.3852,-2.3299,-2.2512,-2.1719,0.0,0.0,0.0,0.0,0.0,0.0,0.0,0.0,0.0,0.0,0.0,0.0,0.0,0.0,0.0,0.0,0.0,0.0,0.0,0.0,0.0,0.0,0.0,0.0,0.0,0.0,0.0,0.0,0.0,0.0,0.0,0.0,0.0,0.0,0.0,0.0,0.0,-2.1432,-2.1718,0.0,0.0,-2.1966,-2.1997,-2.1807,-2.1655,-2.1578,-2.1693,-2.1665,-2.1565,-2.1525,0.0,0.0,-2.1053,-2.0916,-2.0833,-2.0836,-2.1084,-2.1502,-2.206,0.0,0.0,0.0,0.0,0.0,0.0,0.0,0.0,0.0,0.0,0.0,0.0,0.0,0.0,-2.1696,-2.1696,-2.1696,-2.1696,-2.1696,-2.1696,-2.1696,-2.1696,-2.1696,-2.1696,-2.1696,-2.1696,-2.1696,-2.1696,-2.1696,-2.1696,-2.1696,0.0,0.0,-2.1696,-2.1696,-2.1696,-2.1696,-2.1696,-2.1742,-2.2135,-2.2437,-2.2739,0.0,0.0,0.0,0.0,0.0,0.0,-1.9734,-2.137,-2.2526,-2.2526,-2.3472,-2.3924,-2.3274,-2.2489,-2.1756,-2.117,0.0,0.0,0.0,0.0,0.0,0.0,0.0,0.0,0.0,0.0,-1.8854,-1.9163,-1.9343,0.0,0.0,0.0,0.0,0.0,0.0,0.0,0.0,0.0,0.0,0.0,0.0,0.0,0.0,0.0,0.0,0.0,0.0,0.0,0.0,0.0,0.0,0.0,0.0,0.0,0.0,0.0,-2.223,-2.2461,-2.22,-2.2146,-2.2145,-2.212,-2.1908,-2.1685,0.0,0.0,-2.1122,-2.0677,-2.0622,-2.0576,-2.0425,-2.0711,-2.117,-2.1787,0.0,-2.2902,0.0,0.0,0.0,0.0,0.0,0.0,0.0,0.0,0.0,0.0,0.0,0.0,-2.1696,-2.1696,-2.1696,-2.1696,-2.1696,-2.1696,-2.1696,-2.1696,-2.1696,-2.1696,-2.1696,-2.1696,-2.1696,-2.1696,-2.1696,-2.1696,-2.1696,0.0,0.0,-2.1696,-2.1696,-2.1696,-2.1696,-2.176,-2.1916,-2.2318,-2.2721,-2.3142,0.0,0.0,0.0,0.0,0.0,0.0,0.0,-2.1137,-2.1608,-2.1608,-2.2199,-2.2546,-2.2339,-2.172,-2.1158,-2.0738,0.0,0.0,0.0,0.0,0.0,0.0,0.0,0.0,0.0,0.0,-1.9149,-1.91,-1.9694,-1.9932,-1.9801,0.0,0.0,0.0,0.0,0.0,0.0,0.0,0.0,0.0,0.0,0.0,0.0,0.0,0.0,0.0,0.0,0.0,0.0,0.0,0.0,0.0,0.0,0.0,-2.2248,0.0,-2.2391,-2.2697,-2.2291,-2.2567,-2.2855,-2.2339,-2.2327,-2.2324,0.0,0.0,-2.1106,-2.1077,-2.0238,-1.9741,-2.0466,-2.0598,-2.0871,-2.1758,-2.2467,0.0,0.0,0.0,0.0,0.0,0.0,0.0,0.0,0.0,0.0,0.0,0.0,0.0,-2.1696,-2.1696,-2.1696,-2.1696,-2.1696,-2.1696,-2.1696,-2.1696,-2.1696,-2.1696,-2.1696,-2.1696,-2.1696,-2.1696,-2.1696,-2.1696,0.0,0.0,0.0,-2.1696,-2.1696,-2.1696,-2.1696,-2.1934,-2.2327,-2.2748,-2.3151,-2.3544,0.0,0.0,0.0,0.0,0.0,0.0,0.0,-2.0807,-2.1592,-2.1592,-2.2074,-2.2362,-2.2305,-2.1534,-2.0933,-2.0719,0.0,0.0,0.0,0.0,0.0,0.0,0.0,0.0,0.0,0.0,-1.9479,-2.0196,-2.0388,-2.0621,-2.0877,-2.0427,-2.0182,0.0,0.0,0.0,0.0,0.0,0.0,0.0,0.0,0.0,0.0,0.0,0.0,0.0,0.0,0.0,0.0,0.0,0.0,0.0,0.0,0.0,0.0,-2.1682,-2.2344,0.0,-2.2581,-2.252,-2.2529,-2.2476,-2.2195,-2.1902,-2.1918,0.0,-2.089,-2.06,-2.0091,-1.9665,-1.9528,-2.0121,-2.0694,-2.0967,-2.2182,0.0,0.0,0.0,0.0,0.0,0.0,0.0,0.0,0.0,0.0,0.0,0.0,0.0,-2.1696,-2.1696,-2.1696,-2.1696,-2.1696,-2.1696,-2.1696,-2.1696,-2.1696,-2.1696,-2.1696,-2.1696,-2.1696,-2.1696,-2.1696,0.0,0.0,0.0,0.0,-2.1696,-2.1696,-2.1723,-2.1989,-2.2172,-2.2364,-2.305,-2.3389,-2.3553,0.0,0.0,0.0,0.0,0.0,0.0,0.0,-2.0113,-2.075,-2.0996,-2.1255,-2.1421,-2.135,-2.0815,-2.0374,-2.021,0.0,0.0,0.0,0.0,0.0,0.0,0.0,0.0,0.0,-1.9258,-1.9894,-2.0961,-2.1131,-2.148,-2.1988,-2.1298,-2.0944,-2.0844,-1.9947,0.0,0.0,0.0,0.0,0.0,0.0,0.0,-1.662,0.0,0.0,0.0,0.0,0.0,0.0,0.0,0.0,0.0,0.0,0.0,0.0,0.0,-2.2061,-2.2714,0.0,-2.2636,-2.2638,-2.2544,-2.22,0.0,0.0,0.0,-2.0588,-2.0199,-1.9785,-1.9471,-1.9338,-2.0013,-2.0735,-2.1139,-2.2313,0.0,0.0,0.0,0.0,0.0,0.0,0.0,0.0,0.0,0.0,0.0,0.0,0.0,-2.1696,-2.1696,-2.1696,-2.1696,-2.1696,-2.1696,-2.1696,-2.1696,-2.1696,-2.1696,-2.1696,-2.1696,-2.1696,-2.1696,-2.1696,0.0,0.0,0.0,0.0,-2.1696,-2.1778,-2.1934,-2.2181,-2.2474,-2.2794,-2.3306,-2.359,-2.3813,0.0,0.0,0.0,0.0,0.0,0.0,0.0,0.0,0.0,0.0,-1.9949,-1.9874,-1.9797,-1.9726,-1.9599,0.0,0.0,0.0,0.0,0.0,0.0,0.0,0.0,0.0,-1.8945,-1.9533,-2.0389,-2.1453,-2.1884,-2.2399,-2.2964,-2.2257,-2.1849,-2.1641,-2.056,-1.9612,-1.8701,0.0,0.0,0.0,0.0,0.0,0.0,0.0,0.0,0.0,0.0,0.0,0.0,0.0,0.0,0.0,0.0,0.0,0.0,0.0,0.0,0.0,0.0,-2.2906,0.0,0.0,0.0,0.0,0.0,0.0,0.0,-1.9889,-1.9411,-1.9218,-1.9724,-2.0302,-2.1048,-2.2029,0.0,0.0,0.0,0.0,0.0,0.0,0.0,0.0,0.0,0.0,0.0,0.0,0.0,0.0,-2.1696,-2.1696,-2.1696,-2.1696,-2.1696,-2.1696,-2.1696,-2.1696,-2.1696,-2.1696,-2.1696,-2.1696,-2.1696,-2.1696,-2.1696,0.0,0.0,0.0,0.0,-2.1696,-2.1925,-2.2282,-2.2309,-2.2803,-2.3499,-2.3526,-2.3831,-2.4202,0.0,0.0,0.0,0.0,0.0,0.0,0.0,0.0,0.0,0.0,-1.9114,-1.9189,-1.9666,-1.9563,-1.9395,0.0,0.0,0.0,0.0,0.0,0.0,0.0,0.0,0.0,-1.9582,-2.0093,-2.086,-2.1951,-2.2035,-2.2348,-2.2844,-2.2578,-2.2102,-2.1524,-2.116,-2.0062,-1.8435,-1.7686,0.0,0.0,0.0,0.0,0.0,0.0,0.0,0.0,-1.7174,-1.7739,0.0,0.0,0.0,0.0,0.0,0.0,0.0,0.0,-2.0804,-2.1002,-2.197,0.0,-2.2573,-2.2421,-2.2323,-2.2073,0.0,0.0,0.0,0.0,0.0,-1.9652,-1.9784,-2.0928,-2.1866,-2.1951,0.0,0.0,0.0,0.0,0.0,0.0,0.0,0.0,0.0,0.0,0.0,0.0,0.0,-2.1696,-2.1696,-2.1696,-2.1696,-2.1696,-2.1696,-2.1696,-2.1696,-2.1696,-2.1696,-2.1696,-2.1696,-2.1696,-2.1696,-2.1696,-2.1696,0.0,0.0,0.0,-2.1696,-2.1696,-2.1925,-2.2309,-2.2638,-2.3059,-2.3535,-2.3895,-2.4119,-2.4202,0.0,0.0,0.0,0.0,0.0,0.0,0.0,0.0,0.0,0.0,0.0,0.0,0.0,0.0,0.0,0.0,0.0,0.0,0.0,0.0,0.0,0.0,0.0,-1.9135,-1.9654,-2.0431,-2.1336,-2.2429,-2.2604,-2.2963,-2.3493,-2.3007,-2.2582,-2.2148,-2.1158,-1.9862,-1.8365,-1.7726,-1.7068,0.0,-1.6457,0.0,0.0,0.0,0.0,0.0,-1.6851,-1.735,0.0,-1.8444,-1.8983,-1.9497,0.0,0.0,0.0,0.0,-2.0398,-2.0705,-2.1468,-2.1896,-2.2165,-2.2359,-2.2359,-2.2145,-2.1524,0.0,0.0,0.0,0.0,-2.0172,-2.0674,-2.1403,0.0,0.0,0.0,0.0,0.0,0.0,0.0,0.0,0.0,0.0,0.0,0.0,0.0,0.0,0.0,-2.1696,-2.1696,-2.1696,-2.1696,-2.1696,-2.1696,-2.1696,-2.1696,-2.1696,-2.1696,-2.1696,-2.1696,-2.1696,-2.1696,-2.1696,-2.1696,0.0,0.0,0.0,-2.1705,-2.1888,-2.2199,-2.2611,-2.3014,-2.3425,-2.3849,-2.4119,-2.4202,-2.4202,0.0,0.0,0.0,0.0,0.0,0.0,0.0,0.0,0.0,0.0,0.0,0.0,0.0,0.0,0.0,0.0,0.0,0.0,0.0,0.0,0.0,0.0,-1.8679,-1.9206,-1.9624,-2.0734,-2.1882,-2.3043,-2.337,-2.3853,-2.4455,-2.3631,-2.3085,-2.2719,-2.092,-1.9459,-1.8295,-1.7725,-1.7057,-1.6383,-1.6383,0.0,0.0,0.0,0.0,0.0,0.0,0.0,0.0,-1.7869,-1.8433,-1.9033,-1.9471,0.0,0.0,0.0,0.0,0.0,-2.1055,-2.142,-2.1778,-2.2293,-2.2389,-2.2225,-2.1524,0.0,0.0,0.0,0.0,0.0,0.0,-2.198,0.0,0.0,0.0,0.0,0.0,0.0,0.0,0.0,0.0,0.0,0.0,0.0,0.0,0.0,0.0,-2.1696,-2.1696,-2.1696,-2.1696,-2.1696,-2.1696,-2.1696,-2.1696,-2.1696,-2.1696,-2.1696,-2.1696,-2.1696,-2.1696,-2.1696,-2.1696,-2.1696,0.0,0.0,-2.1806,-2.2144,-2.2565,-2.3032,-2.337,-2.3794,-2.4202,-2.4202,-2.4202,-2.4202,0.0,0.0,0.0,0.0,0.0,0.0,0.0,0.0,0.0,0.0,0.0,0.0,0.0,0.0,0.0,0.0,0.0,0.0,0.0,0.0,0.0,-1.8496,-1.9089,-1.9638,-2.016,-2.1253,-2.2552,-2.4081,-2.4131,-2.4564,-2.5293,-2.4693,-2.3541,-2.1848,-2.0988,-1.966,-1.8048,-1.7949,-1.7258,-1.6244,-1.6244,0.0,0.0,0.0,0.0,0.0,0.0,0.0,0.0,-1.7166,-1.7834,-1.8684,-1.8758,0.0,0.0,0.0,0.0,0.0,-2.076,-2.1092,-2.1342,-2.2207,-2.2389,-2.2195,-2.1331,0.0,0.0,0.0,0.0,0.0,0.0,0.0,0.0,0.0,0.0,0.0,0.0,0.0,0.0,0.0,0.0,0.0,0.0,0.0,0.0,0.0,0.0,-2.1696,-2.1696,-2.1696,-2.1696,-2.1696,-2.1696,-2.1696,-2.1696,-2.1696,-2.1696,-2.1696,-2.1696,-2.1696,-2.1696,-2.1696,-2.1696,-2.1696,0.0,-2.1879,-2.219,-2.2254,-2.2721,-2.3407,-2.3471,-2.3794,-2.4202,-2.4202,-2.4202,-2.4152,0.0,0.0,0.0,0.0,0.0,0.0,0.0,0.0,0.0,0.0,0.0,0.0,0.0,0.0,0.0,0.0,0.0,0.0,0.0,0.0,-1.8147,-1.858,-1.9039,-1.9704,-2.0547,-2.1703,-2.2907,-2.42,-2.4514,-2.4958,-2.549,-2.4779,-2.3403,-2.1579,-2.1202,-1.9894,-1.8,-1.7918,-1.7194,-1.6088,0.0,0.0,0.0,0.0,0.0,0.0,0.0,0.0,0.0,0.0,-1.7528,-1.8228,-1.8498,0.0,0.0,0.0,0.0,0.0,-2.0636,-2.0901,-2.1173,-2.2289,-2.2626,-2.2566,-2.2075,0.0,0.0,0.0,0.0,0.0,0.0,0.0,0.0,0.0,0.0,0.0,0.0,0.0,0.0,0.0,0.0,0.0,0.0,0.0,0.0,0.0,0.0,0.0,-2.1696,-2.1696,-2.1696,-2.1696,-2.1696,-2.1696,-2.1696,-2.1696,-2.1696,-2.1696,-2.1696,-2.1696,-2.1696,-2.1696,-2.1696,-2.1705,0.0,-2.2117,-2.2309,-2.2757,-2.316,-2.3517,-2.3785,-2.3987,-2.4202,-2.4053,-2.4003,-2.3904,0.0,0.0,0.0,0.0,0.0,0.0,0.0,0.0,0.0,0.0,0.0,0.0,0.0,0.0,0.0,0.0,0.0,0.0,0.0,0.0,-1.8274,-1.8739,-1.9237,-1.9956,-2.0983,-2.2154,-2.3308,-2.4488,-2.5062,-2.5356,-2.5376,-2.4556,-2.3207,-2.1481,-2.1228,-1.994,-1.7929,-1.7798,-1.7055,-1.5957,0.0,0.0,0.0,0.0,0.0,0.0,0.0,0.0,0.0,0.0,0.0,0.0,0.0,0.0,0.0,-1.9316,-1.9316,-1.9521,-2.0479,-2.0713,-2.1,-2.2381,-2.2794,-2.2818,-2.269,-2.2848,0.0,0.0,0.0,0.0,0.0,0.0,0.0,0.0,0.0,0.0,0.0,0.0,0.0,0.0,0.0,0.0,0.0,0.0,0.0,0.0,0.0,0.0,-2.1696,-2.1696,-2.1696,-2.1696,-2.1696,-2.1696,-2.1696,-2.1696,-2.1696,-2.1696,-2.1696,-2.1696,-2.1696,-2.1696,-2.1742,-2.1851,-2.219,-2.2428,-2.2611,-2.3233,-2.3544,-2.3712,-2.4082,-2.4202,-2.4152,-2.3904,-2.3755,-2.3646,0.0,0.0,0.0,0.0,0.0,0.0,0.0,0.0,0.0,0.0,0.0,0.0,0.0,0.0,0.0,0.0,0.0,0.0,0.0,0.0,-1.8752,-1.923,-2.0184,-2.0995,-2.1601,-2.2625,-2.3995,-2.5662,-2.609,-2.5891,-2.5103,-2.4368,-2.31,-2.1468,-2.0829,-1.954,-1.781,-1.7666,-1.6927,-1.5814,-1.5814,0.0,0.0,0.0,0.0,0.0,0.0,0.0,0.0,0.0,0.0,0.0,0.0,0.0,-1.9013,-1.9013,-1.9013,-1.9254,-2.0322,-2.0471,-2.0712,-2.2305,-2.271,-2.2698,-2.2624,-2.3006,0.0,-2.3183,0.0,0.0,0.0,0.0,0.0,0.0,0.0,0.0,0.0,0.0,0.0,0.0,0.0,0.0,0.0,0.0,0.0,0.0,0.0,0.0,-2.1696,-2.1696,-2.1696,-2.1696,-2.1696,-2.1696,-2.1696,-2.1696,-2.1696,-2.1696,-2.1696,-2.1696,-2.1696,-2.1696,-2.1888,-2.2282,-2.2272,-2.2702,-2.3407,-2.3471,-2.3767,-2.4165,-2.4192,-2.4202,-2.4152,-2.3904,-2.3646,-2.3406,0.0,0.0,0.0,0.0,0.0,0.0,0.0,0.0,0.0,0.0,0.0,0.0,0.0,0.0,0.0,0.0,0.0,0.0,0.0,-1.8229,-1.8688,-1.9175,-1.9814,-2.0803,-2.2115,-2.2833,-2.4044,-2.5793,-2.6123,-2.5903,-2.5186,-2.4002,-2.2761,-2.1468,-2.0792,-1.9688,-1.8265,-1.7812,-1.7097,-1.6283,-1.5924,-1.5792,0.0,0.0,0.0,0.0,0.0,0.0,0.0,0.0,-1.6043,-1.6681,-1.6988,-1.7628,-1.8332,-1.8744,-1.9105,-1.9538,-2.0227,-2.0849,-2.1554,-2.2571,-2.3187,-2.3572,-2.3546,-2.3559,-2.3667,-2.3897,-2.4003,0.0,0.0,0.0,0.0,0.0,0.0,0.0,0.0,0.0,0.0,0.0,0.0,0.0,0.0,0.0,0.0,0.0,0.0,0.0,-2.1696,-2.1696,-2.1696,-2.1696,-2.1696,-2.1696,-2.1696,-2.1696,-2.1696,-2.1696,-2.1696,-2.1696,-2.1705,-2.1943,-2.2144,-2.2355,-2.2812,-2.3206,-2.3517,-2.3813,-2.4064,-2.4202,-2.4202,-2.4102,-2.3904,-2.3646,-2.3397,-2.3097,0.0,0.0,0.0,0.0,0.0,0.0,0.0,0.0,0.0,0.0,0.0,0.0,0.0,0.0,0.0,0.0,0.0,0.0,-1.7699,-1.8289,-1.8755,-1.9097,-1.9887,-2.0897,-2.21,-2.2831,-2.3981,-2.555,-2.5839,-2.5634,-2.4918,-2.3583,-2.2443,-2.1455,-2.0592,-1.96,-1.856,-1.8081,-1.7363,-1.6571,-1.6211,-1.5936,0.0,0.0,0.0,0.0,0.0,0.0,0.0,0.0,-1.5787,-1.6314,-1.6782,-1.7322,-1.7916,-1.8552,-1.9112,-1.9606,-2.0103,-2.0966,-2.1922,-2.2633,-2.3373,-2.4002,-2.4171,-2.4177,-2.415,-2.4207,-2.4115,0.0,0.0,0.0,0.0,0.0,0.0,0.0,0.0,0.0,0.0,0.0,0.0,0.0,0.0,0.0,0.0,0.0,0.0,0.0,0.0,-2.1696,-2.1696,-2.1696,-2.1696,-2.1696,-2.1696,-2.1696,-2.1696,-2.1696,-2.1696,-2.1696,-2.1705,-2.2099,-2.2355,-2.2519,-2.3197,-2.3563,-2.3758,-2.4082,-2.4202,-2.4202,-2.4202,-2.4053,-2.3755,-2.3497,-2.3247,-2.2946,0.0,0.0,0.0,0.0,0.0,0.0,0.0,0.0,0.0,0.0,0.0,0.0,0.0,0.0,0.0,0.0,0.0,0.0,-1.7699,-1.8574,-1.911,-1.911,-2.0633,-2.1498,-2.1511,-2.2595,-2.3785,-2.4992,-2.5325,-2.5062,-2.4184,-2.3086,-2.2204,-2.1443,-2.0193,-1.9242,-1.8596,-1.8471,-1.7702,-1.6619,-1.6607,-1.6283,-1.5804,0.0,0.0,0.0,0.0,0.0,0.0,0.0,-1.5649,-1.6172,-1.6636,-1.726,-1.7878,-1.8434,-1.8924,-1.9409,-1.9953,-2.0747,-2.1626,-2.2409,0.0,0.0,-2.4285,-2.4774,-2.4856,-2.3981,-2.3795,-2.3797,-2.3797,0.0,0.0,0.0,0.0,0.0,0.0,0.0,0.0,0.0,0.0,0.0,0.0,0.0,0.0,0.0,0.0,0.0,0.0,-2.1696,-2.1696,-2.1696,-2.1696,-2.1696,-2.1696,-2.1696,-2.1696,-2.1696,-2.1696,-2.1696,-2.1714,-2.2099,-2.2519,-2.2931,-2.3325,-2.3776,-2.4202,-2.4202,-2.4202,-2.4202,-2.4202,-2.4053,-2.3755,-2.3497,-2.3247,-2.2946,0.0,0.0,0.0,0.0,0.0,0.0,0.0,0.0,0.0,0.0,0.0,0.0,0.0,0.0,0.0,0.0,0.0,0.0,-1.757,-1.8539,-1.9051,-1.8957,-2.0216,-2.1093,-2.1498,-2.2243,-2.3409,-2.4992,-2.4966,-2.4769,-2.4374,-2.3174,-2.2204,-2.1455,-2.0713,-1.9929,-1.9136,-1.8718,-1.8226,-1.7664,-1.6895,-1.6511,-1.6308,0.0,0.0,0.0,0.0,0.0,0.0,0.0,0.0,0.0,-1.5994,-1.6525,-1.7072,-1.7722,-1.8759,-1.9831,-2.0332,-2.1423,0.0,-2.3336,0.0,0.0,0.0,-2.4536,0.0,0.0,-2.3577,-2.3503,-2.3154,0.0,0.0,0.0,0.0,0.0,0.0,0.0,0.0,0.0,0.0,0.0,0.0,0.0,0.0,0.0,0.0,0.0,0.0,-2.1696,-2.1696,-2.1696,-2.1696,-2.1696,-2.1696,-2.1696,-2.1696,-2.1696,-2.1696,-2.1833,-2.2117,-2.2538,-2.294,-2.3343,-2.3794,-2.4091,-2.4202,-2.4202,-2.4202,-2.4202,-2.4202,-2.3904,-2.3506,-2.3456,-2.3097,-2.2695,0.0,0.0,0.0,0.0,0.0,0.0,0.0,0.0,0.0,0.0,-1.8644,0.0,0.0,0.0,0.0,0.0,0.0,0.0,0.0,-1.8438,-1.8992,-1.8911,-2.0059,-2.0949,-2.1498,-2.1851,-2.2676,-2.3958,-2.3858,-2.3829,-2.3888,-2.2802,-2.2188,-2.1908,-2.1071,-2.037,-1.9795,-1.9162,-1.8557,-1.7907,-1.7195,-1.6667,-1.6236,0.0,0.0,0.0,0.0,0.0,0.0,0.0,0.0,0.0,-1.5739,-1.6209,-1.6727,-1.7335,-1.861,-1.9929,-2.0384,-2.1643,0.0,-2.36,-2.4408,-2.4952,-2.4843,0.0,0.0,0.0,0.0,-2.3242,0.0,0.0,0.0,0.0,0.0,0.0,0.0,0.0,0.0,0.0,0.0,0.0,0.0,0.0,0.0,0.0,0.0,0.0,0.0,-2.1696,-2.1696,-2.1696,-2.1696,-2.1696,-2.1696,-2.1696,-2.1696,-2.1696,-2.1696,-2.198,-2.2538,-2.2794,-2.3123,-2.3517,-2.3978,-2.4202,-2.4202,-2.4202,-2.4202,-2.4202,-2.4202,-2.3845,-2.3397,-2.3397,-2.3046,-2.2594,0.0,0.0,0.0,0.0,0.0,0.0,0.0,0.0,0.0,0.0,-1.85,-1.8279,0.0,0.0,0.0,0.0,0.0,0.0,0.0,0.0,-1.8911,-1.8911,-2.0059,-2.0923,-2.142,-2.1433,-2.1694,-2.2231,-2.2363,-2.2607,-2.2998,-2.2315,-2.2214,-2.2556,-2.1327,-2.0688,-2.0451,-1.9707,-1.8742,-1.7654,-1.7472,-1.6787,-1.5864,-1.5604,0.0,0.0,0.0,0.0,0.0,0.0,0.0,0.0,-1.5658,-1.6115,-1.6633,-1.7163,-1.8403,-1.9734,-2.0262,-2.1525,0.0,-2.3512,-2.4357,0.0,-2.4914,-2.4348,-2.3797,0.0,0.0,0.0,0.0,0.0,0.0,0.0,0.0,0.0,0.0,0.0,0.0,0.0,0.0,0.0,0.0,0.0,0.0,0.0,0.0,0.0,0.0,-2.1776,-2.1776,-2.1776,-2.1776,-2.1776,-2.1776,-2.1776,-2.1776,-2.1776,-2.1768,-2.2199,-2.2951,-2.2904,-2.3142,-2.3572,-2.3987,-2.4202,-2.4202,-2.4202,-2.4202,-2.4202,-2.4202,-2.3845,-2.3397,-2.3397,-2.3046,-2.2594,0.0,0.0,0.0,0.0,0.0,0.0,0.0,0.0,0.0,0.0,0.0,0.0,0.0,0.0,0.0,0.0,0.0,0.0,0.0,0.0,-1.8911,-1.8911,-2.0059,-2.0739,-2.0857,-2.087,-2.0923,-2.1079,-2.1943,-2.2607,-2.2998,-2.284,-2.2683,-2.2569,-2.1802,-2.1121,-2.0451,-1.9707,-1.895,-1.8177,-1.7629,-1.7003,-1.6368,-1.5734,-1.5491,0.0,0.0,0.0,0.0,0.0,0.0,0.0,-1.5015,-1.5435,-1.5995,-1.6473,-1.7783,-1.9264,-2.0171,-2.1525,0.0,0.0,-2.4823,-2.5384,-2.4988,-2.4615,0.0,0.0,0.0,0.0,0.0,0.0,0.0,0.0,0.0,0.0,0.0,0.0,0.0,0.0,0.0,0.0,0.0,0.0,0.0,0.0,0.0,0.0,-2.2264,-2.2264,-2.2264,-2.2264,-2.2264,-2.2264,-2.2264,-2.2264,-2.2264,0.0,-2.2413,-2.2741,-2.3195,-2.3007,-2.3297,-2.4073,-2.4165,-2.4202,-2.4202,-2.4202,-2.4202,-2.4202,-2.4202,-2.3845,-2.3397,-2.3397,-2.3046,-2.2594,0.0,0.0,0.0,0.0,0.0,0.0,0.0,0.0,0.0,0.0,0.0,0.0,0.0,0.0,0.0,0.0,0.0,0.0,0.0,0.0,-1.8767,-1.9316,-1.9941,-2.0399,-2.0699,-2.0412,-2.0412,-2.0699,-2.1551,-2.2229,-2.2734,-2.2909,-2.308,-2.318,-2.2461,-2.1749,-2.1029,-2.0263,-1.9225,-1.8093,-1.7654,-1.699,-1.6176,-1.5687,-1.5491,-1.5468,-1.5198,0.0,0.0,0.0,0.0,0.0,0.0,0.0,-1.5704,-1.6239,-1.7387,-1.8759,-2.0037,0.0,0.0,-2.4235,0.0,-2.5227,-2.5242,0.0,0.0,0.0,0.0,0.0,0.0,0.0,0.0,0.0,0.0,0.0,0.0,0.0,0.0,0.0,0.0,0.0,0.0,0.0,0.0,0.0,0.0,-2.2397,-2.2397,-2.2397,-2.2397,-2.2397,-2.2397,-2.2397,-2.2397,-2.2397,-2.2397,-2.2397,-2.2525,-2.2822,-2.3308,-2.345,-2.3758,-2.4202,-2.4202,-2.4202,-2.4202,-2.4202,-2.4202,-2.4202,-2.4202,-2.3845,-2.3397,-2.3397,-2.3046,-2.2628,0.0,0.0,0.0,0.0,0.0,0.0,0.0,0.0,0.0,0.0,0.0,0.0,0.0,0.0,0.0,0.0,0.0,0.0,0.0,0.0,0.0,-1.9603,-1.9643,-1.9865,-2.0373,-1.9995,-2.0035,-2.053,-2.1276,-2.1917,-2.2399,-2.2836,-2.335,-2.3865,-2.2994,-2.2305,-2.1665,-2.0849,-1.9515,-1.7921,-1.7678,-1.694,-1.5912,-1.5616,-1.5491,-1.5468,-1.5198,-1.5108,-1.5028,-1.4483,0.0,0.0,0.0,0.0,-1.5314,-1.593,-1.6959,-1.8185,-1.9625,0.0,-2.2423,-2.428,-2.4821,0.0,-2.5386,0.0,0.0,0.0,0.0,0.0,0.0,0.0,0.0,0.0,0.0,0.0,0.0,0.0,0.0,0.0,0.0,0.0,0.0,0.0,0.0,0.0,0.0,-2.2652,-2.2652,-2.2652,-2.2618,-2.2574,-2.2574,-2.2574,-2.252,-2.252,-2.252,-2.252,-2.2628,-2.2966,-2.3466,-2.4008,-2.4251,-2.4202,-2.4202,-2.4202,-2.4202,-2.4202,-2.4202,-2.4202,-2.4202,-2.3845,-2.3406,-2.3477,-2.3151,-2.2748,0.0,0.0,0.0,0.0,0.0,0.0,0.0,0.0,0.0,0.0,0.0,0.0,0.0,0.0,0.0,0.0,0.0,0.0,0.0,0.0,0.0,-1.8989,-1.9028,-1.9054,-1.9133,-1.9577,-1.9839,-1.9917,-2.1511,-2.2336,-2.2426,-2.2934,-2.3436,-2.3865,-2.311,-2.2378,-2.1665,-2.0849,-1.9726,-1.8437,-1.7837,-1.717,-1.6428,-1.5758,-1.5491,-1.5468,-1.5198,-1.5108,-1.5051,-1.4812,-1.444,0.0,0.0,0.0,-1.415,-1.4834,-1.6101,-1.7459,0.0,0.0,-2.249,0.0,-2.462,-2.5308,0.0,0.0,0.0,0.0,0.0,0.0,0.0,0.0,0.0,0.0,0.0,0.0,0.0,0.0,0.0,0.0,0.0,0.0,0.0,0.0,0.0,0.0,-2.3624,-2.3624,-2.3624,-2.3624,-2.3537,-2.3373,-2.3373,-2.3232,-2.3003,-2.3003,-2.3003,-2.3013,-2.3525,-2.3898,-2.4164,-2.4373,-2.4341,-2.4202,-2.4202,-2.4202,-2.4202,-2.4202,-2.4202,-2.4202,-2.4202,-2.3845,-2.3441,-2.3737,-2.3503,-2.3091,0.0,0.0,0.0,0.0,0.0,0.0,0.0,0.0,0.0,0.0,0.0,0.0,0.0,0.0,0.0,0.0,0.0,0.0,0.0,0.0,0.0,-1.8225,-1.8238,-1.8416,-1.8832,-1.8767,-1.9076,-1.9799,-2.1198,-2.2087,-2.244,-2.3629,-2.4135,-2.4008,-2.39,-2.3289,-2.226,-2.1494,-2.0409,-1.9155,-1.8449,-1.7751,-1.7098,-1.6563,-1.6338,-1.6279,-1.5741,-1.5509,-1.5324,-1.4598,-1.4339,-1.4205,-1.3477,0.0,0.0,0.0,-1.5297,-1.6251,-1.8061,-1.9996,-2.1822,0.0,-2.3884,0.0,0.0,0.0,0.0,0.0,0.0,0.0,0.0,0.0,0.0,0.0,0.0,0.0,0.0,0.0,0.0,0.0,0.0,0.0,0.0,0.0,0.0,0.0,-2.3797,-2.3797,-2.3797,-2.3797,-2.3754,-2.3667,-2.3667,-2.3624,-2.3493,-2.3363,-2.3232,-2.311,-2.3868,-2.4187,-2.4164,-2.4687,-2.4735,-2.4341,-2.4251,-2.4202,-2.4202,-2.4202,-2.4202,-2.4202,-2.4202,-2.399,-2.3701,-2.3879,-2.3712,-2.3477,0.0,0.0,0.0,0.0,0.0,0.0,0.0,0.0,0.0,0.0,0.0,0.0,0.0,0.0,0.0,0.0,0.0,0.0,0.0,0.0,0.0,-1.7503,-1.7503,-1.7753,-1.8303,-1.8041,-1.8445,-1.9543,-2.0715,-2.1681,-2.2427,-2.4037,-2.4517,-2.4109,-2.4507,-2.412,-2.302,-2.2273,-2.1251,-2.0093,-1.9326,-1.8693,-1.8152,-1.7606,-1.7408,-1.7299,-1.6512,-1.6156,0.0,0.0,0.0,0.0,0.0,0.0,0.0,0.0,0.0,0.0,0.0,0.0,-2.073,-2.2173,0.0,0.0,0.0,0.0,0.0,0.0,0.0,0.0,0.0,0.0,0.0,0.0,0.0,0.0,0.0,0.0,0.0,0.0,0.0,0.0,0.0,0.0,0.0,0.0,-2.4176,-2.4133,-2.409,-2.409,-2.4013,-2.3894,-2.3884,-2.3884,-2.3797,-2.358,-2.3406,-2.3198,-2.4014,-2.4322,-2.411,-2.4939,-2.5039,-2.4587,-2.439,-2.4251,-2.4202,-2.4202,-2.4202,-2.4202,-2.4202,-2.4099,-2.3898,-2.3996,-2.3966,-2.3862,0.0,0.0,0.0,0.0,0.0,0.0,0.0,0.0,0.0,0.0,0.0,0.0,-1.8596,-1.8941,-1.9163,-1.9041,0.0,0.0,0.0,0.0,0.0,-1.6948,-1.6948,0.0,-1.7008,-1.7583,-1.8206,-1.8841,-2.0115,-2.1302,-2.2414,-2.3589,-2.4122,-2.4109,-2.4507,-2.4386,-2.379,-2.2917,-2.2116,-2.1327,-2.0464,-2.0012,-1.9779,-1.8842,-1.8504,-1.8392,-1.7469,0.0,0.0,0.0,0.0,0.0,0.0,-1.3325,-1.2975,0.0,0.0,0.0,0.0,-1.8558,0.0,0.0,0.0,0.0,0.0,0.0,0.0,0.0,0.0,0.0,0.0,0.0,0.0,0.0,0.0,0.0,0.0,0.0,0.0,0.0,0.0,0.0,0.0,0.0,0.0,0.0,-2.5115,-2.5031,-2.4861,-2.4818,-2.4658,-2.4206,-2.4163,-2.4067,-2.3797,-2.358,-2.3503,-2.347,-2.4094,-2.4368,-2.4397,-2.5035,-2.5137,-2.4883,-2.4587,-2.439,-2.4202,-2.4202,-2.4202,-2.4202,-2.4202,-2.4099,-2.3925,-2.434,-2.435,-2.4202,0.0,0.0,0.0,0.0,0.0,0.0,0.0,0.0,0.0,0.0,0.0,0.0,0.0,-1.9235,-1.9256,-1.911,-1.8414,0.0,0.0,0.0,0.0,-1.665,-1.665,-1.6684,-1.6761,-1.6995,-1.7487,-1.8232,-1.9406,-2.0442,-2.1367,-2.3223,-2.4083,-2.4109,-2.464,-2.4515,-2.3839,-2.3055,-2.2537,-2.2125,-2.111,-2.0888,-2.1084,-2.0355,0.0,0.0,0.0,0.0,0.0,0.0,0.0,0.0,0.0,-1.4035,-1.3784,-1.3351,-1.4079,0.0,0.0,0.0,0.0,0.0,0.0,0.0,0.0,0.0,0.0,0.0,0.0,0.0,0.0,0.0,0.0,0.0,0.0,0.0,0.0,0.0,0.0,0.0,0.0,0.0,0.0,0.0,0.0,0.0,0.0,-2.5158,-2.5115,-2.5073,-2.4946,-2.4658,-2.4658,-2.4444,-2.4067,-2.3797,-2.3624,-2.3513,-2.4104,-2.4414,-2.4443,-2.5188,-2.5333,-2.4883,-2.4784,-2.4538,-2.4202,-2.4202,-2.4202,-2.4229,-2.4505,-2.4488,-2.4349,-2.4748,-2.4769,-2.4633,0.0,0.0,0.0,0.0,0.0,0.0,0.0,0.0,0.0,-1.9954,0.0,0.0,0.0,0.0,-1.9714,-1.9297,-1.8734,-1.8174,-1.7667,-1.72,-1.68,-1.65,-1.65,-1.6543,-1.662,-1.6675,-1.705,-1.7797,-1.8636,-1.9575,-2.0663,-2.223,-2.3158,-2.3563,-2.3958,-2.4187,-2.4226,0.0,0.0,-2.3115,0.0,0.0,-2.2843,0.0,0.0,0.0,0.0,0.0,0.0,0.0,0.0,0.0,0.0,-1.479,-1.4266,-1.3639,-1.4014,0.0,-1.5165,0.0,0.0,0.0,0.0,0.0,0.0,0.0,0.0,0.0,0.0,0.0,0.0,0.0,0.0,0.0,0.0,0.0,0.0,0.0,0.0,0.0,0.0,0.0,0.0,0.0,0.0,0.0,0.0,0.0,-2.5338,-2.5327,-2.52,-2.4903,-2.4828,-2.4615,-2.4282,-2.397,-2.3711,-2.36,-2.415,-2.4414,-2.4443,-2.5284,-2.5391,-2.4883,-2.4883,-2.4637,-2.4202,-2.4202,-2.4202,-2.4248,-2.462,-2.4706,-2.4562,-2.4961,-2.4988,-2.4821,0.0,0.0,0.0,0.0,0.0,0.0,0.0,0.0,-2.0037,-1.9932,0.0,0.0,0.0,0.0,0.0,-1.9723,-1.9498,-1.8865,-1.7631,-1.7456,-1.7137,-1.655,0.0,0.0,-1.65,-1.6633,-1.6985,-1.7562,-1.7797,-1.8763,-2.0434,-2.0585,-2.1276,-2.2361,-2.2375,-2.3317,-2.4857,0.0,-2.3906,-2.4351,0.0,-2.4153,-2.5056,0.0,0.0,0.0,-2.2877,-2.2249,0.0,-1.9587,0.0,0.0,0.0,-1.5553,-1.432,-1.3939,-1.3795,0.0,0.0,0.0,0.0,0.0,0.0,0.0,0.0,0.0,0.0,0.0,0.0,0.0,0.0,0.0,0.0,0.0,0.0,0.0,0.0,0.0,0.0,0.0,0.0,0.0,0.0,0.0,0.0,0.0,-2.5895,-2.5812,-2.5612,-2.5601,-2.5391,-2.4903,-2.4658,-2.4497,-2.4497,-2.4013,-2.3797,-2.3807,-2.4195,-2.4414,-2.4443,-2.5284,-2.5391,-2.4883,-2.4883,-2.4646,-2.4202,-2.4202,-2.4211,-2.4266,-2.4629,-2.4672,-2.457,-2.4978,-2.4988,-2.4821,0.0,0.0,0.0,0.0,0.0,0.0,0.0,-2.2045,-2.2076,0.0,0.0,0.0,-2.2111,-2.1666,-2.1211,-2.0862,-1.9949,-1.921,-1.876,-1.7907,-1.7335,-1.7149,-1.6735,-1.65,-1.65,-1.6543,-1.6674,-1.6946,-1.7494,-1.8042,-1.8633,-1.9595,-2.0465,-2.1184,-2.159,-2.2256,-2.3104,-2.3067,0.0,-2.4351,-2.3729,-2.4374,0.0,0.0,0.0,0.0,0.0,-2.3801,-2.3481,0.0,-2.0401,-1.9522,0.0,0.0,0.0,-1.4377,-1.4071,0.0,-1.4362,0.0,0.0,0.0,0.0,0.0,0.0,0.0,0.0,0.0,0.0,0.0,0.0,0.0,0.0,0.0,0.0,0.0,0.0,0.0,0.0,0.0,0.0,0.0,0.0,0.0,0.0,0.0,-2.5895,-2.5864,-2.5812,-2.5506,-2.5242,-2.5115,-2.47,-2.4497,-2.4497,-2.4013,-2.3797,-2.3807,-2.4195,-2.4414,-2.4397,-2.5092,-2.5235,-2.4883,-2.4677,-2.444,-2.4202,-2.4202,-2.4385,-2.4647,-2.4836,-2.4921,-2.4934,-2.5097,-2.4986,-2.4821,0.0,0.0,0.0,0.0,0.0,0.0,-2.3064,-2.3029,-2.3077,0.0,0.0,0.0,-2.2751,-2.2207,-2.1785,-2.1571,-2.0669,-1.9914,-1.9484,-1.8591,-1.7865,-1.7423,-1.7061,-1.6773,-1.65,-1.65,-1.6543,-1.662,-1.7057,-1.7469,-1.7832,-1.8617,-1.9334,-1.998,-2.0544,0.0,0.0,0.0,0.0,0.0,-2.429,0.0,0.0,-2.6244,-2.6591,0.0,0.0,0.0,-2.5072,-2.3359,-2.1824,0.0,0.0,0.0,0.0,0.0,0.0,0.0,0.0,0.0,0.0,0.0,0.0,0.0,-1.734,-1.8031,0.0,0.0,0.0,0.0,0.0,0.0,0.0,0.0,0.0,0.0,0.0,0.0,0.0,0.0,0.0,0.0,0.0,-2.5895,-2.5895,-2.5895,-2.5895,-2.5895,-2.5895,-2.5454,-2.52,-2.52,-2.4743,-2.4497,-2.4497,-2.4013,-2.3797,-2.3807,-2.4195,-2.4414,-2.4397,-2.5035,-2.5137,-2.4883,-2.4637,-2.4492,-2.4468,-2.4468,-2.4615,-2.484,-2.5077,-2.512,-2.5111,-2.52,-2.5017,-2.4821,0.0,0.0,0.0,0.0,0.0,0.0,0.0,-2.3644,-2.3686,0.0,-2.3474,-2.3285,-2.3054,-2.2811,-2.254,-2.2118,-2.1605,-2.0883,-1.9962,-1.9384,-1.8619,-1.7601,-1.7501,-1.7177,-1.6557,-1.6566,-1.6541,-1.65,-1.6633,-1.6994,-1.7587,-1.7729,-1.8159,-1.8823,0.0,0.0,0.0,0.0,0.0,-2.4351,-2.5015,-2.62,0.0,0.0,-2.8349,-2.8591,-2.7719,-2.7141,-2.652,-2.5022,-2.2874,0.0,0.0,0.0,0.0,0.0,-1.6229,0.0,0.0,0.0,0.0,0.0,0.0,0.0,-1.6434,-1.7226,-1.7882,0.0,0.0,0.0,0.0,0.0,0.0,0.0,0.0,0.0,0.0,0.0,0.0,0.0,0.0,0.0,-2.5819,-2.5819,-2.5841,-2.5895,-2.5895,-2.5895,-2.5895,-2.5454,-2.52,-2.52,-2.4743,-2.4497,-2.4454,-2.4013,-2.3797,-2.3764,-2.4185,-2.4368,-2.4397,-2.4987,-2.5088,-2.4833,-2.4578,-2.4581,-2.4785,-2.4831,-2.4876,-2.4986,-2.5332,-2.5362,-2.5164,-2.5162,-2.5026,-2.4821,0.0,0.0,0.0,0.0,0.0,0.0,0.0,-2.5257,-2.5692,-2.6063,-2.5837,-2.5658,-2.5585,-2.4935,-2.4168,-2.3408,-2.2798,-2.1931,-2.0618,-1.9962,-1.9309,-1.856,-1.8111,-1.7579,-1.6919,-1.701,-1.6843,-1.6414,-1.6611,-1.6782,-1.6905,-1.7021,-1.7445,-1.8124,0.0,0.0,0.0,0.0,0.0,-2.3695,-2.4833,0.0,-2.8157,-2.8337,-2.8762,-2.916,-2.8457,-2.8,-2.7385,0.0,-2.3435,-2.1817,0.0,0.0,0.0,0.0,0.0,0.0,0.0,0.0,0.0,0.0,0.0,0.0,-1.6323,-1.6364,-1.6426,0.0,0.0,0.0,0.0,0.0,0.0,0.0,0.0,0.0,0.0,0.0,0.0,0.0,0.0,0.0,-2.5314,-2.5357,-2.548,-2.5874,-2.5895,-2.5895,-2.5895,-2.5454,-2.52,-2.52,-2.4743,-2.4411,-2.4249,-2.3927,-2.3711,-2.3557,-2.415,-2.4275,-2.411,-2.4688,-2.4833,-2.4587,-2.4341,-2.444,-2.4812,-2.5124,-2.5445,-2.5748,-2.5326,-2.5361,-2.5526,-2.5055,-2.4812,-2.4821,0.0,0.0,0.0,0.0,0.0,0.0,0.0,0.0,-2.6625,-2.7189,-2.7234,-2.7155,-2.7078,-2.634,-2.56,-2.5016,-2.3919,-2.2863,-2.1961,-2.0853,-1.9935,-1.9231,-1.8685,-1.809,-1.7417,-1.7193,-1.6989,-1.6806,-1.6629,-1.6611,-1.6697,-1.6761,-1.7161,-1.7836,0.0,0.0,0.0,0.0,-2.281,-2.393,-2.5339,0.0,-2.8366,-2.9137,-2.9589,-2.9746,-2.9433,-2.8823,-2.7888,-2.5678,-2.4283,0.0,0.0,-2.0525,-1.9569,0.0,-1.8542,-1.7918,0.0,0.0,0.0,-1.6724,0.0,0.0,0.0,-1.5927,-1.5897,-1.6197,0.0,0.0,0.0,0.0,0.0,0.0,0.0,0.0,0.0,0.0,0.0,0.0,0.0,0.0,-2.4781,-2.4836,-2.4934,-2.5175,-2.5404,-2.5494,-2.5359,-2.5241,-2.5158,-2.5031,-2.47,-2.4411,-2.4206,-2.3927,-2.3711,-2.3513,-2.4104,-2.4275,-2.4017,-2.464,-2.4735,-2.4489,-2.4301,-2.456,-2.5087,-2.5341,-2.5667,-2.5991,-2.5558,-2.5401,-2.5404,-2.4979,-2.4821,-2.4765,0.0,0.0,0.0,0.0,0.0,0.0,0.0,0.0,-2.7556,-2.8153,-2.8456,-2.8538,-2.8391,-2.7748,-2.7168,-2.6699,-2.5223,-2.4088,0.0,0.0,0.0,-2.0099,-1.9416,-1.8734,-1.8056,-1.742,-1.711,-1.7115,-1.6635,-1.6491,-1.6654,-1.6768,-1.7133,0.0,0.0,0.0,0.0,0.0,0.0,-2.445,0.0,-2.7391,-2.8613,-2.9943,-3.0409,-3.032,-3.0123,-2.9353,-2.812,-2.6357,0.0,-2.4456,-2.2874,-2.1765,0.0,0.0,0.0,0.0,0.0,0.0,0.0,0.0,0.0,-1.5712,0.0,0.0,0.0,-1.5679,0.0,0.0,0.0,0.0,0.0,0.0,0.0,0.0,0.0,0.0,0.0,0.0,0.0,0.0,0.0,-2.4235,-2.4344,-2.4344,-2.477,-2.4984,-2.4816,-2.4985,-2.502,-2.4903,-2.4625,-2.4368,-2.412,-2.3894,-2.3707,-2.3545,-2.4098,-2.4222,-2.4095,-2.4581,-2.4686,-2.444,-2.4334,-2.4744,-2.5372,-2.5402,-2.5646,-2.6017,-2.5798,-2.5514,-2.5165,-2.4923,-2.4765,-2.471,-2.3892,-2.4001,0.0,0.0,0.0,0.0,0.0,0.0,-2.9401,-3.0025,-3.0296,-3.0397,-3.0383,0.0,0.0,0.0,0.0,0.0,-2.4695,0.0,0.0,0.0,0.0,0.0,-1.8871,-1.8006,-1.7301,-1.6849,-1.6556,-1.6414,-1.6461,-1.7049,0.0,0.0,-1.9154,0.0,0.0,0.0,-2.3856,0.0,-2.6527,-2.7927,0.0,-3.0229,-3.0754,-3.0812,-2.9886,-2.907,-2.8319,0.0,-2.643,-2.5157,0.0,-2.3522,0.0,0.0,0.0,0.0,0.0,0.0,0.0,0.0,-1.7414,0.0,0.0,0.0,-1.5418,-1.5025,0.0,0.0,0.0,0.0,0.0,0.0,0.0,0.0,0.0,0.0,0.0,0.0,0.0,0.0,0.0,-2.328,-2.3771,-2.3771,-2.4279,-2.4658,-2.4794,-2.4644,-2.4671,-2.4893,-2.4625,-2.4282,-2.3841,-2.3841,-2.3779,-2.3765,-2.3961,-2.4106,-2.4259,-2.448,-2.444,-2.427,-2.4597,-2.501,-2.5399,-2.5439,-2.5568,-2.5743,-2.5734,-2.5514,-2.5165,-2.4923,-2.4654,-2.4432,-2.4068,-2.4367,0.0,0.0,0.0,0.0,0.0,0.0,-3.1173,-3.1395,-3.1907,-3.2195,0.0,0.0,0.0,0.0,0.0,-2.7487,0.0,0.0,0.0,0.0,0.0,0.0,0.0,-1.8775,-1.8186,-1.7715,-1.6991,-1.687,-1.7316,-1.731,0.0,0.0,-1.9422,0.0,-2.1436,0.0,-2.4532,0.0,0.0,0.0,0.0,-3.0417,-3.1014,-3.1271,-3.0421,-2.9881,-2.9357,0.0,-2.7273,0.0,0.0,0.0,0.0,0.0,0.0,0.0,0.0,0.0,0.0,0.0,0.0,0.0,0.0,0.0,-1.5341,0.0,0.0,0.0,0.0,0.0,0.0,0.0,0.0,0.0,0.0,0.0,0.0,0.0,0.0,0.0,0.0,0.0,0.0,0.0,-2.3085,-2.3431,-2.342,-2.3992,-2.4335,-2.4304,-2.432,-2.4153,-2.3797,-2.3667,-2.3668,-2.3799,-2.3934,-2.4134,-2.4287,-2.445,-2.439,-2.422,-2.4652,-2.5005,-2.5399,-2.5484,-2.5559,-2.5688,-2.5514,-2.5238,-2.4915,-2.4654,-2.4487,-2.4376,-2.4257,0.0,0.0,0.0,0.0,0.0,0.0,0.0,0.0,0.0,0.0,0.0,-3.3701,-3.3133,0.0,0.0,0.0,-2.9221,0.0,0.0,-2.4859,0.0,0.0,0.0,0.0,0.0,0.0,-1.8562,-1.7533,-1.7323,-1.7894,0.0,0.0,0.0,0.0,-2.1117,-2.2594,0.0,0.0,-2.6791,-2.7815,-2.9063,-3.0294,-3.081,-3.1256,-3.1644,-3.1041,-3.0606,-3.0158,-2.8993,-2.8061,0.0,-2.5824,0.0,0.0,0.0,0.0,0.0,-2.2102,0.0,0.0,0.0,0.0,0.0,0.0,0.0,0.0,0.0,0.0,0.0,0.0,0.0,0.0,0.0,0.0,0.0,0.0,0.0,0.0,0.0,0.0,0.0,0.0,0.0,0.0,-2.112,-2.1941,-2.2376,-2.2327,-2.3398,-2.395,-2.3784,-2.4057,-2.4024,-2.3711,-2.37,-2.3713,-2.3874,-2.4015,-2.4165,-2.4361,-2.4408,-2.4405,-2.4395,-2.4817,-2.5118,-2.5407,-2.554,-2.5539,-2.5514,-2.5229,-2.497,-2.4765,-2.4487,-2.432,-2.4209,-2.4751,-2.4907,0.0,0.0,0.0,0.0,0.0,0.0,0.0,0.0,0.0,0.0,0.0,0.0,0.0,0.0,0.0,-3.1581,-3.0545,0.0,-2.7124,0.0,0.0,-2.3345,0.0,0.0,0.0,0.0,0.0,0.0,0.0,0.0,0.0,0.0,0.0,-2.2058,-2.3183,-2.4845,-2.6201,-2.7406,-2.8786,-3.0077,-3.121,0.0,-3.1666,-3.1691,-3.1464,0.0,0.0,-2.9967,-2.8905,0.0,0.0,0.0,0.0,0.0,0.0,0.0,0.0,0.0,0.0,-1.9748,0.0,0.0,0.0,0.0,-1.5962,0.0,0.0,0.0,0.0,0.0,0.0,0.0,0.0,0.0,0.0,0.0,0.0,0.0,0.0,0.0,0.0,0.0,0.0,-1.9943,-2.1075,-2.1839,-2.208,-2.3014,-2.3524,-2.3512,-2.3961,-2.3991,-2.3503,-2.3865,-2.4055,-2.4025,-2.4193,-2.437,-2.451,-2.4291,-2.4422,-2.4785,-2.5231,-2.5425,-2.5505,-2.5619,-2.5496,-2.5165,-2.4923,-2.4821,-2.4765,-2.4487,-2.42,-2.3865,0.0,0.0,0.0,0.0,0.0,0.0,0.0,-3.2589,0.0,0.0,0.0,0.0,0.0,-3.6437,-3.6246,0.0,0.0,-3.3598,-3.1804,-3.0487,0.0,0.0,0.0,-2.507,0.0,0.0,0.0,0.0,0.0,0.0,0.0,0.0,0.0,0.0,0.0,-2.2235,0.0,0.0,0.0,0.0,0.0,-3.0545,-3.1079,0.0,0.0,-3.223,-3.216,-3.153,0.0,-3.0312,-2.925,-2.8025,-2.7302,-2.6618,-2.5899,-2.5041,-2.4343,0.0,0.0,0.0,-2.1557,-2.0132,0.0,0.0,0.0,0.0,0.0,0.0,0.0,0.0,0.0,0.0,0.0,0.0,0.0,0.0,0.0,0.0,0.0,0.0,0.0,0.0,0.0,0.0,0.0,-1.919,-1.9771,-2.0404,-2.1135,-2.1804,-2.2417,-2.3012,-2.3229,-2.3388,-2.3493,-2.3752,-2.3949,-2.3988,-2.4203,-2.4389,-2.448,-2.4301,-2.4281,-2.4479,-2.4869,-2.5109,-2.5254,-2.5355,-2.5284,-2.5165,-2.4923,-2.471,-2.4487,-2.42,-2.3977,-2.3809,-2.6153,0.0,0.0,0.0,0.0,0.0,0.0,0.0,0.0,0.0,-3.6258,0.0,-3.7721,0.0,-3.7742,0.0,-3.6706,-3.5519,-3.3495,-3.2481,0.0,-2.8764,-2.8094,0.0,0.0,0.0,0.0,0.0,0.0,-1.9884,0.0,0.0,0.0,0.0,0.0,-2.2371,-2.4273,0.0,-2.6753,0.0,0.0,-3.0888,0.0,0.0,-3.2195,-3.2219,0.0,-3.1652,-3.0794,-3.0418,-2.9548,-2.8495,-2.7675,-2.7094,-2.6462,-2.5576,-2.4906,-2.4219,-2.3598,-2.2833,0.0,-2.0902,-2.0007,0.0,-1.8638,0.0,0.0,0.0,0.0,0.0,0.0,0.0,0.0,0.0,0.0,0.0,0.0,-1.3997,0.0,0.0,0.0,0.0,0.0,0.0,-1.7544,-1.8288,-1.8889,-1.9542,0.0,0.0,-2.1842,-2.2574,-2.2798,-2.3146,-2.359,-2.3799,-2.3944,-2.4097,-2.4287,-2.4384,-2.4399,-2.4299,-2.433,-2.4524,-2.4815,-2.5058,-2.5116,-2.518,-2.5119,-2.5017,-2.4868,-2.4654,-2.4376,-2.4033,-2.3745,-2.352,0.0,0.0,0.0,0.0,-3.0524,0.0,0.0,0.0,-3.5518,0.0,-3.7316,-3.8359,-3.8723,-3.9298,-3.9397,-3.8874,-3.8364,0.0,-3.5692,-3.4631,0.0,0.0,-2.9949,-2.8679,-2.7042,0.0,0.0,0.0,0.0,0.0,0.0,0.0,0.0,0.0,-2.114,0.0,-2.4681,-2.5966,-2.7155,-2.8374,-3.0038,-3.1095,-3.1721,-3.1671,-3.1677,-3.1656,-3.1678,-3.1221,-3.0553,-3.0353,-2.9782,-2.8958,-2.8039,-2.7546,-2.7059,-2.5946,-2.542,-2.4993,-2.4126,-2.3392,-2.2756,-2.1968,-2.0679,0.0,0.0,0.0,-1.7542,0.0,0.0,0.0,0.0,0.0,0.0,0.0,0.0,0.0,0.0,0.0,0.0,0.0,0.0,0.0,0.0,-1.6318,-1.6707,-1.72,-1.8342,-1.9153,0.0,0.0,-2.1635,-2.2145,-2.2601,-2.3126,-2.3779,-2.3924,-2.4068,-2.4278,-2.444,-2.439,-2.4211,-2.4271,-2.4506,-2.4902,-2.5041,-2.5107,-2.5165,-2.5165,-2.5017,-2.4821,-2.4765,-2.4599,-2.432,-2.3977,-2.3528,-2.3022,-2.8454,-2.9513,-3.0616,0.0,-3.1523,-3.2268,0.0,0.0,0.0,0.0,-3.7923,-3.8662,-3.9821,-3.9927,-3.9786,-3.949,-3.9177,0.0,0.0,0.0,0.0,-3.3231,-3.1848,-3.0314,-2.8727,-2.709,0.0,-2.4121,0.0,0.0,-2.0386,0.0,0.0,0.0,0.0,0.0,-2.4681,-2.5966,-2.7864,-3.0047,-3.0367,-3.098,0.0,0.0,-3.1172,-3.1244,-3.1563,-3.1221,-3.0553,-3.0353,-2.9782,-2.9013,-2.8383,-2.7814,-2.7122,-2.6336,-2.567,-2.4993,-2.3894,-2.3493,-2.3022,-2.1702,-2.1068,-2.0565,0.0,0.0,0.0,0.0,0.0,0.0,0.0,0.0,0.0,0.0,0.0,0.0,0.0,0.0,0.0,-1.3362,0.0,0.0,0.0,-1.5148,-1.5697,-1.637,-1.7328,-1.8187,0.0,0.0,0.0,-2.1639,-2.1981,-2.2607,-2.35,-2.3823,-2.4021,-2.399,-2.4342,-2.439,-2.4211,-2.4271,-2.4403,-2.4631,-2.4711,-2.478,-2.4923,-2.4923,-2.4868,-2.4765,-2.4599,-2.4209,-2.3697,-2.3641,-2.336,-2.3054,-3.0019,0.0,0.0,-3.312,0.0,0.0,-3.5189,-3.5958,0.0,-3.8741,-3.9286,0.0,-4.105,-4.1164,-4.1015,-4.0811,-4.0287,0.0,0.0,0.0,0.0,-3.477,-3.3405,-3.1961,-3.0362,-2.8775,0.0,-2.5541,0.0,0.0,-2.1289,0.0,0.0,0.0,0.0,-2.2212,0.0,-2.6203,-2.8323,-3.0545,-3.0433,0.0,0.0,-3.1196,-3.0984,-3.101,-3.1009,-3.0789,-3.0364,-3.0062,-2.9639,-2.9174,-2.871,-2.8143,-2.7508,-2.6904,-2.6135,-2.5313,-2.4352,-2.3744,-2.3183,-2.2302,-2.1559,-2.0911,-2.0524,-1.9669,-1.8959,0.0,0.0,0.0,0.0,0.0,0.0,0.0,0.0,0.0,0.0,0.0,0.0,0.0,0.0,0.0,0.0,-1.4522,-1.5063,-1.5711,-1.6769,-1.7587,0.0,0.0,0.0,-2.1351,-2.1609,-2.2364,-2.3633,-2.3698,-2.3843,-2.4154,-2.4279,-2.4334,-2.4226,-2.432,-2.4445,-2.4571,-2.4642,-2.4726,-2.4821,-2.4821,-2.4821,-2.4765,-2.4312,-2.3929,-2.3472,-2.336,-2.3135,-2.307,0.0,0.0,0.0,0.0,0.0,0.0,0.0,-3.7558,0.0,-3.9952,0.0,-4.1638,-4.2264,-4.2476,-4.2459,-4.2235,0.0,-4.0637,-3.9835,-3.8782,-3.7539,-3.6013,-3.4787,-3.3428,-3.1958,-3.0254,0.0,0.0,0.0,0.0,0.0,0.0,0.0,0.0,0.0,0.0,0.0,-2.6577,-2.858,-3.0403,-3.0349,-3.0863,-3.1617,-3.1151,-3.0984,-3.0883,-3.0363,-3.0216,-3.0125,-2.9669,-2.9485,-2.9439,-2.8932,-2.842,-2.7902,-2.7423,-2.6638,-2.5737,-2.5047,-2.4095,-2.3267,-2.3123,-2.2068,-2.1036,-2.1122,-2.0389,-1.961,-1.9292,-1.8463,-1.7757,0.0,0.0,0.0,0.0,0.0,0.0,0.0,0.0,0.0,0.0,0.0,0.0,0.0,0.0,0.0,-1.5147,-1.6357,0.0,0.0,0.0,0.0,-2.0946,-2.1306,-2.2208,-2.3723,0.0,-2.3661,-2.4356,-2.4223,-2.4213,-2.4308,-2.4383,-2.4509,-2.4635,-2.476,-2.4821,-2.4821,-2.4765,-2.471,-2.4599,-2.4033,-2.3697,-2.3416,-2.3135,-2.3014,-2.307,0.0,0.0,0.0,0.0,0.0,-3.8018,-3.9406,-3.9485,-3.9765,-4.0916,-4.1649,-4.2239,-4.2814,-4.2487,-4.2235,-4.2182,-4.1615,0.0,0.0,0.0,0.0,-3.7712,-3.5745,-3.4162,-3.3032,-3.0999,-2.8955,0.0,0.0,0.0,0.0,0.0,0.0,0.0,0.0,0.0,-2.6269,-2.6968,0.0,-3.0403,-3.0224,-3.0637,-3.135,-3.1107,-3.0871,-3.0623,-3.0306,-3.0216,-3.0125,-2.9669,-2.9485,-2.9439,-2.8932,-2.842,-2.7902,-2.7423,-2.6638,-2.5692,-2.4804,-2.4132,-2.3511,-2.2811,-2.2428,-2.1982,-2.1139,-2.0556,-2.0024,-1.9402,-1.8871,-1.8389,-1.8038,0.0,0.0,0.0,0.0,0.0,0.0,0.0,0.0,0.0,0.0,0.0,0.0,0.0,0.0,0.0,0.0,0.0,0.0,0.0,0.0,0.0,-2.0766,0.0,0.0,0.0,-2.3427,-2.3705,-2.379,-2.4012,-2.4308,-2.4227,-2.435,-2.4635,-2.476,-2.4821,-2.4765,-2.4543,-2.4153,-2.3697,-2.3585,-2.336,-2.307,-2.3014,-2.3014,-2.3109,0.0,0.0,0.0,0.0,0.0,0.0,0.0,-4.1611,-4.1912,-4.2173,-4.2696,-4.3154,-4.3428,-4.3263,-4.3067,-4.3067,-4.2258,-4.1656,-4.1392,-4.0193,-3.9223,-3.8536,-3.6818,0.0,-3.4102,-3.2286,-3.0434,-2.857,0.0,0.0,0.0,0.0,0.0,0.0,0.0,-2.4834,0.0,0.0,0.0,-3.0248,-3.0429,-3.0834,-3.1261,-3.1062,-3.0826,-3.0578,-3.0306,-3.0136,-3.0011,-2.9623,-2.9393,-2.922,-2.8896,-2.842,-2.7945,-2.7721,-2.6827,-2.5743,-2.5052,-2.4354,-2.3661,-2.2977,-2.259,-2.22,-2.1691,-2.0972,-2.0335,-1.986,-1.9209,-1.8489,-1.7899,-1.7085,0.0,0.0,0.0,0.0,0.0,0.0,0.0,0.0,0.0,0.0,0.0,0.0,0.0,0.0,0.0,0.0,0.0,0.0,0.0,0.0,0.0,0.0,0.0,0.0,0.0,-2.3305,-2.3664,-2.396,-2.4182,-2.4105,-2.4303,-2.4712,-2.4791,-2.471,-2.4543,-2.4264,-2.3865,-2.3472,-2.3472,-2.3304,-2.3014,-2.3014,-2.3014,-2.3117,0.0,-3.8324,0.0,0.0,-4.0893,0.0,-4.2579,-4.348,-4.3846,-4.3271,-4.3702,-4.4055,-4.4002,-4.3945,-4.3899,-4.3776,-4.2916,-4.2338,-4.2213,-4.1014,-3.9897,-3.909,-3.7712,-3.6337,-3.5016,-3.3464,-3.1877,0.0,0.0,0.0,0.0,0.0,0.0,0.0,0.0,0.0,0.0,0.0,-2.9184,-3.029,-3.0668,-3.0974,-3.1217,-3.1017,-3.0724,-3.0487,-3.0261,-3.0045,-2.9783,-2.9577,-2.9301,-2.9082,-2.885,-2.842,-2.7998,-2.7998,-2.7079,-2.5919,-2.5336,-2.4595,-2.3831,-2.3251,-2.2717,-2.2294,-2.2155,-2.145,-2.068,-2.035,-1.9442,-1.8522,-1.7754,-1.7032,0.0,0.0,0.0,0.0,0.0,0.0,0.0,0.0,0.0,0.0,0.0,0.0,0.0,0.0,0.0,0.0,0.0,0.0,0.0,0.0,0.0,-2.1079,-2.1738,0.0,-2.2869,-2.2985,-2.3422,-2.3805,-2.4088,-2.4035,-2.43,-2.4821,-2.4765,-2.4543,-2.4209,-2.3921,-2.3641,-2.3416,-2.3416,-2.3247,-2.3014,-2.3014,-2.3005,-2.3107,0.0,0.0,0.0,0.0,0.0,0.0,-4.4238,-4.4578,-4.4447,-4.3872,-4.4291,-4.4548,-4.4289,-4.4026,-4.3776,-4.3462,-4.3146,-4.274,-4.2238,-4.1364,-4.0467,-3.9681,-3.8286,-3.6882,-3.5569,-3.4018,-3.243,0.0,0.0,0.0,0.0,0.0,0.0,0.0,0.0,0.0,0.0,-2.845,-2.94,-3.0807,-3.0639,-3.0711,-3.1017,-3.0724,-3.0487,-3.0216,-3.0216,-2.9897,-2.9531,-2.9485,-2.9301,-2.9082,-2.885,-2.842,-2.7998,-2.7998,-2.731,-2.6321,-2.5427,-2.4826,-2.4221,-2.332,-2.294,-2.2596,-2.1964,-2.1631,-2.1239,-2.0624,-1.9661,-1.8782,-1.8154,-1.769,-1.7331,0.0,0.0,0.0,0.0,0.0,0.0,0.0,0.0,0.0,0.0,-1.4043,0.0,0.0,0.0,0.0,0.0,0.0,0.0,-1.848,0.0,-2.0558,-2.0631,-2.1907,-2.2544,-2.2542,-2.2894,-2.3449,-2.4079,-2.3824,-2.4147,-2.4765,-2.4543,-2.4097,-2.3585,-2.3528,-2.336,-2.307,-2.307,-2.3014,-2.3014,-2.3014,-2.2985,-2.3084,0.0,0.0,0.0,0.0,0.0,0.0,0.0,-4.578,-4.5689,-4.5467,-4.5637,-4.5539,-4.4911,-4.454,-4.4122,-4.3474,-4.3129,-4.2886,-4.266,-4.2078,-4.1243,-4.0222,-3.9034,-3.7792,-3.6579,-3.5016,-3.3597,0.0,0.0,0.0,0.0,0.0,0.0,0.0,0.0,-2.7885,-2.9027,-2.9665,-3.029,-3.0903,-3.0954,-3.0995,-3.0972,-3.0724,-3.0442,-3.017,-3.0057,-2.9817,-2.9485,-2.9301,-2.9128,-2.8896,-2.885,-2.842,-2.7998,-2.7998,-2.7342,-2.6434,-2.575,-2.5048,-2.4331,-2.3663,-2.303,-2.2492,-2.2233,-2.1683,-2.1148,-2.0743,-1.9737,-1.8821,-1.8452,-1.7812,-1.7299,0.0,0.0,0.0,0.0,0.0,0.0,0.0,0.0,0.0,0.0,0.0,0.0,0.0,0.0,0.0,0.0,0.0,0.0,-1.7831,0.0,-2.0216,-2.0449,-2.1695,-2.2348,-2.2395,-2.2793,-2.3305,-2.385,-2.3771,-2.4031,-2.4543,-2.4041,-2.3697,-2.3472,-2.3304,-2.3127,-2.3014,-2.3014,-2.3014,-2.2981,-2.3024,-2.3017,-2.3038,-4.2239,0.0,-4.4457,0.0,-4.5611,-4.6068,-4.6643,-4.6734,-4.6787,-4.6957,-4.6983,-4.6504,-4.5189,-4.4862,-4.4296,-4.3346,-4.3141,-4.2974,-4.2974,-4.2514,-4.1763,-4.0764,-3.9718,0.0,-3.7433,-3.6026,-3.4787,-3.3741,-3.2298,0.0,0.0,0.0,0.0,0.0,-2.8414,-2.9208,-3.005,-3.0752,-3.1105,-3.1241,-3.13,-3.1147,-3.0826,-3.0578,-3.0352,-3.017,-2.9977,-2.9737,-2.9439,-2.9174,-2.8989,-2.8803,-2.871,-2.8373,-2.7987,-2.7904,-2.7353,-2.6651,-2.6003,-2.537,-2.4701,-2.3992,-2.3198,-2.2548,-2.2426,-2.181,-2.1176,-2.0806,-1.9952,-1.9116,-1.8734,-1.8041,-1.7458,-1.7338,0.0,0.0,0.0,0.0,0.0,0.0,0.0,-1.4223,-1.4064,0.0,0.0,0.0,0.0,0.0,0.0,0.0,0.0,0.0,0.0,0.0,-2.0554,-2.1598,-2.218,-2.2322,-2.2776,-2.3263,-2.3699,-2.3851,-2.3972,-2.4097,-2.3697,-2.3416,-2.3304,-2.307,-2.3014,-2.3014,-2.2901,-2.2908,-2.2969,-2.2933,-2.2909,-2.3037,-4.372,-4.4506,-4.5378,-4.6299,-4.646,-4.6656,-4.7187,-4.7265,-4.7519,-4.8094,-4.8159,-4.7275,-4.493,-4.4694,-4.424,-4.308,-4.2974,-4.2974,-4.2974,-4.2514,-4.1938,0.0,0.0,-3.914,-3.8039,-3.6928,-3.5869,-3.4763,0.0,0.0,-3.1633,0.0,-2.9268,-2.9268,-2.928,-3.017,-3.1637,-3.1427,-3.1591,-3.2067,-3.1587,-3.11,-3.0578,-3.0306,-3.0216,-3.017,-2.9977,-2.9737,-2.9439,-2.9174,-2.8989,-2.8757,-2.8488,-2.8243,-2.7951,-2.7678,-2.7441,-2.7053,-2.6084,-2.5775,-2.5461,-2.414,-2.3419,-2.2953,-2.2492,-2.2043,-2.1488,-2.0659,-2.0263,-1.9834,-1.898,-1.8515,-1.8129,-1.7668,0.0,0.0,0.0,0.0,0.0,0.0,-1.4684,-1.4536,-1.4156,0.0,0.0,0.0,0.0,0.0,0.0,0.0,0.0,-1.8062,-1.9191,0.0,-2.097,-2.1506,-2.1987,-2.2331,-2.2851,-2.3306,-2.3744,-2.4187,-2.4089,-2.3537,-2.3472,-2.3304,-2.3014,-2.3014,-2.3014,-2.2958,-2.2683,-2.2772,-2.2952,-2.267,-2.281,-2.3072,-4.4636,-4.5602,-4.6396,-4.6705,-4.7273,-4.7702,-4.7885,-4.7911,-4.7976,-4.8159,-4.7997,-4.7354,-4.602,-4.5527,-4.4839,0.0,-4.3187,-4.2974,0.0,-4.2811,-4.2338,-4.1311,-4.0598,-3.9731,-3.8563,-3.7493,-3.6603,-3.5905,0.0,0.0,0.0,-3.1721,-3.148,-3.148,-3.148,-3.1872,-3.2492,-3.2446,-3.2402,-3.2359,-3.202,-3.1774,-3.1542,-3.0974,-3.0617,-3.0409,-2.9839,-2.9451,-2.9174,-2.8989,-2.885,-2.871,-2.8279,-2.8045,-2.7951,-2.7678,-2.7441,-2.7136,-2.6468,-2.6054,-2.5621,-2.4867,-2.411,-2.3425,-2.2962,-2.2005,-2.115,-2.0891,-2.0306,-1.9701,-1.9309,-1.8598,-1.797,-1.7634,-1.7072,0.0,0.0,0.0,0.0,0.0,0.0,-1.4698,0.0,-1.4393,0.0,0.0,0.0,0.0,0.0,0.0,0.0,0.0,-1.9385,0.0,-2.0925,-2.1583,-2.2143,-2.2522,-2.2929,-2.3338,-2.3744,-2.3753,-2.3697,-2.348,-2.3247,-2.307,-2.3014,-2.3014,-2.3014,-2.2981,-2.2933,-2.2917,-2.3014,-2.296,-2.3021,-2.3117,-4.5352,-4.6263,-4.7069,-4.7199,-4.7775,-4.8185,-4.8185,-4.8185,-4.8127,-4.7997,-4.7821,-4.7398,-4.6652,-4.6057,0.0,-4.3922,-4.33,-4.2974,-4.2974,-4.2974,-4.26,-4.1619,-4.1066,-4.0251,-3.9128,-3.825,0.0,-3.6699,-3.5845,-3.4823,-3.3669,-3.3464,-3.3272,-3.3068,-3.2783,-3.286,-3.3208,-3.2972,-3.2818,-3.2616,-3.2354,-3.2142,-3.1946,-3.1457,-3.1142,-3.0769,-3.0049,-2.9648,-2.9336,-2.8962,-2.871,-2.8571,-2.8139,-2.7951,-2.7809,-2.7536,-2.7404,-2.7167,-2.664,-2.6295,-2.5892,-2.525,-2.4486,-2.3767,-2.3167,-2.2217,-2.1396,-2.1254,-2.0635,-1.9994,-1.9572,-1.8869,-1.8206,-1.7768,-1.7243,-1.677,-1.6277,0.0,0.0,0.0,0.0,0.0,0.0,-1.4956,-1.5182,0.0,0.0,0.0,0.0,0.0,0.0,-1.8355,-1.955,-2.0479,-2.1151,-2.1716,-2.2203,-2.2664,-2.3019,-2.3372,-2.3693,-2.3535,-2.3416,-2.3304,-2.307,-2.3014,-2.3022,-2.3165,-2.3099,-2.3016,-2.3014,-2.3048,-2.3047,-2.2923,-2.297,-2.3103,-4.5876,-4.6624,-4.7265,-4.7632,-4.7938,-4.8185,-4.8185,-4.8185,-4.8055,-4.769,-4.7632,-4.7409,-4.6853,-4.6214,-4.5325,-4.3953,0.0,0.0,-4.2974,-4.2974,-4.2706,-4.211,-4.1594,-4.0788,-3.9669,-3.9104,-3.8286,-3.7192,-3.6699,-3.6194,-3.5665,-3.5111,-3.4631,-3.4138,-3.3386,-3.3339,-3.3743,-3.3177,-3.2948,-3.2924,-3.2632,-3.2271,-3.1917,-3.1882,-3.1609,-3.1253,-3.0577,-3.0173,-2.9822,-2.9069,-2.8672,-2.8391,-2.8102,-2.782,-2.7547,-2.7357,-2.7309,-2.7167,-2.664,-2.6496,-2.6252,-2.5358,-2.4717,-2.4078,-2.3127,-2.2582,-2.207,-2.1715,-2.1264,-2.0632,-1.9778,-1.9298,-1.8725,-1.7946,-1.7509,-1.7048,-1.6373,0.0,0.0,0.0,0.0,0.0,0.0,-1.5761,-1.592,0.0,0.0,0.0,0.0,0.0,-1.7918,-1.8982,-1.9645,-2.0503,-2.1543,-2.1858,-2.2248,-2.2735,-2.3083,-2.3329,-2.3472,-2.3472,-2.3304,-2.3014,-2.3038,-2.3054,-2.3077,-2.3378,-2.3347,-2.303,-2.306,-2.3097,-2.3087,-2.2782,-2.2849,-2.3106,0.0,0.0,-4.7006,-4.7265,-4.7573,-4.7821,-4.7821,-4.7821,-4.769,-4.7383,-4.7125,-4.6972,-4.6806,-4.6049,-4.5255,-4.4493,-4.3928,-4.3426,-4.2999,-4.2974,-4.2706,-4.211,-4.1594,-4.0959,-4.021,-3.9296,-3.8286,-3.7192,-3.7072,-3.6735,-3.6218,-3.6086,-3.5966,-3.5821,-3.4996,-3.4631,-3.4478,-3.3805,-3.3395,-3.3197,-3.3147,-3.3028,-3.2879,-3.2466,-3.2025,-3.1517,-3.1024,-3.0519,-3.0066,-2.9525,-2.9171,-2.8821,-2.8209,-2.782,-2.7547,-2.7357,-2.7177,-2.6938,-2.6592,-2.6342,-2.6081,-2.5654,-2.49,-2.4154,-2.3524,-2.2772,-2.2188,-2.2061,-2.1447,-2.0708,-2.0085,-1.9455,-1.8807,-1.8273,-1.7668,-1.7223,-1.7048,-1.6654,0.0,0.0,-1.5884,-1.5809,-1.5588,-1.6197,-1.6664,0.0,0.0,0.0,0.0,-1.8465,-1.8717,-1.934,-2.0338,-2.0998,-2.1313,-2.1911,-2.2551,-2.3158,-2.3051,-2.3171,-2.3472,-2.3247,-2.307,-2.303,-2.3243,-2.3362,-2.3393,-2.3508,-2.354,-2.3453,-2.3195,-2.3073,-2.3109,-2.3032,-2.3047,-2.3106,-4.6313,-4.6554,-4.6853,-4.7006,-4.7277,-4.7442,-4.7442,-4.7442,-4.7337,-4.7053,-4.69,-4.6746,-4.6614,-4.6169,-4.5522,-4.4694,-4.4116,-4.3564,-4.3011,-4.2974,-4.2706,-4.211,-4.1828,-4.1264,-4.0403,-3.9838,-3.902,-3.7938,-3.7685,-3.7409,-3.712,-3.6879,-3.6771,-3.6735,-3.5551,-3.4967,-3.473,-3.3889,-3.3431,-3.3281,-3.3281,-3.3281,-3.3258,-3.286,-3.2449,-3.1984,-3.1343,-3.0871,-3.045,-2.9834,-2.9478,-2.9144,-2.8635,-2.8261,-2.8018,-2.7921,-2.74,-2.6853,-2.6544,-2.6294,-2.6004,-2.5479,-2.4965,-2.4455,-2.392,-2.3259,-2.2713,-2.2487,-2.1909,-2.1181,-2.0439,-1.987,-1.9269,-1.8583,-1.8081,-1.7683,-1.7568,-1.7164,0.0,-1.6627,-1.6515,-1.6384,-1.6194,-1.6779,-1.7285,-1.7617,-1.8071,0.0,-1.9272,-1.9455,-1.9638,-1.9877,-2.0752,-2.1334,-2.1505,-2.2209,-2.2756,-2.3141,-2.2973,-2.3055,-2.3247,-2.307,-2.3101,-2.3268,-2.3401,-2.3576,-2.3808,-2.3802,-2.3772,-2.3555,-2.3413,-2.3234,-2.3133,-2.3109,-2.3106,-2.3106,-4.6313,-4.6554,-4.6746,-4.6806,-4.7006,-4.7159,-4.7159,-4.7159,-4.7053,-4.6733,-4.6733,-4.6626,-4.6313,-4.6313,-4.5849,-4.4719,-4.4192,-4.3652,-4.3024,-4.2974,-4.2706,-4.211,-4.211,-4.1606,-4.0523,-4.0355,-3.9789,-3.8815,-3.825,-3.7986,-3.7974,-3.7517,-3.7312,-3.7264,-3.573,-3.5004,-3.4836,-3.3843,-3.335,-3.3281,-3.3281,-3.3281,-3.3281,-3.298,-3.2718,-3.2387,-3.1673,-3.1218,-3.088,-3.0137,-2.9728,-2.9459,-2.9108,-2.8828,-2.8618,-2.8618,-2.7883,-2.6988,-2.6665,-2.6354,-2.5858,-2.5079,-2.4883,-2.4784,-2.4301,-2.3805,-2.3308,-2.2988,-2.2432,-2.175,-2.0808,-2.0362,-1.9808,-1.899,-1.8563,-1.8192,-1.7942,0.0,-1.7358,-1.7412,-1.7201,-1.7085,-1.713,-1.744,-1.7949,-1.852,-1.8831,-1.9302,-2.0003,-2.0313,-2.0519,-2.0623,-2.1073,-2.1506,-2.1978,-2.2576,-2.2891,-2.2892,-2.2983,-2.3014,-2.3014,-2.307,-2.326,-2.3488,-2.3599,-2.3805,-2.4099,-2.4086,-2.3924,-2.3581,-2.3561,-2.3362,-2.3106,-2.3106,-2.3106,-2.3106,-4.6313,-4.6313,-4.6494,-4.6746,-4.6853,-4.6853,-4.6853,-4.6853,-4.6733,-4.6434,-4.6373,-4.6373,-4.6313,-4.6313,-4.5849,-4.4719,-4.4543,-4.4066,-4.3037,-4.2974,-4.2706,-4.211,-4.211,-4.1777,-4.1064,-4.0186,-3.9429,-3.8815,-3.825,-3.7986,-3.7986,-3.789,-3.7853,-3.7829,-3.6666,-3.5897,-3.5427,-3.4352,-3.366,-3.3281,-3.3281,-3.3281,-3.3281,-3.298,-3.2718,-3.2432,-3.2039,-3.1713,-3.1393,-3.0662,-3.021,-2.9894,-2.9203,-2.8828,-2.8618,-2.8618,-2.8165,-2.7582,-2.7209,-2.6447,-2.5635,-2.5039,-2.4883,-2.4784,-2.4301,-2.3805,-2.3379,-2.3326,-2.2606,-2.1863,-2.1499,-2.0712,-2.0019,-1.9686,-1.8875,-1.8279,-1.8224,0.0,-1.7267,-1.7558,-1.7385,-1.7382,-1.7662,-1.8193,-1.8652,-1.899,-1.9279,-1.9779,-2.0726,-2.0813,-2.1107,-2.1748,-2.1489,-2.1732,-2.2377,-2.2489,-2.2688,-2.2983,-2.299,-2.3014,-2.3022,-2.3267,-2.3433,-2.352,-2.4166,-2.4324,-2.4102,-2.4078,-2.3908,-2.3598,-2.3278,-2.3168,-2.3106,-2.3106,-2.3106,-2.305,-4.6313,-4.6313,-4.6373,-4.6494,-4.6554,-4.6554,-4.6554,-4.6554,-4.6494,-4.6313,-4.6313,-4.6313,-4.6313,-4.6313,-4.5849,-4.4719,-4.4618,-4.4154,-4.3049,-4.2974,-4.2806,-4.2312,-4.2155,-4.1814,-4.1184,-4.0427,-3.9777,-3.9248,-3.8695,-3.8274,-3.7986,-3.7986,-3.7986,-3.7962,-3.6879,-3.6262,-3.5916,-3.4594,-3.3878,-3.3648,-3.3384,-3.3281,-3.3231,-3.2818,-3.2606,-3.2443,-3.1975,-3.1721,-3.1494,-3.0869,-3.06,-3.0363,-2.9743,-2.9465,-2.9312,-2.9199,-2.8493,-2.7723,-2.7231,-2.6723,-2.6276,-2.5755,-2.5594,-2.5396,-2.4688,-2.413,-2.3663,-2.3441,-2.2807,-2.2235,-2.1882,-2.1209,-2.0619,-2.035,-1.9644,0.0,-1.9145,-1.8722,-1.845,-1.8612,-1.8283,-1.8097,-1.8252,-1.8718,-1.907,-1.9376,-1.995,-2.0546,-2.1135,-2.1377,-2.1711,-2.2227,-2.2092,-2.2251,-2.2768,-2.2776,-2.2855,-2.3014,-2.3014,-2.3014,-2.303,-2.3322,-2.3642,-2.3848,-2.4177,-2.4319,-2.4323,-2.3985,-2.3736,-2.3549,-2.3238,-2.3106,-2.3106,-2.3106,-2.2988,-2.2801,-4.6313,-4.6313,-4.6313,-4.6313,-4.6313,-4.6313,-4.6313,-4.6313,-4.6313,-4.6313,-4.6313,-4.6313,-4.6313,-4.62,-4.5723,-4.4706,-4.4505,-4.4016,-4.3037,-4.2974,-4.2862,-4.2525,-4.2199,-4.1757,-4.1287,-4.0724,-4.0138,-3.9609,-3.908,-3.8527,-3.7986,-3.7986,-3.7986,-3.7962,-3.6997,-3.6508,-3.6291,-3.4953,-3.4211,-3.397,-3.3602,-3.3334,-3.3181,-3.2656,-3.2443,-3.2291,-3.1772,-3.1618,-3.1527,-3.0983,-3.0786,-3.0734,-3.0151,-2.9994,-2.9942,-2.9659,-2.8857,-2.7881,-2.7163,-2.7012,-2.6858,-2.6326,-2.6224,-2.5994,-2.514,-2.4503,-2.4045,-2.3734,-2.3138,-2.2645,-2.2312,-2.1702,-2.1139,-2.0874,0.0,-1.9917,0.0,-1.9673,-1.9517,-1.9595,-1.9269,-1.904,-1.9122,-1.943,-1.9736,-2.0059,-2.0736,-2.1274,-2.1634,-2.1941,-2.2243,-2.2601,-2.2609,-2.2744,-2.3014,-2.3014,-2.3014,-2.3014,-2.3014,-2.3062,-2.3149,-2.3506,-2.379,-2.4071,-2.4178,-2.43,-2.4355,-2.3798,-2.3549,-2.3487,-2.3168,-2.3106,-2.3106,-2.3106,-2.2918,-2.262,-4.6313,-4.6313,-4.6313,-4.6313,-4.6313,-4.6313,-4.6313,-4.6313,-4.6313,-4.6313,-4.6313,-4.6313,-4.6313,-4.5861,-4.5296,-4.4681,-4.4154,-4.3614,-4.3024,-4.2974,-4.2862,-4.2525,-4.1948,-4.1606,-4.1549,-4.0825,-4.0138,-3.9609,-3.908,-3.8527,-3.7986,-3.7986,-3.7986,-3.7986,-3.7311,-3.6826,-3.6338,-3.5663,-3.4865,-3.4004,-3.3958,-3.3531,-3.288,-3.2606,-3.2291,-3.2026,-3.1721,-3.1618,-3.1527,-3.0983,-3.0786,-3.0734,-3.0151,-2.9994,-2.9942,-2.9659,-2.9154,-2.8407,-2.7288,-2.7012,-2.6858,-2.6326,-2.6224,-2.606,-2.5481,-2.49,-2.4455,-2.4429,-2.367,-2.3066,-2.304,-2.2047,-2.1164,-2.1197,0.0,0.0,-1.9917,-1.9673,-1.9603,-1.9922,-1.9979,-2.0132,-2.0445,-2.0788,-2.1094,-2.1425,-2.1526,-2.1798,-2.2394,-2.2434,-2.2609,-2.2966,-2.2974,-2.299,-2.3014,-2.3014,-2.3014,-2.3014,-2.3014,-2.3189,-2.3457,-2.3856,-2.4087,-2.4133,-2.4423,-2.4209,-2.3673,-2.3611,-2.3417,-2.3113,-2.3113,-2.3106,-2.3106,-2.3106,-2.2918,-2.2586,-4.6313,-4.6313,-4.6313,-4.6313,-4.6313,-4.6313,-4.6313,-4.6313,-4.6313,-4.6313,-4.6313,-4.6313,-4.6313,-4.5811,-4.5259,-4.4669,-4.4116,-4.3564,-4.3011,-4.2974,-4.2862,-4.2525,-4.2287,-4.2073,-4.1915,-4.1424,-4.072,-3.9861,-3.9503,-3.8852,-3.7986,-3.7986,-3.7986,-3.7986,-3.7346,-3.6972,-3.6784,-3.5871,-3.529,-3.4911,-3.4613,-3.4228,-3.3747,-3.3477,-3.3164,-3.2903,-3.263,-3.2409,-3.2145,-3.1785,-3.1529,-3.1327,-3.0618,-3.0419,-3.0261,-2.953,-2.8877,-2.8382,-2.7891,-2.7803,-2.7645,-2.7117,-2.6949,-2.6723,-2.5952,-2.5306,-2.481,-2.4562,-2.3974,-2.3451,-2.3451,-2.2951,-2.2447,-2.2239,0.0,-2.1362,-2.1215,-2.1111,-2.1115,-2.1249,-2.1112,-2.1085,-2.1217,-2.1348,-2.148,-2.1588,-2.1954,-2.2237,-2.2482,-2.2696,-2.2871,-2.3014,-2.3014,-2.3014,-2.3014,-2.3014,-2.3014,-2.3022,-2.3179,-2.3354,-2.3504,-2.3949,-2.4084,-2.4112,-2.4024,-2.386,-2.3611,-2.3362,-2.323,-2.3106,-2.3106,-2.323,-2.3406,-2.316,-2.2964,-2.2828,-4.6313,-4.6313,-4.6313,-4.6313,-4.6313,-4.6313,-4.6313,-4.6313,-4.6313,-4.6313,-4.6313,-4.6313,-4.6313,-4.5648,-4.5058,-4.4656,-4.3966,-4.3376,-4.2999,-4.2974,-4.2918,-4.2694,-4.2581,-4.2413,-4.2211,-4.1834,-4.1156,-4.0257,-3.978,-3.914,-3.8238,-3.807,-3.7986,-3.7986,-3.7346,-3.7078,-3.7054,-3.6114,-3.5657,-3.5485,-3.5164,-3.466,-3.4144,-3.3997,-3.3679,-3.3349,-3.3178,-3.2899,-3.2566,-3.2308,-3.1993,-3.169,-3.1106,-3.0797,-3.0509,-2.9752,-2.9025,-2.8496,-2.8496,-2.8398,-2.8184,-2.7539,-2.7377,-2.7194,-2.6376,-2.5784,-2.5326,-2.4934,-2.4411,-2.3952,-2.3898,-2.353,-2.3188,-2.286,-2.2593,-2.2333,-2.2065,-2.2011,-2.2011,-2.2011,-2.1952,-2.1853,-2.1853,-2.1955,-2.2025,-2.2025,-2.2411,-2.2656,-2.2656,-2.299,-2.3181,-2.3181,-2.3284,-2.334,-2.334,-2.3236,-2.3181,-2.3189,-2.3431,-2.3594,-2.3712,-2.3878,-2.3961,-2.3955,-2.3692,-2.3542,-2.3425,-2.3168,-2.3106,-2.312,-2.3223,-2.3335,-2.3412,-2.3257,-2.3041,-2.2845,-4.6313,-4.6313,-4.6313,-4.6313,-4.6313,-4.6313,-4.6313,-4.6313,-4.6313,-4.6313,-4.6313,-4.6313,-4.6313,-4.5296,-4.4618,-4.4618,-4.3614,-4.2974,-4.2974,-4.2974,-4.2974,-4.2974,-4.2694,-4.2525,-4.2525,-4.1891,-4.1339,-4.0804,-4.0028,-3.9345,-3.8803,-3.825,-3.7986,-3.7986,-3.7346,-3.7078,-3.7078,-3.6538,-3.5979,-3.5531,-3.552,-3.485,-3.3902,-3.3902,-3.3573,-3.3135,-3.3135,-3.291,-3.2577,-3.2318,-3.2004,-3.1753,-3.1491,-3.0986,-3.047,-3.047,-2.9764,-2.8926,-2.8926,-2.8613,-2.814,-2.7539,-2.7377,-2.7269,-2.6745,-2.6354,-2.6017,-2.5743,-2.516,-2.4572,-2.4293,-2.3716,-2.3196,-2.2868,-2.2601,-2.2333,-2.2073,-2.2019,-2.2019,-2.2019,-2.2275,-2.249,-2.249,-2.2807,-2.3014,-2.3014,-2.3022,-2.3022,-2.3022,-2.3298,-2.3488,-2.3488,-2.388,-2.4114,-2.4114,-2.3713,-2.3488,-2.3496,-2.356,-2.3777,-2.4088,-2.3725,-2.3604,-2.3611,-2.3611,-2.3425,-2.3106,-2.3113,-2.3113,-2.3142,-2.3471,-2.3412,-2.3128,-2.3371,-2.3093,-2.2551,-4.6313,-4.6313,-4.6313,-4.6313,-4.6313,-4.6313,-4.6313,-4.6313,-4.6313,-4.6313,-4.6313,-4.6313,-4.6313,-4.5296,-4.4618,-4.4618,-4.3614,-4.2918,-4.2638,-4.2481,-4.2381,-4.2381,-4.2706,-4.2862,-4.2862,-4.2256,-4.1715,-4.1175,-4.0084,-3.9345,-3.8803,-3.825,-3.7986,-3.7986,-3.7346,-3.7078,-3.7078,-3.6538,-3.624,-3.6048,-3.5788,-3.5436,-3.492,-3.4767,-3.4428,-3.4087,-3.4087,-3.3755,-3.3311,-3.32,-3.2875,-3.2373,-3.194,-3.1232,-3.047,-3.047,-2.9982,-2.9375,-2.9375,-2.9287,-2.8933,-2.7682,-2.7377,-2.7269,-2.6745,-2.6354,-2.6017,-2.5743,-2.5362,-2.4954,-2.4696,-2.4446,-2.4259,-2.3976,-2.3646,-2.337,-2.3093,-2.2871,-2.2696,-2.2696,-2.2791,-2.2855,-2.2855,-2.295,-2.3014,-2.3014,-2.3244,-2.3491,-2.3729,-2.384,-2.3896,-2.3896,-2.4058,-2.4114,-2.4114,-2.401,-2.3786,-2.3575,-2.3844,-2.3875,-2.3733,-2.3664,-2.3576,-2.3611,-2.3362,-2.3168,-2.3128,-2.3354,-2.3449,-2.3479,-2.3479,-2.3609,-2.3692,-2.3249,-2.3082,-2.3079,-4.6313,-4.6313,-4.6313,-4.6313,-4.6313,-4.6313,-4.6313,-4.6313,-4.6313,-4.6313,-4.6313,-4.6253,-4.6132,-4.5132,-4.4398,-4.4282,-4.3285,-4.2538,-4.2369,-4.2211,-4.211,-4.211,-4.2437,-4.265,-4.265,-4.2142,-4.1756,-4.1426,-4.0398,-3.9645,-3.9116,-3.8575,-3.8149,-3.7838,-3.7292,-3.7024,-3.6916,-3.6483,-3.632,-3.6266,-3.595,-3.5632,-3.5368,-3.5091,-3.4813,-3.4524,-3.4524,-3.4132,-3.3625,-3.3625,-3.3182,-3.2628,-3.2349,-3.1723,-3.0993,-3.0993,-3.0469,-2.9824,-2.9824,-2.9697,-2.9332,-2.8212,-2.7914,-2.7759,-2.7216,-2.6811,-2.6416,-2.602,-2.5675,-2.5293,-2.4868,-2.4821,-2.471,-2.4432,-2.4144,-2.3809,-2.3528,-2.3191,-2.3014,-2.3014,-2.3141,-2.322,-2.322,-2.3348,-2.3427,-2.3427,-2.3626,-2.3832,-2.4106,-2.4241,-2.4321,-2.4321,-2.4456,-2.4468,-2.4468,-2.4348,-2.4105,-2.3808,-2.3893,-2.3802,-2.3619,-2.3452,-2.3425,-2.3417,-2.3168,-2.3186,-2.3318,-2.3515,-2.3676,-2.3823,-2.3746,-2.3719,-2.3771,-2.3287,-2.3113,-2.3201,-4.6313,-4.6313,-4.6313,-4.6313,-4.6313,-4.6313,-4.6313,-4.6313,-4.6313,-4.6313,-4.6253,-4.6132,-4.5817,-4.4848,-4.4014,-4.372,-4.2667,-4.2041,-4.2041,-4.2041,-4.2041,-4.2041,-4.2041,-4.2041,-4.2041,-4.1732,-4.1606,-4.1606,-4.0813,-4.015,-3.9669,-3.9128,-3.8437,-3.7667,-3.7321,-3.7017,-3.67,-3.6429,-3.632,-3.6266,-3.5906,-3.5643,-3.5368,-3.5091,-3.4758,-3.4524,-3.4468,-3.4076,-3.3568,-3.3512,-3.3126,-3.2669,-3.2669,-3.2258,-3.1787,-3.1787,-3.1095,-3.0264,-3.0264,-2.998,-2.9575,-2.8946,-2.8786,-2.8644,-2.7945,-2.7546,-2.7056,-2.6477,-2.6089,-2.5619,-2.4984,-2.4872,-2.4761,-2.4538,-2.4194,-2.3922,-2.3674,-2.3336,-2.3109,-2.3109,-2.3395,-2.3528,-2.3528,-2.3872,-2.4121,-2.4153,-2.4161,-2.4169,-2.4201,-2.4452,-2.4627,-2.4627,-2.4944,-2.5111,-2.5111,-2.4734,-2.4385,-2.4082,-2.3778,-2.3611,-2.3542,-2.323,-2.3128,-2.3149,-2.3149,-2.3332,-2.364,-2.3669,-2.3859,-2.4094,-2.4011,-2.3799,-2.35,-2.3372,-2.3133,-2.2928,-4.6313,-4.6313,-4.6313,-4.6313,-4.6313,-4.6313,-4.6313,-4.6313,-4.6313,-4.6313,-4.6059,-4.5878,-4.5817,-4.4611,-4.3779,-4.372,-4.247,-4.172,-4.172,-4.1516,-4.1414,-4.1414,-4.1414,-4.1414,-4.1414,-4.1504,-4.1606,-4.1606,-4.0813,-4.0343,-4.021,-3.9681,-3.8988,-3.8202,-3.7852,-3.7344,-3.67,-3.6429,-3.632,-3.6277,-3.5687,-3.5478,-3.5368,-3.4802,-3.4579,-3.4468,-3.4255,-3.3907,-3.3512,-3.3069,-3.2784,-3.2669,-3.2669,-3.2258,-3.1787,-3.1787,-3.1323,-3.0742,-3.0742,-3.0674,-3.048,-2.9773,-2.9647,-2.9303,-2.8083,-2.7757,-2.7523,-2.6897,-2.672,-2.6342,-2.5422,-2.5249,-2.5249,-2.5193,-2.4901,-2.4661,-2.4664,-2.4415,-2.4182,-2.3883,-2.3954,-2.3943,-2.3943,-2.4066,-2.4225,-2.4444,-2.4468,-2.4587,-2.4865,-2.4952,-2.4992,-2.4992,-2.5071,-2.5111,-2.5111,-2.4487,-2.4193,-2.4124,-2.376,-2.3487,-2.3238,-2.3113,-2.3245,-2.3493,-2.3493,-2.3676,-2.3998,-2.4254,-2.4261,-2.4025,-2.4004,-2.3786,-2.3385,-2.3106,-2.2934,-2.2928,-4.6313,-4.6313,-4.6313,-4.6313,-4.6313,-4.6313,-4.6313,-4.6193,-4.6059,-4.6059,-4.5757,-4.5415,-4.501,-4.4068,-4.3193,-4.2576,-4.1832,-4.139,-4.139,-4.1287,-4.1184,-4.1184,-4.1184,-4.1184,-4.1184,-4.1344,-4.139,-4.139,-4.101,-4.0643,-4.0391,-4.0114,-3.9471,-3.856,-3.8382,-3.7769,-3.6853,-3.6688,-3.6495,-3.6277,-3.5632,-3.5423,-3.5301,-3.4747,-3.4524,-3.4468,-3.4199,-3.3805,-3.3353,-3.2841,-3.2669,-3.2669,-3.2669,-3.2258,-3.1787,-3.1787,-3.1392,-3.0889,-3.0889,-3.0889,-3.0772,-3.0049,-2.9922,-2.9632,-2.8618,-2.8205,-2.7894,-2.7307,-2.704,-2.6624,-2.5792,-2.5643,-2.5643,-2.5643,-2.5405,-2.5127,-2.5027,-2.4768,-2.4475,-2.4172,-2.4257,-2.4432,-2.4539,-2.4555,-2.4635,-2.4817,-2.4833,-2.4913,-2.5103,-2.5111,-2.5111,-2.5111,-2.527,-2.5233,-2.5109,-2.4764,-2.4533,-2.4336,-2.3862,-2.3529,-2.3347,-2.3501,-2.3662,-2.383,-2.383,-2.4013,-2.4327,-2.4297,-2.425,-2.4199,-2.3821,-2.3611,-2.3338,-2.2996,-2.2928,-2.2859,-4.6313,-4.6313,-4.6313,-4.6313,-4.6313,-4.6253,-4.6253,-4.5924,-4.562,-4.562,-4.5218,-4.4682,-4.3964,-4.3322,-4.25,-4.1326,-4.1184,-4.1184,-4.1184,-4.1184,-4.1184,-4.1184,-4.1184,-4.1184,-4.1184,-4.1184,-4.1184,-4.1184,-4.1184,-4.0956,-4.0535,-4.0478,-3.9896,-3.8812,-3.8812,-3.8127,-3.7161,-3.7161,-3.692,-3.6475,-3.5891,-3.568,-3.5614,-3.4999,-3.4775,-3.4697,-3.4283,-3.3699,-3.3079,-3.2784,-3.2669,-3.269,-3.2705,-3.237,-3.1918,-3.1931,-3.1562,-3.1113,-3.1113,-3.1113,-3.0908,-3.0173,-3.0035,-2.9839,-2.9172,-2.8728,-2.8314,-2.7776,-2.7342,-2.6862,-2.622,-2.6028,-2.597,-2.597,-2.5804,-2.5587,-2.5226,-2.5007,-2.4711,-2.4289,-2.4492,-2.4785,-2.5079,-2.5111,-2.5111,-2.5111,-2.5111,-2.5135,-2.5199,-2.5199,-2.5222,-2.5286,-2.5572,-2.5534,-2.5218,-2.5114,-2.4929,-2.4605,-2.406,-2.3735,-2.3691,-2.3962,-2.4115,-2.4166,-2.4166,-2.4349,-2.4583,-2.4242,-2.4192,-2.4224,-2.3611,-2.3331,-2.327,-2.2996,-2.2859,-2.2722,-4.6313,-4.6313,-4.6313,-4.6313,-4.6313,-4.6193,-4.5878,-4.542,-4.499,-4.4713,-4.3996,-4.3453,-4.3308,-4.2611,-4.1892,-4.1232,-4.1184,-4.1184,-4.1184,-4.1184,-4.1184,-4.1184,-4.1184,-4.1184,-4.1184,-4.1184,-4.1184,-4.1184,-4.1184,-4.1148,-4.1076,-4.0789,-4.0227,-3.9376,-3.9068,-3.8503,-3.7678,-3.7678,-3.7643,-3.753,-3.6917,-3.67,-3.6643,-3.6,-3.578,-3.5656,-3.4647,-3.3612,-3.2784,-3.2737,-3.2669,-3.2742,-3.2823,-3.2644,-3.2362,-3.2455,-3.2284,-3.1992,-3.1992,-3.1992,-3.1784,-3.0746,-3.0531,-3.0257,-2.9246,-2.8938,-2.8783,-2.8435,-2.8083,-2.7644,-2.6964,-2.6591,-2.6414,-2.6414,-2.6414,-2.6287,-2.6006,-2.5927,-2.5692,-2.5029,-2.5008,-2.5056,-2.5103,-2.5111,-2.5111,-2.5111,-2.5111,-2.5238,-2.5548,-2.5501,-2.5699,-2.6057,-2.6112,-2.5952,-2.5512,-2.5229,-2.4929,-2.4605,-2.4524,-2.4291,-2.402,-2.4064,-2.424,-2.4503,-2.4503,-2.4553,-2.4506,-2.4438,-2.4053,-2.3543,-2.3406,-2.3201,-2.2934,-2.2928,-2.2654,-2.2379,-4.5372,-4.5372,-4.5413,-4.5547,-4.5538,-4.559,-4.5537,-4.4912,-4.4375,-4.423,-4.348,-4.2865,-4.2575,-4.1962,-4.1437,-4.1208,-4.1184,-4.1184,-4.1184,-4.1184,-4.1184,-4.1184,-4.1184,-4.1184,-4.1184,-4.1184,-4.1184,-4.1184,-4.1184,-4.1184,-4.1184,-4.0838,-4.0419,-3.9905,-3.9558,-3.899,-3.8229,-3.8229,-3.8057,-3.7736,-3.712,-3.6901,-3.6844,-3.6198,-3.6023,-3.5874,-3.5007,-3.4154,-3.3472,-3.3472,-3.3472,-3.3455,-3.3346,-3.3041,-3.2794,-3.2634,-3.2391,-3.2229,-3.2229,-3.2046,-3.1745,-3.1066,-3.0775,-3.0485,-2.9821,-2.9479,-2.919,-2.8621,-2.8208,-2.7847,-2.7372,-2.7047,-2.6816,-2.6816,-2.6816,-2.6687,-2.6172,-2.6075,-2.5831,-2.5173,-2.5111,-2.5191,-2.5389,-2.5405,-2.5485,-2.5675,-2.5683,-2.5755,-2.5914,-2.5921,-2.5993,-2.6208,-2.6407,-2.6186,-2.5609,-2.5662,-2.5431,-2.4893,-2.4907,-2.4671,-2.4364,-2.4547,-2.4767,-2.4907,-2.4907,-2.4718,-2.4503,-2.4299,-2.3891,-2.3406,-2.3201,-2.2996,-2.2859,-2.2654,-2.2448,-2.2242]},{"header":{"parameterUnit":"m.s-1","parameterCategory":1,"la1":30.6,"la2":28.766,"lo1":-90.7593,"lo2":-88.6598,"dy":0.0162,"dx":0.0183,"nx":116,"ny":114,"refTime":"2023-05-05T00:00:00:Z","depth":0,"parameterNumber":3,"parameterNumberName":"V-component_of_WINDS"},"data":[0.0,0.0,0.0,0.0,0.0,0.0,0.0,0.0,0.0,0.0,0.0,0.0,0.0,0.0,0.0,0.0,0.0,0.0,0.0,0.0,0.0,0.0,0.0,0.0,0.0,0.0,0.0,0.0,0.0,0.0,0.0,0.0,0.0,0.0,0.0,0.0,0.0,0.0,0.0,0.0,0.0,0.0,0.0,0.0,0.0,0.0,0.0,0.0,0.0,0.0,0.0,0.0,0.0,0.0,0.0,0.0,0.0,0.0,0.0,0.0,0.0,0.0,0.0,0.0,0.0,0.0,0.0,0.0,0.0,0.0,0.0,0.0,0.0,0.0,0.0,0.0,0.0,0.0,0.0,0.0,0.0,0.0,0.0,0.0,0.0,0.0,0.0,0.0,0.0,0.0,0.0,0.0,0.0,0.0,0.0,0.0,0.0,0.0,0.0,0.0,0.0,0.0,0.0,0.0,0.0,0.0,0.0,0.0,0.0,0.0,0.0,0.0,0.0,0.0,0.0,0.0,0.0,0.0,0.0,0.0,0.0,0.0,0.0,0.0,0.0,0.0,0.0,0.0,0.0,0.0,0.0,0.0,0.0,0.0,0.0,0.0,0.0,0.0,0.0,0.0,0.0,0.0,0.0,0.0,0.0,0.0,0.0,0.0,0.0,0.0,0.0,0.0,0.0,0.0,0.0,0.0,0.0,0.0,0.0,0.0,0.0,0.0,0.0,0.0,0.0,0.0,0.0,0.0,0.0,0.0,0.0,0.0,0.0,0.0,0.0,0.0,0.0,0.0,0.0,0.0,0.0,0.0,0.0,0.0,0.0,0.0,0.0,0.0,0.0,0.0,0.0,0.0,0.0,0.0,0.0,0.0,0.0,0.0,0.0,0.0,0.0,0.0,0.0,0.0,0.0,0.0,0.0,0.0,0.0,0.0,0.0,0.0,0.0,0.0,0.0,0.0,0.0,0.0,0.0,0.0,0.0,0.0,0.0,0.0,0.0,0.0,0.0,0.0,0.0,0.0,0.0,0.0,0.0,0.0,0.0,0.0,0.0,0.0,0.0,0.0,0.0,0.0,0.0,0.0,0.0,0.0,0.0,0.0,0.0,0.0,0.0,0.0,0.0,0.0,0.0,0.0,0.0,0.0,0.0,0.0,0.0,0.0,0.0,0.0,0.0,0.0,0.0,0.0,0.0,0.0,0.0,0.0,0.0,0.0,0.0,0.0,0.0,0.0,0.0,0.0,0.0,0.0,0.0,0.0,0.0,0.0,0.0,0.0,0.0,0.0,0.0,0.0,0.0,0.0,0.0,0.0,0.0,0.0,0.0,0.0,0.0,0.0,0.0,0.0,0.0,0.0,0.0,0.0,0.0,0.0,0.0,0.0,0.0,0.0,0.0,0.0,0.0,0.0,0.0,0.0,0.0,0.0,0.0,0.0,0.0,0.0,0.0,0.0,0.0,0.0,0.0,0.0,0.0,0.0,0.0,0.0,0.0,0.0,0.0,0.0,0.0,0.0,0.0,0.0,0.0,0.0,0.0,0.0,0.0,0.0,0.0,0.0,0.0,0.0,0.0,0.0,0.0,0.0,0.0,0.0,0.0,0.0,0.0,0.0,0.0,0.0,0.0,0.0,0.0,0.0,0.0,0.0,0.0,0.0,0.0,0.0,0.0,0.0,0.0,0.0,0.0,0.0,0.0,0.0,0.0,0.0,0.0,0.0,0.0,0.0,0.0,0.0,0.0,0.0,0.0,0.0,0.0,0.0,0.0,0.0,0.0,0.0,0.0,0.0,0.0,0.0,0.0,0.0,0.0,0.0,0.0,0.0,0.0,0.0,0.0,0.0,0.0,0.0,0.0,0.0,0.0,0.0,0.0,0.0,0.0,0.0,0.0,0.0,0.0,0.0,0.0,0.0,0.0,0.0,0.0,0.0,0.0,0.0,0.0,0.0,0.0,0.0,0.0,0.0,0.0,0.0,0.0,0.0,0.0,0.0,0.0,0.0,0.0,0.0,0.0,0.0,0.0,0.0,0.0,0.0,0.0,0.0,0.0,0.0,0.0,0.0,0.0,0.0,0.0,0.0,0.0,0.0,0.0,0.0,0.0,0.0,0.0,0.0,0.0,0.0,0.0,0.0,0.0,0.0,0.0,0.0,0.0,0.0,0.0,0.0,0.0,0.0,0.0,0.0,0.0,0.0,0.0,0.0,0.0,0.0,0.0,0.0,0.0,0.0,0.0,0.0,0.0,0.0,0.0,0.0,0.0,0.0,0.0,0.0,0.0,0.0,0.0,0.0,0.0,0.0,0.0,0.0,0.0,0.0,0.0,0.0,0.0,0.0,0.0,0.0,0.0,0.0,0.0,0.0,0.0,0.0,0.0,0.0,0.0,0.0,0.0,0.0,0.0,0.0,0.0,0.0,0.0,0.0,0.0,0.0,0.0,0.0,0.0,0.0,0.0,0.0,0.0,0.0,0.0,0.0,0.0,0.0,0.0,0.0,0.0,0.0,0.0,0.0,0.0,0.0,0.0,0.0,0.0,0.0,0.0,0.0,0.0,0.0,0.0,0.0,0.0,0.0,0.0,0.0,0.0,0.0,0.0,0.0,0.0,0.0,0.0,0.0,0.0,0.0,0.0,0.0,0.0,0.0,0.0,0.0,0.0,0.0,0.0,0.0,0.0,0.0,0.0,0.0,0.0,0.0,0.0,0.0,0.0,0.0,0.0,0.0,0.0,0.0,0.0,0.0,0.0,0.0,0.0,0.0,0.0,0.0,0.0,0.0,0.0,0.0,0.0,0.0,0.0,0.0,0.0,0.0,0.0,0.0,0.0,0.0,0.0,0.0,0.0,0.0,0.0,0.0,0.0,0.0,0.0,0.0,0.0,0.0,0.0,0.0,0.0,0.0,0.0,0.0,0.0,0.0,0.0,0.0,0.0,0.0,0.0,0.0,0.0,0.0,0.0,0.0,0.0,0.0,0.0,0.0,0.0,0.0,0.0,0.0,0.0,0.0,0.0,0.0,0.0,0.0,0.0,0.0,0.0,0.0,0.0,0.0,0.0,0.0,0.0,0.0,0.0,0.0,0.0,0.0,0.0,0.0,0.0,0.0,0.0,0.0,0.0,0.0,0.0,0.0,0.0,0.0,0.0,0.0,0.0,0.0,0.0,0.0,0.0,0.0,0.0,0.0,0.0,0.0,0.0,0.0,0.0,0.0,0.0,0.0,0.0,0.0,0.0,0.0,0.0,0.0,0.0,0.0,0.0,0.0,0.0,0.0,0.0,0.0,0.0,0.0,0.0,0.0,0.0,0.0,0.0,0.0,0.0,0.0,0.0,0.0,0.0,0.0,0.0,0.0,0.0,0.0,0.0,0.0,0.0,0.0,0.0,0.0,0.0,0.0,0.0,0.0,0.0,0.0,0.0,0.0,0.0,0.0,0.0,0.0,0.0,0.0,0.0,0.0,0.0,0.0,0.0,0.0,0.0,0.0,0.0,0.0,0.0,0.0,0.0,0.0,0.0,0.0,0.0,0.0,0.0,0.0,0.0,0.0,0.0,0.0,0.0,0.0,0.0,0.0,0.0,0.0,0.0,0.0,0.0,0.0,0.0,0.0,0.0,0.0,0.0,0.0,0.0,0.0,0.0,0.0,0.0,0.0,0.0,0.0,0.0,0.0,0.0,0.0,0.0,0.0,0.0,0.0,0.0,0.0,0.0,0.0,0.0,0.0,0.0,0.0,0.0,0.0,0.0,0.0,0.0,0.0,0.0,0.0,0.0,0.0,0.0,0.0,0.0,0.0,0.0,0.0,0.0,0.0,0.0,0.0,0.0,0.0,0.0,0.0,0.0,0.0,0.0,0.0,0.0,0.0,0.0,0.0,0.0,0.0,0.0,0.0,0.0,0.0,0.0,0.0,0.0,0.0,0.0,0.0,0.0,0.0,0.0,0.0,0.0,0.0,0.0,0.0,0.0,0.0,0.0,0.0,0.0,0.0,0.0,0.0,0.0,0.0,0.0,0.0,0.0,0.0,0.0,0.0,0.0,0.0,0.0,0.0,0.0,0.0,0.0,0.0,0.0,0.0,0.0,0.0,0.0,0.0,0.0,0.0,0.0,0.0,0.0,0.0,0.0,0.0,0.0,0.0,0.0,0.0,0.0,0.0,0.0,0.0,0.0,0.0,0.0,0.0,0.0,0.0,0.0,0.0,0.0,0.0,0.0,0.0,0.0,0.0,0.0,0.0,0.0,0.0,0.0,0.0,0.0,0.0,0.0,0.0,0.0,0.0,0.0,0.0,0.0,0.0,0.0,0.0,0.0,0.0,0.0,0.0,0.0,0.0,0.0,0.0,0.0,0.0,0.0,0.0,0.0,0.0,0.0,0.0,0.0,0.0,0.0,0.0,0.0,0.0,0.0,0.0,0.0,0.0,0.0,0.0,0.0,0.0,0.0,0.0,0.0,0.0,0.0,0.0,0.0,0.0,0.0,0.0,0.0,0.0,0.0,0.0,0.0,0.0,0.0,0.0,0.0,0.0,0.0,0.0,0.0,0.0,0.0,0.0,0.0,0.0,0.0,0.0,0.0,0.0,0.0,0.0,0.0,0.0,0.0,0.0,0.0,0.0,0.0,0.0,0.0,0.0,0.0,0.0,0.0,0.0,0.0,0.0,0.0,0.0,0.0,0.0,0.0,0.0,0.0,0.0,0.0,0.0,0.0,0.0,0.0,0.0,0.0,0.0,0.0,0.0,0.0,0.0,0.0,0.0,0.0,0.0,0.0,0.0,0.0,0.0,0.0,0.0,0.0,0.0,0.0,0.0,0.0,0.0,0.0,0.0,0.0,0.0,0.0,0.0,0.0,0.0,0.0,0.0,0.0,0.0,0.0,0.0,0.0,0.0,0.0,0.0,0.0,0.0,0.0,0.0,0.0,0.0,0.0,0.0,0.0,0.0,0.0,0.0,0.0,0.0,0.0,0.0,0.0,0.0,0.0,0.0,0.0,0.0,0.0,0.0,0.0,0.0,0.0,0.0,0.0,0.0,0.0,0.0,0.0,0.0,0.0,0.0,0.0,0.0,0.0,0.0,0.0,0.0,0.0,0.0,0.0,0.0,0.0,0.0,0.0,0.0,0.0,0.0,0.0,0.0,0.0,0.0,0.0,0.0,0.0,0.0,0.0,0.0,0.0,0.0,0.0,0.0,0.0,0.0,0.0,0.0,0.0,0.0,0.0,0.0,0.0,0.0,0.0,0.0,0.0,0.0,0.0,0.0,0.0,0.0,0.0,0.0,0.0,0.0,0.0,0.0,0.0,0.0,0.0,0.0,0.0,0.0,0.0,0.0,0.0,0.0,0.0,0.0,0.0,0.0,0.0,0.0,0.0,0.0,0.0,0.0,0.0,0.0,0.0,0.0,0.0,0.0,0.0,0.0,0.0,0.0,0.0,0.0,0.0,0.0,0.0,0.0,0.0,0.0,0.0,0.0,0.0,0.0,0.0,0.0,0.0,0.0,0.0,0.0,0.0,0.0,0.0,0.0,0.0,0.0,0.0,0.0,0.0,0.0,0.0,0.0,0.0,0.0,0.0,0.0,0.0,0.0,0.0,0.0,0.0,0.0,0.0,0.0,0.0,0.0,0.0,0.0,0.0,0.0,0.0,0.0,0.0,0.0,0.0,0.0,0.0,0.0,0.0,0.0,0.0,0.0,0.0,0.0,0.0,0.0,0.0,0.0,0.0,0.0,0.0,0.0,0.0,0.0,0.0,0.0,0.0,0.0,0.0,0.0,0.0,0.0,0.0,0.0,0.0,0.0,0.0,0.0,0.0,0.0,0.0,0.0,0.0,0.0,0.0,0.0,0.0,0.0,0.0,0.0,0.0,0.0,0.0,0.0,0.0,0.0,0.0,0.0,0.0,0.0,0.0,0.0,0.0,0.0,0.0,0.0,0.0,0.0,0.0,0.0,0.0,0.0,0.0,0.0,0.0,0.0,0.0,0.0,0.0,0.0,0.0,0.0,0.0,0.0,0.0,0.0,0.0,0.0,0.0,0.0,0.0,0.0,0.0,0.0,0.0,0.0,0.0,0.0,0.0,0.0,0.0,0.0,0.0,0.0,2.4302,0.0,0.0,0.0,0.0,0.0,0.0,0.0,0.0,0.0,0.0,0.0,0.0,0.0,0.0,0.0,0.0,0.0,0.0,0.0,0.0,0.0,0.0,0.0,0.0,0.0,0.0,0.0,0.0,0.0,0.0,0.0,0.0,0.0,0.0,0.0,0.0,0.0,0.0,0.0,1.7332,1.8335,1.9897,1.9695,1.9254,1.8638,0.0,0.0,0.0,0.0,0.0,0.0,0.0,0.0,0.0,0.0,0.0,0.0,0.0,0.0,0.0,0.0,0.0,0.0,0.0,0.0,0.0,0.0,0.0,0.0,0.0,0.0,0.0,0.0,0.0,0.0,0.0,0.0,0.0,0.0,0.0,0.0,0.0,0.0,0.0,0.0,0.0,0.0,0.0,0.0,0.0,0.0,0.0,0.0,0.0,0.0,0.0,0.0,0.0,0.0,0.0,0.0,0.0,0.0,0.0,0.0,0.0,0.0,0.0,0.0,0.0,0.0,0.0,0.0,0.0,0.0,0.0,2.6248,0.0,0.0,0.0,0.0,0.0,0.0,0.0,0.0,0.0,0.0,0.0,0.0,0.0,0.0,0.0,0.0,0.0,0.0,0.0,0.0,0.0,0.0,0.0,1.4602,1.5274,1.5438,1.6019,1.6176,0.0,0.0,0.0,0.0,0.0,0.0,0.0,1.6135,1.6919,1.8221,1.8893,2.0211,2.2114,2.3693,2.3387,2.1469,2.1288,0.0,0.0,0.0,0.0,0.0,0.0,0.0,0.0,0.0,0.0,0.0,0.0,0.0,0.0,0.0,0.0,0.0,0.0,0.0,0.0,0.0,0.0,0.0,0.0,0.0,0.0,0.0,0.0,0.0,0.0,0.0,0.0,0.0,0.0,0.0,0.0,0.0,0.0,0.0,0.0,0.0,0.0,0.0,0.0,0.0,0.0,0.0,0.0,0.0,0.0,0.0,0.0,0.0,0.0,0.0,0.0,0.0,0.0,0.0,0.0,0.0,0.0,0.0,2.8399,2.9259,2.9511,3.049,3.1102,3.1339,3.0279,2.9246,2.8205,2.739,0.0,0.0,0.0,0.0,0.0,0.0,0.0,0.0,0.0,0.0,0.0,0.0,0.0,0.0,0.0,0.0,0.0,0.0,0.0,0.0,0.0,1.5104,1.5438,1.6026,1.6167,1.6271,1.6382,0.0,0.0,0.0,0.0,0.0,1.6582,1.7604,1.8606,1.9552,2.2577,2.4306,2.4811,2.6316,2.6994,2.6875,2.4946,2.3401,2.2323,0.0,0.0,0.0,0.0,0.0,0.0,0.0,0.0,0.0,0.0,0.0,0.0,0.0,0.0,0.0,0.0,0.0,0.0,0.0,0.0,0.0,0.0,0.0,0.0,0.0,0.0,0.0,0.0,0.0,0.0,0.0,0.0,0.0,0.0,0.0,0.0,0.0,0.0,0.0,0.0,0.0,2.1121,2.243,0.0,0.0,0.0,0.0,0.0,0.0,0.0,0.0,0.0,0.0,0.0,0.0,0.0,2.4922,2.639,2.6715,2.7601,2.9092,3.0058,3.0976,3.1794,3.2687,3.3617,3.4497,3.4383,0.0,3.0504,2.9644,0.0,0.0,0.0,0.0,0.0,0.0,0.0,0.0,0.0,0.0,0.0,0.0,0.0,0.0,0.0,0.0,0.0,0.0,0.0,0.0,0.0,1.5963,1.6721,1.7029,1.7772,1.8118,1.7867,1.7638,0.0,0.0,0.0,1.7351,1.7702,1.8939,2.0514,2.2435,2.4731,2.6374,2.7458,2.8548,2.9499,3.0202,2.8962,2.7124,2.4936,2.4709,0.0,0.0,0.0,0.0,0.0,0.0,0.0,0.0,0.0,0.0,0.0,0.0,0.0,0.0,0.0,0.0,0.0,0.0,0.0,0.0,0.0,0.0,0.0,0.0,0.0,0.0,0.0,0.0,0.0,0.0,0.0,0.0,0.0,0.0,0.0,0.0,0.0,0.0,0.0,2.1748,2.2388,2.3482,2.3583,2.3567,0.0,0.0,0.0,0.0,0.0,0.0,0.0,0.0,0.0,2.4017,2.5134,2.6129,2.6989,2.8254,2.9539,3.08,3.1667,3.2557,3.3434,3.3875,3.4373,3.4924,3.496,3.4301,3.311,3.2059,3.134,3.0872,0.0,0.0,0.0,0.0,2.9978,3.0288,0.0,0.0,0.0,0.0,0.0,0.0,0.0,0.0,0.0,0.0,0.0,0.0,1.5473,1.6816,1.7853,1.8344,1.9217,1.9612,1.939,1.8969,1.8545,1.8127,1.8229,1.8602,1.9206,2.0809,2.2895,2.5466,2.6816,2.8274,2.9849,3.0628,3.1525,3.2511,3.2206,3.0454,2.7711,2.6983,2.5713,2.4074,0.0,0.0,0.0,0.0,0.0,0.0,0.0,0.0,0.0,0.0,0.0,0.0,0.0,0.0,0.0,0.0,0.0,0.0,0.0,0.0,0.0,0.0,0.0,0.0,0.0,0.0,0.0,0.0,0.0,0.0,0.0,0.0,0.0,0.0,0.0,0.0,0.0,2.3172,2.347,2.4265,2.4331,2.4331,0.0,0.0,0.0,0.0,0.0,0.0,2.4399,2.4769,2.5003,2.5066,2.6521,2.7505,2.7861,2.9777,3.1188,3.2093,3.3154,3.3992,3.4681,3.5144,3.5435,3.5623,3.5891,3.6035,3.5951,3.4259,3.3212,3.2603,3.2067,3.1852,3.1852,3.174,3.2083,3.2513,0.0,0.0,0.0,0.0,0.0,0.0,0.0,0.0,0.0,0.0,0.0,1.55,1.7176,1.7442,1.8251,2.009,1.9799,1.9831,2.0566,2.018,1.9966,2.0054,2.0203,2.0526,2.1139,2.3653,2.5964,2.8011,2.9417,3.0698,3.1869,3.2547,3.3242,3.3909,3.3878,3.2642,3.0491,2.928,2.8135,2.6986,2.4891,0.0,0.0,0.0,0.0,0.0,0.0,0.0,0.0,0.0,0.0,0.0,0.0,0.0,0.0,0.0,0.0,0.0,0.0,0.0,0.0,0.0,0.0,0.0,0.0,0.0,0.0,0.0,0.0,0.0,0.0,0.0,0.0,0.0,0.0,0.0,0.0,0.0,0.0,2.4961,2.5096,0.0,0.0,0.0,0.0,2.434,2.4337,2.4384,2.4399,2.5796,2.659,2.6589,2.8133,2.9379,3.022,3.1152,3.2035,3.2869,3.4372,3.5192,3.5396,3.6942,3.7728,3.7883,3.8843,3.9279,3.9032,3.6038,3.4783,3.4748,3.4712,3.4694,3.4694,3.4694,3.4712,3.473,0.0,0.0,0.0,0.0,0.0,0.0,0.0,0.0,1.2407,1.3588,1.4912,1.6133,1.7184,1.8724,1.9956,2.0653,2.1358,2.1872,2.2163,2.182,2.167,2.1809,2.1931,2.272,2.4247,2.5989,2.7712,2.9427,3.036,3.1604,3.3111,3.39,3.4723,3.5531,3.5316,3.4912,3.4224,3.1804,3.038,2.9571,2.7227,2.5897,0.0,0.0,0.0,0.0,0.0,0.0,0.0,0.0,0.0,0.0,0.0,0.0,0.0,0.0,0.0,0.0,0.0,0.0,0.0,0.0,0.0,0.0,0.0,0.0,0.0,0.0,0.0,0.0,0.0,0.0,0.0,0.0,0.0,0.0,0.0,0.0,0.0,2.6492,2.7027,0.0,2.7437,2.7506,2.7425,2.721,2.7211,2.7264,2.7367,2.7875,2.8198,2.8235,2.9748,3.0796,3.1221,3.2475,3.353,3.4387,3.4938,3.5776,3.6849,3.7411,3.8017,3.861,3.9038,3.9245,3.9157,3.8055,3.742,3.7065,3.6057,3.5986,3.6427,3.6335,3.6595,3.687,0.0,0.0,0.0,0.0,0.0,0.0,0.0,0.0,1.2368,1.3934,1.5286,1.661,1.7865,1.9653,2.105,2.1719,2.2498,2.3031,2.3286,2.2983,2.2834,2.2922,2.3539,2.478,2.6807,2.786,2.9266,3.1057,3.1715,3.284,3.4347,3.5221,3.6022,3.6746,3.6658,3.6753,3.6842,3.4463,3.281,3.1621,2.9637,2.8281,2.729,0.0,0.0,0.0,0.0,0.0,0.0,0.0,0.0,0.0,0.0,0.0,0.0,0.0,0.0,0.0,0.0,0.0,0.0,0.0,0.0,0.0,0.0,0.0,0.0,0.0,0.0,0.0,0.0,0.0,0.0,0.0,0.0,0.0,0.0,0.0,2.7188,2.7764,2.8285,2.8641,2.8734,2.8772,2.8827,2.8864,2.8864,2.892,2.903,2.9539,2.983,2.9907,3.1428,3.2308,3.2445,3.3699,3.4757,3.5559,3.5835,3.6654,3.7945,3.8248,3.869,3.9259,3.9656,3.9805,3.9787,3.9543,3.941,3.9191,3.7644,3.738,3.7817,3.774,3.7994,3.8297,0.0,0.0,0.0,0.0,0.0,0.0,0.0,1.1825,1.2657,1.4896,1.5683,1.6948,1.9309,2.0162,2.1342,2.3303,2.3082,2.3138,2.3863,2.3607,2.3453,2.3466,2.4996,2.6721,2.8675,2.9378,3.0761,3.2906,3.3631,3.4508,3.5614,3.6511,3.7084,3.7434,3.782,3.8089,3.8152,3.7155,3.5441,3.3245,3.2128,3.087,2.9546,0.0,0.0,0.0,0.0,0.0,0.0,0.0,0.0,0.0,0.0,0.0,0.0,0.0,0.0,0.0,0.0,0.0,0.0,0.0,0.0,0.0,0.0,0.0,0.0,0.0,0.0,0.0,0.0,0.0,0.0,0.0,0.0,0.0,2.7444,2.8077,2.8598,2.8712,2.8822,2.8859,2.8859,2.9004,2.9094,2.9111,2.9128,2.9166,2.924,3.067,3.1509,3.157,3.3105,3.3951,3.3968,3.4846,3.5628,3.6387,3.7167,3.7927,3.8646,3.9501,3.991,3.9985,4.0827,4.1209,4.1157,4.0438,4.0542,4.1052,3.9534,3.8938,3.8977,3.8977,3.8955,3.8973,0.0,0.0,0.0,0.0,0.0,0.0,0.0,1.2313,1.3352,1.486,1.6278,1.7591,1.8742,2.0578,2.1965,2.2515,2.3364,2.4051,2.4395,2.4416,2.4706,2.5339,2.7296,2.8647,2.9195,3.1222,3.2656,3.3405,3.4597,3.5425,3.5933,3.708,3.7674,3.7766,3.8292,3.8618,3.8762,3.8225,3.7498,3.6496,3.4407,3.2835,3.1686,0.0,0.0,0.0,0.0,0.0,0.0,0.0,0.0,0.0,0.0,0.0,0.0,0.0,0.0,0.0,0.0,0.0,0.0,0.0,0.0,0.0,0.0,0.0,0.0,0.0,0.0,0.0,0.0,0.0,0.0,0.0,0.0,2.8903,2.8294,2.8918,2.9482,2.9563,3.007,3.0429,3.0524,3.1055,3.1436,3.1531,3.204,3.2386,3.2505,3.2915,3.316,3.3242,3.4243,3.5039,3.5638,3.6473,3.7254,3.7956,3.818,3.8681,3.9405,3.9658,4.0072,4.0648,4.099,4.1123,4.1105,4.0915,4.0949,4.1036,4.0115,4.009,4.056,4.056,4.0532,4.0475,0.0,0.0,0.0,0.0,0.0,0.0,0.0,1.2513,1.3622,1.4803,1.646,1.786,1.8791,2.0605,2.1948,2.2495,2.3426,2.414,2.4565,2.5007,2.5844,2.7185,2.8457,2.9586,3.0494,3.2269,3.3438,3.4002,3.5402,3.6221,3.6432,3.7594,3.8193,3.8288,3.877,3.9088,3.9254,3.8947,3.8741,3.8491,3.6917,3.5287,3.3782,3.3315,3.2329,3.1024,2.9978,2.9522,2.9259,2.8217,0.0,0.0,0.0,0.0,0.0,0.0,0.0,0.0,0.0,0.0,0.0,0.0,0.0,0.0,0.0,0.0,0.0,0.0,0.0,0.0,0.0,0.0,0.0,0.0,2.9951,3.0362,3.0483,3.066,3.0925,3.1328,3.179,3.2121,3.2198,3.2632,3.2948,3.3025,3.3434,3.3731,3.3833,3.4161,3.4531,3.4888,3.5683,3.6483,3.7249,3.7737,3.8341,3.906,3.906,3.9457,4.0198,4.0198,4.0463,4.0894,4.0982,4.1023,4.1023,4.1023,4.1023,0.0,0.0,0.0,0.0,0.0,4.1059,4.1023,0.0,0.0,0.0,0.0,0.0,0.0,0.0,1.253,1.3643,1.472,1.6283,1.776,1.9027,2.0246,2.1465,2.2685,2.3186,2.3794,2.4645,2.5495,2.6829,2.8712,2.8916,3.0003,3.209,3.2827,3.3696,3.463,3.6063,3.6871,3.7086,3.803,3.8575,3.8797,3.9192,3.9481,3.9651,3.9382,3.9412,3.957,3.9239,3.7775,3.5776,3.5444,3.441,3.3094,3.2595,3.2015,3.1391,3.0817,0.0,0.0,0.0,0.0,0.0,0.0,0.0,0.0,0.0,0.0,0.0,0.0,0.0,0.0,0.0,0.0,0.0,0.0,0.0,0.0,0.0,0.0,0.0,0.0,3.1231,3.18,3.3246,3.2862,3.2684,3.3339,3.3549,3.3611,3.3611,3.3816,3.3929,3.3949,3.4103,3.423,3.4297,0.0,0.0,0.0,0.0,3.7996,3.8738,3.8715,3.9094,3.9836,3.9836,4.0221,4.0912,4.0912,4.0912,4.0912,4.0912,4.0912,4.0912,4.0912,4.0912,4.0912,4.0912,4.0912,4.0912,4.0912,4.0912,4.0912,0.0,0.0,0.0,0.0,0.0,0.0,0.0,1.2687,1.3927,1.4569,1.5799,1.7023,1.8122,1.9472,2.0616,2.1388,2.2467,2.3696,2.5159,2.6009,2.7107,2.8565,2.9736,3.0959,3.2332,3.3775,3.4887,3.5567,3.6664,3.7286,3.7477,3.8008,3.8366,3.859,3.8995,3.9265,3.9481,3.9753,4.0028,4.0278,3.9818,3.8591,3.7067,3.716,3.6446,3.5289,3.4665,3.4108,3.3575,3.2874,3.1759,3.0653,3.0799,0.0,0.0,0.0,0.0,0.0,0.0,0.0,0.0,0.0,0.0,0.0,0.0,0.0,0.0,0.0,0.0,0.0,0.0,0.0,0.0,3.2694,3.2979,3.3413,3.4291,3.4397,3.4163,3.362,3.369,3.3751,3.3751,3.4318,3.474,3.484,3.5959,3.6689,3.6797,3.7521,3.7986,3.8146,3.8323,3.8732,3.9474,3.9491,3.9871,4.067,0.0,0.0,4.0912,4.0912,4.0912,4.0912,4.0912,4.0912,4.0912,4.0912,4.0912,4.0912,4.0912,4.0912,4.0912,4.0912,4.0912,4.0912,0.0,0.0,0.0,0.0,0.0,0.0,0.0,1.2722,1.3994,1.4536,1.5587,1.6628,1.7503,1.8517,1.9559,2.0617,2.2264,2.3848,2.5213,2.6123,2.7436,2.9268,3.0113,3.1258,3.2828,3.4108,3.5085,3.5816,3.6813,3.738,3.7625,3.7915,3.8217,3.8516,3.8797,3.9068,3.9265,3.9661,3.998,4.0231,4.0185,3.953,3.8544,3.8224,3.7573,3.6782,3.6258,3.5642,3.5111,3.4892,3.3893,3.2775,3.2915,3.1691,3.0121,0.0,0.0,0.0,0.0,0.0,0.0,0.0,0.0,0.0,0.0,0.0,0.0,0.0,0.0,3.1462,0.0,0.0,3.306,3.3863,3.413,3.4512,3.5245,3.5472,3.5356,3.4853,3.4924,3.5141,3.5518,3.5959,3.638,3.6823,3.7529,3.7981,3.8043,3.841,3.8767,3.9129,3.9146,3.9508,4.0284,4.0284,4.0515,4.0912,4.0912,4.0912,4.0912,4.0912,4.0912,4.0912,4.0912,4.0912,4.0912,4.0912,4.0912,4.0912,4.0912,4.0912,4.0912,4.0912,4.0912,4.0912,0.0,0.0,0.0,0.0,0.0,0.0,0.0,1.2584,1.3778,1.4318,1.5159,1.6025,1.6911,1.7508,1.8499,2.0156,2.1994,2.3697,2.511,2.6032,2.7565,2.9981,3.0254,3.1254,3.3205,3.4111,3.4934,3.5725,3.6712,3.7317,3.7534,3.7739,3.8043,3.8404,3.8649,3.887,3.9068,3.9466,3.9768,3.9945,4.0178,4.005,3.9634,3.8701,3.816,3.7782,3.737,3.6761,3.6189,3.6287,3.5474,3.4453,3.4448,3.3156,3.1497,3.1041,3.0448,0.0,0.0,0.0,0.0,0.0,0.0,0.0,0.0,0.0,3.1331,3.1368,3.2425,3.3407,3.3553,3.3723,3.4084,3.484,3.5066,3.5424,3.616,3.6367,3.6461,3.6512,3.6474,3.6724,3.7463,3.7637,3.7961,3.8543,3.8715,3.8801,3.8801,3.8957,3.9301,3.9905,3.9922,4.0233,4.0894,4.0912,4.0912,4.0912,4.0912,4.0912,4.0912,4.0912,4.0912,4.0912,4.0912,4.0912,4.0912,4.0912,4.0912,4.0912,4.0912,4.0912,4.0912,4.0912,4.0912,4.0912,0.0,0.0,0.0,0.0,0.0,0.0,0.0,0.0,1.3023,1.3555,1.3781,1.4504,1.6136,1.6489,1.7609,2.0079,2.1056,2.2582,2.5057,2.5805,2.7328,2.9981,3.0123,3.1077,3.3098,3.3899,3.473,3.5529,3.6362,3.6982,3.7341,3.7534,3.7739,3.7967,3.8366,3.8664,3.887,3.925,3.9553,3.9707,3.9436,3.9434,3.9403,3.8225,3.8044,3.8332,3.7814,3.7272,3.6726,3.6221,3.5551,3.4862,3.4437,3.3681,3.2988,3.3048,0.0,3.1989,3.1259,3.1234,0.0,3.142,3.2009,3.26,0.0,0.0,3.2894,3.3013,3.3674,3.4295,3.4512,3.5081,3.5601,3.5817,3.5981,3.6303,3.7041,3.727,3.7594,3.8227,3.7727,3.7646,3.8387,3.8474,3.8491,3.8577,3.9198,3.9577,3.9577,4.0256,4.0687,4.0774,4.0774,4.0808,4.0912,4.0912,4.0912,4.0912,4.0912,4.0912,4.0912,4.0912,4.0912,4.0912,4.0912,4.0912,4.0912,4.0912,4.0912,4.0912,4.0912,4.0912,4.0912,4.0912,4.0912,4.0912,0.0,0.0,0.0,0.0,0.0,0.0,0.0,0.0,0.0,1.3433,1.3512,1.3944,1.5029,1.5964,1.7273,1.9155,2.023,2.1759,2.3911,2.5014,2.6537,2.8658,2.9609,3.081,3.2374,3.3305,3.4094,3.4813,3.5728,3.6305,3.6612,3.7171,3.7625,3.7891,3.8217,3.8441,3.8634,3.8631,3.8755,3.8928,3.8626,3.8638,3.8668,3.7542,3.7266,3.7403,3.7056,3.6845,0.0,3.6085,3.5449,3.4866,3.4752,3.4205,3.3566,3.3339,3.3163,0.0,3.2426,0.0,0.0,0.0,3.289,3.3232,3.3262,3.3621,3.3963,3.4087,3.4636,3.5121,3.5209,3.5886,3.6469,0.0,3.7107,3.7612,3.8011,3.8089,3.8405,3.9146,3.8957,3.8888,3.9198,3.9232,3.9422,3.9911,4.0221,4.0411,4.0411,4.0722,4.0912,4.0912,4.0912,4.0912,4.0912,4.0912,4.0912,4.0912,4.0912,4.0912,4.0912,4.0912,4.0912,4.0912,4.0912,4.0912,4.0912,4.0912,4.0912,4.0912,4.0912,4.0912,4.0912,4.0912,4.0912,4.0912,0.0,0.0,0.0,0.0,0.0,0.0,0.0,0.0,0.0,0.0,1.3221,1.3481,1.4167,1.5488,1.6802,1.7968,1.9357,2.0953,2.2815,2.4131,2.5735,2.7696,2.8865,3.0167,3.1608,3.2508,3.3328,3.4043,3.4989,3.5561,3.5789,3.6467,3.6983,3.7284,3.7494,3.7717,3.796,3.7815,3.7907,3.8028,3.7545,3.7479,3.7523,3.643,3.6075,3.6149,3.6093,3.6134,3.6137,3.5616,3.5112,3.4707,3.4673,3.4291,3.3827,3.3494,3.3542,3.3667,3.3532,0.0,0.0,3.3755,3.3881,3.4006,3.4105,3.449,3.4876,3.4963,3.5508,3.5943,3.5949,3.6633,3.7234,3.7388,3.7917,3.846,3.8802,3.886,3.9135,3.9939,4.0026,4.0026,4.0026,4.0026,4.0267,4.086,4.0912,4.0912,4.0912,4.0912,4.0912,4.0912,4.0912,4.0912,4.0912,4.0912,4.0912,4.0912,4.0912,4.0912,4.0912,4.0912,4.0912,4.0912,4.0912,4.0912,4.0912,4.0912,4.0912,4.0912,4.0912,4.0912,4.0912,4.0912,4.0912,4.0912,0.0,0.0,0.0,0.0,0.0,0.0,0.0,0.0,0.0,0.0,0.0,0.0,0.0,1.4901,1.5923,1.6701,1.8338,2.0156,2.2093,2.3301,2.5088,2.7683,2.7848,2.8851,3.0998,3.1631,3.2421,3.3426,3.4245,3.4723,3.4957,3.5356,3.5636,3.5768,3.5985,3.6287,3.6672,3.6869,3.703,3.7139,3.616,3.5859,3.585,3.4714,3.4477,3.4798,3.5115,3.5244,3.5175,3.4714,3.4541,3.4425,3.3898,3.3813,0.0,3.3866,3.4168,3.4561,0.0,0.0,3.527,3.5464,3.5621,3.5749,3.5885,3.5854,3.5761,3.5761,3.6305,3.6785,3.6842,3.7466,3.8023,3.8139,3.8196,3.8493,3.9352,3.9455,3.9817,4.075,4.086,4.086,0.0,4.086,4.0877,4.0912,4.0912,4.0912,4.0912,4.0912,4.0912,4.0912,4.0912,4.0912,4.0912,4.0912,4.0912,4.0912,4.0912,4.0912,4.0912,4.0912,4.0912,4.0912,4.0912,4.0912,4.0912,4.0912,4.0912,4.0912,4.0912,4.0912,4.0912,4.0912,4.0912,4.0912,0.0,0.0,0.0,0.0,0.0,0.0,0.0,0.0,0.0,0.0,0.0,0.0,0.0,0.0,0.0,0.0,1.72,1.8535,2.0798,2.2092,2.3485,2.514,2.6861,2.8199,2.9046,3.0161,3.0942,3.1406,3.2234,3.2908,3.3512,3.4206,3.4868,3.5579,3.5711,3.5734,3.5613,3.5483,3.5295,3.5041,3.447,3.4074,3.3789,3.3128,3.2673,3.2367,0.0,3.2857,3.3641,3.2541,3.255,3.3044,3.3035,3.3377,3.3848,3.4201,3.4521,3.4828,0.0,0.0,3.5475,3.5684,3.5773,3.5839,3.5975,3.5905,3.5795,3.5795,3.5881,3.6066,3.6544,3.7276,3.8,3.8635,3.9217,3.9747,4.0107,4.0254,4.0429,4.0734,4.084,0.0,0.0,0.0,0.0,4.0912,4.0912,4.0912,4.0912,4.0912,4.0912,4.0912,4.0912,4.0912,4.0912,4.0912,4.0912,4.0912,4.0912,4.0912,4.0912,4.0912,4.0912,4.0912,4.0912,4.0912,4.0912,4.0912,4.0912,4.0912,4.0912,4.0912,4.0912,4.0912,4.0912,4.0912,0.0,0.0,0.0,0.0,0.0,0.0,0.0,0.0,0.0,0.0,0.0,0.0,0.0,0.0,0.0,0.0,0.0,1.7546,1.9786,2.0939,2.2156,2.3518,2.5424,2.676,2.7375,2.8485,2.9289,2.97,3.0521,3.1254,3.1813,3.2632,3.3417,3.415,3.4228,3.4223,3.4095,3.374,3.3489,3.3227,3.2615,3.2257,3.2038,3.1526,3.1131,0.0,3.0274,3.0897,3.1826,3.1212,3.1615,3.2393,3.2579,3.3185,3.3949,3.4497,3.4763,3.497,3.5291,3.5452,3.5588,3.5751,3.5839,3.5888,3.5975,3.5844,3.5728,3.5728,3.5791,3.5944,3.6374,3.7321,3.8227,3.883,3.9614,4.0213,4.0412,4.0485,4.06,4.0697,4.0769,4.084,0.0,0.0,0.0,4.0912,4.0912,4.0912,4.0912,4.0912,4.0912,4.0912,4.0912,4.0912,4.0912,4.0912,4.0912,4.0912,4.0912,4.0912,4.0912,4.0912,4.0912,4.0912,4.0912,4.0912,4.0912,4.0912,4.0912,4.0912,4.0912,4.0912,4.0912,4.0912,4.0912,4.0912,0.0,0.0,0.0,0.0,0.0,0.0,0.0,0.0,0.0,0.0,0.0,0.0,0.0,0.0,0.0,0.0,0.0,0.0,1.9038,1.9811,2.1003,2.2762,2.3579,2.4633,2.5933,2.6671,2.7461,2.8271,2.9171,2.9714,2.9914,3.0693,3.125,3.1575,3.1622,3.1789,3.2101,3.1666,3.1623,3.175,3.0642,3.0362,3.0561,2.9897,2.9784,2.9898,2.9256,2.9308,2.9808,3.0613,3.1586,0.0,3.2561,3.3317,3.425,3.4739,3.4923,3.5018,3.54,3.5566,3.5622,3.5773,3.5905,3.5997,3.5975,3.5778,3.56,3.5577,3.5973,3.6329,0.0,0.0,3.8531,3.8748,3.9379,3.9952,4.0255,4.0305,4.0404,0.0,0.0,0.0,0.0,0.0,0.0,4.0912,0.0,4.0912,4.0912,4.0912,4.0912,4.0912,4.0912,4.0912,4.0912,4.0912,4.0912,4.0912,4.0912,4.0912,4.0912,4.0912,4.0912,4.0912,4.0912,4.0912,4.0912,4.0912,4.0912,4.0912,4.0912,4.0912,4.0912,4.0912,4.0912,4.0912,0.0,0.0,0.0,0.0,0.0,0.0,0.0,0.0,0.0,0.0,0.0,0.0,0.0,0.0,0.0,0.0,0.0,0.0,1.7042,1.8242,1.9493,2.0939,2.2066,2.3158,2.4149,2.4906,2.5627,2.6398,2.6728,2.7455,2.8514,2.8809,2.9317,3.0017,3.0238,3.0187,2.9915,2.9937,2.9857,2.9634,2.8937,2.8506,2.8226,2.773,2.737,2.7067,2.6986,2.7527,0.0,0.0,0.0,0.0,0.0,3.4153,3.4715,3.4875,3.5111,3.5377,3.5469,3.5566,3.5622,3.5773,3.5817,3.5839,3.5711,3.5644,3.5532,3.5274,3.5261,3.5402,0.0,0.0,0.0,3.816,3.8765,0.0,3.9919,4.0163,0.0,0.0,0.0,4.0745,4.0888,4.0912,0.0,0.0,4.0912,4.0912,4.0912,4.0912,4.0912,4.0912,4.0912,4.0912,4.0912,4.0912,4.0912,4.0912,4.0912,4.0912,4.0912,4.0912,4.0912,4.0912,4.0912,4.0912,4.0912,4.0912,4.0912,4.0912,4.0912,4.0912,4.0912,4.0912,4.0912,4.0912,0.0,0.0,0.0,0.0,0.0,0.0,0.0,0.0,0.0,0.0,0.0,0.0,0.0,0.0,0.0,0.0,0.0,0.0,0.0,1.7428,1.8499,1.9502,2.0514,2.1446,2.226,2.3016,2.3739,2.4424,2.4907,2.5552,2.6425,2.6831,2.7282,2.7795,2.8032,2.8009,2.7769,2.7668,2.7586,0.0,0.0,2.6712,2.6505,2.6342,2.6118,2.594,2.6054,0.0,0.0,0.0,0.0,3.2087,3.3746,3.4546,3.4923,3.5041,0.0,3.5514,3.5543,3.5616,3.5689,3.5706,3.5711,3.5667,3.5571,3.5435,3.5151,3.4625,3.4348,0.0,0.0,0.0,0.0,0.0,0.0,0.0,3.932,3.9834,4.0213,0.0,4.0558,0.0,4.0871,4.0912,4.0912,0.0,4.0912,4.0912,4.0912,4.0912,4.0912,4.0912,4.0912,4.0912,4.0912,4.0912,4.0912,4.0912,4.0912,4.0912,4.0912,4.0912,4.0912,4.0912,0.0,4.0912,4.0912,4.0912,4.0912,4.0912,4.0912,4.0912,4.0912,4.0912,4.0912,4.0912,0.0,0.0,0.0,0.0,0.0,0.0,0.0,0.0,0.0,0.0,0.0,0.0,0.0,0.0,0.0,0.0,0.0,0.0,0.0,0.0,1.7785,1.8452,1.9055,1.9716,2.0463,2.1187,2.1859,2.2471,2.3245,2.3742,2.4011,2.4777,2.5204,2.5312,2.5558,2.5735,2.5841,2.546,2.5422,2.5629,2.5218,2.5121,2.5239,0.0,2.5407,2.5583,2.5933,0.0,0.0,0.0,3.1598,3.2151,3.3941,3.4707,3.4994,3.5222,3.5383,3.552,3.5577,3.5689,3.5751,3.5622,3.56,3.5571,3.5469,3.5091,3.4544,3.3852,0.0,3.3126,3.3174,0.0,3.4546,3.5596,0.0,3.8218,3.8681,3.943,4.0037,4.0436,4.0485,4.0607,4.0864,4.0888,4.0912,4.0912,4.0912,4.0912,4.0912,4.0912,4.0912,4.0912,4.0912,4.0912,4.0912,4.0912,4.0912,4.0912,4.0912,4.0912,4.0912,4.0912,4.0912,4.0912,4.0912,4.0912,4.0912,4.0912,4.0912,4.0912,4.0912,4.0912,4.0912,4.0912,4.0912,4.0912,0.0,0.0,0.0,0.0,0.0,0.0,0.0,0.0,0.0,0.0,1.3348,0.0,0.0,0.0,0.0,0.0,0.0,0.0,0.0,0.0,0.0,1.7827,1.8064,1.8568,1.9364,1.9608,2.0094,2.0818,2.1029,2.141,2.1947,2.2798,2.3213,2.3252,2.4061,2.4493,2.4606,2.4633,2.474,2.4856,2.4455,2.4355,2.4359,2.4,0.0,0.0,0.0,0.0,0.0,0.0,3.1197,3.2253,3.3966,3.4851,3.5245,3.5291,3.5435,3.5577,3.56,3.5622,3.5622,3.56,3.5549,3.5452,3.5222,3.4552,0.0,0.0,0.0,3.2165,3.1951,3.2595,0.0,3.4357,0.0,0.0,0.0,0.0,4.0003,0.0,0.0,0.0,0.0,0.0,0.0,0.0,0.0,4.0912,4.0912,4.0912,4.0912,4.0912,4.0912,4.0912,4.0912,4.0912,4.0912,4.0912,4.0912,4.0912,4.0912,4.0912,4.0912,4.0912,4.0912,0.0,4.0912,4.0912,4.0912,4.0912,4.0912,4.0912,4.0912,4.0912,4.0912,4.0998,0.0,0.0,0.0,0.0,0.0,0.0,0.0,0.0,0.0,0.0,1.5016,1.4819,0.0,0.0,0.0,0.0,0.0,0.0,0.0,0.0,0.0,0.0,0.0,0.0,1.8622,1.8835,0.0,0.0,0.0,2.022,2.0528,0.0,0.0,2.131,2.1909,2.2203,2.2273,2.2443,2.2558,2.2663,2.2971,2.315,0.0,0.0,0.0,0.0,0.0,0.0,0.0,0.0,3.0392,3.1492,3.3346,3.4449,3.5105,3.5175,3.5344,3.5543,3.5543,3.5571,3.5577,3.5549,3.5475,3.523,3.4582,0.0,0.0,0.0,0.0,3.1054,3.1007,0.0,0.0,0.0,0.0,0.0,0.0,0.0,0.0,0.0,0.0,0.0,0.0,0.0,0.0,0.0,0.0,4.0912,4.0912,4.0912,4.0912,4.0912,4.0912,4.0912,4.0912,4.0912,4.0912,4.0912,4.0912,4.0912,4.0912,4.0912,4.0912,4.0912,4.0912,0.0,4.0912,4.0912,4.0912,4.0912,4.0912,4.0912,4.0912,4.0912,4.1153,4.1533,0.0,0.0,0.0,0.0,0.0,0.0,0.0,1.4626,1.5429,1.5843,1.6325,1.605,1.4603,1.4409,1.4408,0.0,0.0,0.0,0.0,0.0,0.0,0.0,0.0,0.0,0.0,0.0,0.0,0.0,0.0,0.0,0.0,0.0,0.0,0.0,0.0,0.0,2.0429,2.0628,2.0719,0.0,0.0,0.0,0.0,0.0,0.0,0.0,0.0,0.0,0.0,0.0,2.9397,3.0386,3.2205,3.3618,3.4636,3.4968,3.5222,3.5423,3.5446,3.5498,3.5526,3.5452,3.5314,3.4951,3.3972,3.3372,0.0,0.0,3.0233,2.9809,3.0022,0.0,0.0,0.0,0.0,0.0,0.0,0.0,0.0,0.0,0.0,0.0,0.0,0.0,0.0,0.0,0.0,0.0,4.0912,4.0912,4.0912,4.0912,4.0912,4.0912,4.0912,4.0912,4.0912,4.0912,4.0912,4.0912,4.0912,4.0912,4.0912,4.0912,4.0912,0.0,0.0,4.0912,4.0912,4.0912,4.0912,4.0912,4.0929,4.1084,4.1516,4.205,0.0,0.0,0.0,0.0,0.0,0.0,0.0,1.5177,1.5843,1.5889,1.6313,1.6568,1.6519,1.6185,1.589,0.0,0.0,0.0,0.0,0.0,0.0,0.0,0.0,0.0,0.0,0.0,0.0,0.0,0.0,0.0,0.0,0.0,0.0,0.0,0.0,0.0,0.0,2.0635,0.0,0.0,0.0,0.0,0.0,0.0,0.0,0.0,0.0,0.0,0.0,0.0,0.0,2.9171,3.0455,3.2082,3.3714,3.4636,0.0,0.0,3.5291,3.5314,3.5314,3.5314,3.5128,3.4677,3.3738,0.0,0.0,3.0513,2.9215,2.8444,2.8873,2.8944,2.9461,0.0,0.0,0.0,0.0,0.0,0.0,0.0,0.0,0.0,0.0,0.0,0.0,0.0,0.0,0.0,4.0912,4.0912,4.0912,4.0912,4.0912,4.0912,4.0912,4.0912,4.0912,4.0912,4.0912,4.0912,4.0912,4.0912,4.0912,4.0912,4.0912,0.0,0.0,4.0912,4.0912,4.0912,4.0912,4.0912,4.0981,4.1654,4.1947,4.2206,0.0,0.0,0.0,0.0,0.0,0.0,0.0,1.551,1.6312,1.6325,1.7113,1.761,1.7438,1.7118,1.6741,0.0,0.0,0.0,0.0,0.0,0.0,0.0,0.0,0.0,0.0,0.0,0.0,0.0,0.0,0.0,0.0,0.0,0.0,0.0,0.0,0.0,0.0,0.0,0.0,0.0,0.0,0.0,0.0,0.0,0.0,0.0,0.0,0.0,0.0,0.0,0.0,0.0,2.9163,3.0307,0.0,0.0,3.4314,3.478,3.4899,3.4994,3.5041,3.497,3.4504,3.3851,3.2831,0.0,0.0,2.9245,2.833,2.771,2.7463,2.779,2.8404,2.9475,0.0,0.0,0.0,0.0,0.0,0.0,0.0,0.0,0.0,0.0,0.0,0.0,0.0,0.0,4.0912,4.0912,4.0912,4.0912,4.0912,4.0912,4.0912,4.0912,4.0912,4.0912,4.0912,4.0912,4.0912,4.0912,4.0912,4.0912,4.0912,0.0,0.0,4.0912,4.0912,4.0912,4.0912,4.0912,4.0998,4.174,4.2309,4.2879,0.0,0.0,0.0,0.0,0.0,0.0,1.4703,1.5777,1.6479,1.6479,1.7368,1.7906,1.7698,1.7373,1.7074,1.6839,0.0,0.0,0.0,0.0,0.0,0.0,0.0,0.0,0.0,0.0,1.8488,1.9038,1.9216,0.0,0.0,0.0,0.0,0.0,0.0,0.0,0.0,0.0,0.0,0.0,0.0,0.0,0.0,0.0,0.0,0.0,0.0,0.0,0.0,0.0,0.0,0.0,0.0,0.0,0.0,0.0,3.3348,3.4015,3.4186,3.443,3.4593,3.4307,3.3816,3.3076,0.0,0.0,2.9749,2.8264,2.7429,2.6876,2.6499,2.687,2.7527,2.8457,0.0,3.174,0.0,0.0,0.0,0.0,0.0,0.0,0.0,0.0,0.0,0.0,0.0,0.0,4.0912,4.0912,4.0912,4.0912,4.0912,4.0912,4.0912,4.0912,4.0912,4.0912,4.0912,4.0912,4.0912,4.0912,4.0912,4.0912,4.0912,0.0,0.0,4.0912,4.0912,4.0912,4.0912,4.1032,4.1326,4.2085,4.2844,4.3638,0.0,0.0,0.0,0.0,0.0,0.0,0.0,1.5892,1.6209,1.6209,1.669,1.7106,1.7375,1.6931,1.6792,1.7247,0.0,0.0,0.0,0.0,0.0,0.0,0.0,0.0,0.0,0.0,1.9024,1.91,1.9694,2.0063,2.0193,0.0,0.0,0.0,0.0,0.0,0.0,0.0,0.0,0.0,0.0,0.0,0.0,0.0,0.0,0.0,0.0,0.0,0.0,0.0,0.0,0.0,0.0,0.0,2.8669,0.0,3.2127,3.2794,3.3048,3.3616,3.3964,3.3275,3.3024,3.2482,0.0,0.0,2.8917,2.7844,2.6494,2.5669,2.6195,2.6364,2.6895,2.8356,2.9951,0.0,0.0,0.0,0.0,0.0,0.0,0.0,0.0,0.0,0.0,0.0,0.0,0.0,4.0912,4.0912,4.0912,4.0912,4.0912,4.0912,4.0912,4.0912,4.0912,4.0912,4.0912,4.0912,4.0912,4.0912,4.0912,4.0912,0.0,0.0,0.0,4.0912,4.0912,4.0912,4.0912,4.136,4.2102,4.2896,4.3655,4.4397,0.0,0.0,0.0,0.0,0.0,0.0,0.0,1.5715,1.6197,1.6197,1.6823,1.7314,1.7387,1.7167,1.7103,1.727,0.0,0.0,0.0,0.0,0.0,0.0,0.0,0.0,0.0,0.0,1.9522,2.0462,2.0657,2.103,2.1571,2.1245,2.1129,0.0,0.0,0.0,0.0,0.0,0.0,0.0,0.0,0.0,0.0,0.0,0.0,0.0,0.0,0.0,0.0,0.0,0.0,0.0,0.0,0.0,0.0,2.8193,2.9922,0.0,3.1731,3.2013,3.2174,3.1877,3.1478,3.0991,3.0307,0.0,2.7912,2.7029,2.6066,2.5284,2.4995,2.5696,2.6488,2.7018,2.9237,0.0,0.0,0.0,0.0,0.0,0.0,0.0,0.0,0.0,0.0,0.0,0.0,0.0,4.0912,4.0912,4.0912,4.0912,4.0912,4.0912,4.0912,4.0912,4.0912,4.0912,4.0912,4.0912,4.0912,4.0912,4.0912,0.0,0.0,0.0,0.0,4.0912,4.0912,4.0963,4.1464,4.1809,4.2171,4.3465,4.4104,4.4414,0.0,0.0,0.0,0.0,0.0,0.0,0.0,1.5433,1.5886,1.6111,1.6606,1.6963,1.7021,1.6969,1.6982,1.7147,0.0,0.0,0.0,0.0,0.0,0.0,0.0,0.0,0.0,1.9384,2.0156,2.1517,2.1787,2.2292,2.2969,2.2493,2.2264,2.2304,2.1484,0.0,0.0,0.0,0.0,0.0,0.0,0.0,1.9632,0.0,0.0,0.0,0.0,0.0,0.0,0.0,0.0,0.0,0.0,0.0,0.0,0.0,2.7922,2.9469,0.0,3.0872,3.1088,3.0746,3.0416,0.0,0.0,0.0,2.7014,2.6205,2.5438,2.4866,2.4697,2.5558,2.648,2.7057,2.9211,0.0,0.0,0.0,0.0,0.0,0.0,0.0,0.0,0.0,0.0,0.0,0.0,0.0,4.0912,4.0912,4.0912,4.0912,4.0912,4.0912,4.0912,4.0912,4.0912,4.0912,4.0912,4.0912,4.0912,4.0912,4.0912,0.0,0.0,0.0,0.0,4.0912,4.1067,4.136,4.1826,4.2378,4.2982,4.3949,4.4483,4.4785,0.0,0.0,0.0,0.0,0.0,0.0,0.0,0.0,0.0,0.0,1.6083,1.6238,1.6392,1.6479,1.6629,0.0,0.0,0.0,0.0,0.0,0.0,0.0,0.0,0.0,1.9363,1.9963,2.0929,2.2264,2.296,2.3656,2.4305,2.3816,2.3636,2.3668,2.2486,2.1685,2.1137,0.0,0.0,0.0,0.0,0.0,0.0,0.0,0.0,0.0,0.0,0.0,0.0,0.0,0.0,0.0,0.0,0.0,0.0,0.0,0.0,0.0,0.0,2.9987,0.0,0.0,0.0,0.0,0.0,0.0,0.0,2.5456,2.4789,2.4543,2.5189,2.5927,2.688,2.8196,0.0,0.0,0.0,0.0,0.0,0.0,0.0,0.0,0.0,0.0,0.0,0.0,0.0,0.0,4.0912,4.0912,4.0912,4.0912,4.0912,4.0912,4.0912,4.0912,4.0912,4.0912,4.0912,4.0912,4.0912,4.0912,4.0912,0.0,0.0,0.0,0.0,4.0912,4.1343,4.2016,4.2068,4.3,4.4311,4.4363,4.482,4.5397,0.0,0.0,0.0,0.0,0.0,0.0,0.0,0.0,0.0,0.0,1.5686,1.5994,1.6429,1.6671,1.6897,0.0,0.0,0.0,0.0,0.0,0.0,0.0,0.0,0.0,1.997,2.0672,2.1696,2.3031,2.322,2.3705,2.4444,2.4425,2.4226,2.3853,2.3655,2.2776,2.1395,2.0571,0.0,0.0,0.0,0.0,0.0,0.0,0.0,0.0,2.0468,2.1141,0.0,0.0,0.0,0.0,0.0,0.0,0.0,0.0,2.507,2.5591,2.707,0.0,2.8762,2.8633,2.8636,2.8508,0.0,0.0,0.0,0.0,0.0,2.5096,2.5266,2.6726,2.8051,2.8479,0.0,0.0,0.0,0.0,0.0,0.0,0.0,0.0,0.0,0.0,0.0,0.0,0.0,4.0912,4.0912,4.0912,4.0912,4.0912,4.0912,4.0912,4.0912,4.0912,4.0912,4.0912,4.0912,4.0912,4.0912,4.0912,4.0912,0.0,0.0,0.0,4.0912,4.0912,4.1343,4.2068,4.2689,4.3483,4.438,4.4941,4.5242,4.5397,0.0,0.0,0.0,0.0,0.0,0.0,0.0,0.0,0.0,0.0,0.0,0.0,0.0,0.0,0.0,0.0,0.0,0.0,0.0,0.0,0.0,0.0,0.0,1.9642,2.0308,2.1296,2.2484,2.3843,2.4187,2.4733,2.5414,2.5329,2.5135,2.4815,2.4126,2.295,2.1455,2.0846,2.0251,0.0,1.9744,0.0,0.0,0.0,0.0,0.0,2.0127,2.0677,0.0,2.2029,2.2673,2.3236,0.0,0.0,0.0,0.0,2.4417,2.495,2.6042,2.6979,2.774,2.811,2.8235,2.8154,2.755,0.0,0.0,0.0,0.0,2.6053,2.6701,2.7767,0.0,0.0,0.0,0.0,0.0,0.0,0.0,0.0,0.0,0.0,0.0,0.0,0.0,0.0,0.0,4.0912,4.0912,4.0912,4.0912,4.0912,4.0912,4.0912,4.0912,4.0912,4.0912,4.0912,4.0912,4.0912,4.0912,4.0912,4.0912,0.0,0.0,0.0,4.0929,4.1274,4.1861,4.2637,4.3396,4.4173,4.4854,4.5242,4.5397,4.5397,0.0,0.0,0.0,0.0,0.0,0.0,0.0,0.0,0.0,0.0,0.0,0.0,0.0,0.0,0.0,0.0,0.0,0.0,0.0,0.0,0.0,0.0,1.9132,1.9845,2.0635,2.1897,2.3312,2.4819,2.5448,2.6145,2.6864,2.6476,2.6151,2.5849,2.4333,2.2884,2.1515,2.1077,2.0464,1.983,1.983,0.0,0.0,0.0,0.0,0.0,0.0,0.0,0.0,2.1389,2.2114,2.2834,2.3359,0.0,0.0,0.0,0.0,0.0,2.5598,2.6334,2.7074,2.7963,2.821,2.8066,2.755,0.0,0.0,0.0,0.0,0.0,0.0,2.9169,0.0,0.0,0.0,0.0,0.0,0.0,0.0,0.0,0.0,0.0,0.0,0.0,0.0,0.0,0.0,4.0912,4.0912,4.0912,4.0912,4.0912,4.0912,4.0912,4.0912,4.0912,4.0912,4.0912,4.0912,4.0912,4.0912,4.0912,4.0912,4.0912,0.0,0.0,4.1119,4.1757,4.2551,4.3431,4.4069,4.4751,4.5397,4.5397,4.5397,4.5397,0.0,0.0,0.0,0.0,0.0,0.0,0.0,0.0,0.0,0.0,0.0,0.0,0.0,0.0,0.0,0.0,0.0,0.0,0.0,0.0,0.0,1.9363,1.9985,2.0649,2.1338,2.2642,2.429,2.628,2.6393,2.7161,2.8526,2.791,2.6843,2.5468,2.4737,2.343,2.1748,2.1678,2.0982,1.997,1.997,0.0,0.0,0.0,0.0,0.0,0.0,0.0,0.0,2.1057,2.1925,2.297,2.3061,0.0,0.0,0.0,0.0,0.0,2.5637,2.6046,2.6473,2.7856,2.821,2.8091,2.7674,0.0,0.0,0.0,0.0,0.0,0.0,0.0,0.0,0.0,0.0,0.0,0.0,0.0,0.0,0.0,0.0,0.0,0.0,0.0,0.0,0.0,0.0,4.0912,4.0912,4.0912,4.0912,4.0912,4.0912,4.0912,4.0912,4.0912,4.0912,4.0912,4.0912,4.0912,4.0912,4.0912,4.0912,4.0912,0.0,4.1257,4.1843,4.1964,4.2844,4.4138,4.4259,4.4751,4.5397,4.5397,4.5397,4.5423,0.0,0.0,0.0,0.0,0.0,0.0,0.0,0.0,0.0,0.0,0.0,0.0,0.0,0.0,0.0,0.0,0.0,0.0,0.0,0.0,1.875,1.9579,2.0328,2.1176,2.2179,2.3478,2.4998,2.67,2.7048,2.7779,2.8874,2.838,2.7221,2.5491,2.5323,2.3973,2.1788,2.1881,2.1186,2.0045,0.0,0.0,0.0,0.0,0.0,0.0,0.0,0.0,0.0,0.0,2.1645,2.251,2.2894,0.0,0.0,0.0,0.0,0.0,2.5712,2.61,2.6558,2.8464,2.8895,2.8818,2.8704,0.0,0.0,0.0,0.0,0.0,0.0,0.0,0.0,0.0,0.0,0.0,0.0,0.0,0.0,0.0,0.0,0.0,0.0,0.0,0.0,0.0,0.0,0.0,4.0912,4.0912,4.0912,4.0912,4.0912,4.0912,4.0912,4.0912,4.0912,4.0912,4.0912,4.0912,4.0912,4.0912,4.0912,4.0929,0.0,4.1705,4.2068,4.2913,4.3672,4.4345,4.4734,4.5113,4.5397,4.5476,4.5502,4.5554,0.0,0.0,0.0,0.0,0.0,0.0,0.0,0.0,0.0,0.0,0.0,0.0,0.0,0.0,0.0,0.0,0.0,0.0,0.0,0.0,1.9089,1.9833,2.0811,2.1874,2.2999,2.4283,2.5716,2.7256,2.7895,2.8471,2.9,2.8625,2.7414,2.56,2.5581,2.4189,2.1847,2.1979,2.1298,2.015,0.0,0.0,0.0,0.0,0.0,0.0,0.0,0.0,0.0,0.0,0.0,0.0,0.0,0.0,0.0,2.4067,2.4067,2.4377,2.5862,2.6274,2.6819,2.9036,2.9506,2.9537,2.9906,3.0667,0.0,0.0,0.0,0.0,0.0,0.0,0.0,0.0,0.0,0.0,0.0,0.0,0.0,0.0,0.0,0.0,0.0,0.0,0.0,0.0,0.0,0.0,4.0912,4.0912,4.0912,4.0912,4.0912,4.0912,4.0912,4.0912,4.0912,4.0912,4.0912,4.0912,4.0912,4.0912,4.0998,4.1205,4.1733,4.2181,4.2637,4.381,4.4397,4.4596,4.5173,4.5397,4.5423,4.5554,4.5632,4.5667,0.0,0.0,0.0,0.0,0.0,0.0,0.0,0.0,0.0,0.0,0.0,0.0,0.0,0.0,0.0,0.0,0.0,0.0,0.0,0.0,1.9847,2.0577,2.193,2.2962,2.3625,2.5017,2.6649,2.8564,2.936,2.9588,2.9262,2.8785,2.753,2.5585,2.51,2.3809,2.1994,2.206,2.1375,2.0287,2.0287,0.0,0.0,0.0,0.0,0.0,0.0,0.0,0.0,0.0,0.0,0.0,0.0,0.0,2.4281,2.4281,2.4281,2.4589,2.601,2.6439,2.6993,2.9069,2.9596,2.985,3.0856,3.1665,0.0,3.3574,0.0,0.0,0.0,0.0,0.0,0.0,0.0,0.0,0.0,0.0,0.0,0.0,0.0,0.0,0.0,0.0,0.0,0.0,0.0,0.0,4.0912,4.0912,4.0912,4.0912,4.0912,4.0912,4.0912,4.0912,4.0912,4.0912,4.0912,4.0912,4.0912,4.0912,4.1274,4.1905,4.1999,4.281,4.4138,4.4259,4.4699,4.5328,4.538,4.5397,4.5423,4.5554,4.5667,4.5812,0.0,0.0,0.0,0.0,0.0,0.0,0.0,0.0,0.0,0.0,0.0,0.0,0.0,0.0,0.0,0.0,0.0,0.0,0.0,1.9293,2.0041,2.0788,2.1766,2.2952,2.4346,2.5303,2.6762,2.8709,2.9592,2.9733,2.9165,2.8353,2.7126,2.5585,2.5055,2.399,2.2606,2.2243,2.1639,2.0888,2.0474,2.0304,0.0,0.0,0.0,0.0,0.0,0.0,0.0,0.0,2.1097,2.1986,2.2391,2.313,2.3945,2.4318,2.473,2.5234,2.6183,2.7109,2.8217,3.002,3.1193,3.2002,3.2408,3.3335,3.4356,3.5263,3.6179,0.0,0.0,0.0,0.0,0.0,0.0,0.0,0.0,0.0,0.0,0.0,0.0,0.0,0.0,0.0,0.0,0.0,0.0,0.0,4.0912,4.0912,4.0912,4.0912,4.0912,4.0912,4.0912,4.0912,4.0912,4.0912,4.0912,4.0912,4.0929,4.1378,4.1757,4.2043,4.3017,4.3759,4.4345,4.4785,4.5139,4.5397,4.5397,4.545,4.5554,4.5667,4.5795,4.5947,0.0,0.0,0.0,0.0,0.0,0.0,0.0,0.0,0.0,0.0,0.0,0.0,0.0,0.0,0.0,0.0,0.0,0.0,1.8692,1.9612,2.0378,2.0886,2.199,2.3209,2.4491,2.5357,2.6634,2.8376,2.927,2.9423,2.8855,2.7735,2.6628,2.557,2.4815,2.3936,2.297,2.2578,2.1976,2.1257,2.0795,2.0489,0.0,0.0,0.0,0.0,0.0,0.0,0.0,0.0,2.1045,2.1748,2.2423,2.3092,2.3721,2.4342,2.502,2.5724,2.6377,2.7634,2.9091,3.0656,3.2244,3.3572,3.4123,3.5096,3.6058,3.6747,3.7762,0.0,0.0,0.0,0.0,0.0,0.0,0.0,0.0,0.0,0.0,0.0,0.0,0.0,0.0,0.0,0.0,0.0,0.0,0.0,0.0,4.0912,4.0912,4.0912,4.0912,4.0912,4.0912,4.0912,4.0912,4.0912,4.0912,4.0912,4.0929,4.1671,4.2154,4.2465,4.3741,4.4432,4.4682,4.5173,4.5397,4.5397,4.5397,4.5476,4.5632,4.5744,4.5871,4.6023,0.0,0.0,0.0,0.0,0.0,0.0,0.0,0.0,0.0,0.0,0.0,0.0,0.0,0.0,0.0,0.0,0.0,0.0,1.8692,2.0093,2.0901,2.0901,2.2815,2.3876,2.3891,2.5149,2.6416,2.7695,2.8499,2.8704,2.8378,2.703,2.6113,2.5555,2.4334,2.3498,2.3016,2.3066,2.2405,2.1319,2.1304,2.0888,2.032,0.0,0.0,0.0,0.0,0.0,0.0,0.0,2.1148,2.1806,2.2483,2.3114,2.3725,2.4407,2.5113,2.5873,2.6539,2.7847,2.936,3.0844,0.0,0.0,3.592,3.6816,3.7465,3.81,3.902,3.9703,3.9703,0.0,0.0,0.0,0.0,0.0,0.0,0.0,0.0,0.0,0.0,0.0,0.0,0.0,0.0,0.0,0.0,0.0,0.0,4.0912,4.0912,4.0912,4.0912,4.0912,4.0912,4.0912,4.0912,4.0912,4.0912,4.0912,4.0946,4.1671,4.2465,4.3241,4.3983,4.4716,4.5397,4.5397,4.5397,4.5397,4.5397,4.5476,4.5632,4.5744,4.5871,4.6023,0.0,0.0,0.0,0.0,0.0,0.0,0.0,0.0,0.0,0.0,0.0,0.0,0.0,0.0,0.0,0.0,0.0,0.0,1.876,2.0099,2.0928,2.0961,2.2403,2.3426,2.3876,2.4704,2.5941,2.7695,2.8033,2.8182,2.8163,2.6954,2.6113,2.557,2.4739,2.4122,2.3684,2.3219,2.2913,2.2609,2.1673,2.118,2.0967,0.0,0.0,0.0,0.0,0.0,0.0,0.0,0.0,0.0,2.1913,2.2589,2.323,2.3842,2.5237,2.6679,2.7353,2.8951,0.0,3.2415,0.0,0.0,0.0,3.7513,0.0,0.0,3.963,3.9901,4.0104,0.0,0.0,0.0,0.0,0.0,0.0,0.0,0.0,0.0,0.0,0.0,0.0,0.0,0.0,0.0,0.0,0.0,0.0,4.0912,4.0912,4.0912,4.0912,4.0912,4.0912,4.0912,4.0912,4.0912,4.0912,4.117,4.1705,4.2499,4.3258,4.4018,4.4751,4.519,4.5397,4.5397,4.5397,4.5397,4.5397,4.5554,4.5761,4.5787,4.5947,4.6147,0.0,0.0,0.0,0.0,0.0,0.0,0.0,0.0,0.0,0.0,1.7693,0.0,0.0,0.0,0.0,0.0,0.0,0.0,0.0,2.0166,2.0955,2.1003,2.2229,2.3215,2.3876,2.4268,2.5129,2.655,2.6614,2.6875,2.7239,2.6347,2.5922,2.5878,2.5,2.4492,2.4282,2.3663,2.3173,2.2766,2.2009,2.1381,2.0875,0.0,0.0,0.0,0.0,0.0,0.0,0.0,0.0,0.0,2.1663,2.236,2.3022,2.3642,2.5323,2.7117,2.78,2.9517,0.0,3.3163,3.4697,3.6221,3.7802,0.0,0.0,0.0,0.0,4.0054,0.0,0.0,0.0,0.0,0.0,0.0,0.0,0.0,0.0,0.0,0.0,0.0,0.0,0.0,0.0,0.0,0.0,0.0,0.0,4.0912,4.0912,4.0912,4.0912,4.0912,4.0912,4.0912,4.0912,4.0912,4.0912,4.1447,4.2499,4.2982,4.3603,4.4345,4.5096,4.5397,4.5397,4.5397,4.5397,4.5397,4.5397,4.5563,4.5795,4.5795,4.5972,4.6196,0.0,0.0,0.0,0.0,0.0,0.0,0.0,0.0,0.0,0.0,1.7787,1.8042,0.0,0.0,0.0,0.0,0.0,0.0,0.0,0.0,2.1003,2.1003,2.2229,2.3186,2.3789,2.3804,2.4094,2.4636,2.4728,2.5218,2.5994,2.5502,2.5667,2.6352,2.5193,2.471,2.4754,2.4228,2.33,2.2194,2.2263,2.1535,2.0397,2.0474,0.0,0.0,0.0,0.0,0.0,0.0,0.0,0.0,2.1601,2.2283,2.2946,2.3623,2.5329,2.7162,2.7889,2.9627,0.0,3.3345,3.4947,0.0,3.8548,3.9345,3.9703,0.0,0.0,0.0,0.0,0.0,0.0,0.0,0.0,0.0,0.0,0.0,0.0,0.0,0.0,0.0,0.0,0.0,0.0,0.0,0.0,0.0,0.0,4.0847,4.0847,4.0847,4.0847,4.0847,4.0847,4.0847,4.0847,4.0847,4.094,4.175,4.3164,4.3189,4.3638,4.4449,4.5113,4.5397,4.5397,4.5397,4.5397,4.5397,4.5397,4.5563,4.5795,4.5795,4.5972,4.6196,0.0,0.0,0.0,0.0,0.0,0.0,0.0,0.0,0.0,0.0,0.0,0.0,0.0,0.0,0.0,0.0,0.0,0.0,0.0,0.0,2.1003,2.1003,2.2229,2.2983,2.3113,2.3128,2.3186,2.3308,2.4317,2.5218,2.5994,2.5873,2.6036,2.6367,2.5583,2.506,2.4754,2.4228,2.3559,2.2851,2.2463,2.1812,2.1044,2.0645,2.051,0.0,0.0,0.0,0.0,0.0,0.0,0.0,2.1197,2.1689,2.2321,2.2988,2.4645,2.6514,2.7762,2.9627,0.0,0.0,3.6287,3.817,3.8849,3.9202,0.0,0.0,0.0,0.0,0.0,0.0,0.0,0.0,0.0,0.0,0.0,0.0,0.0,0.0,0.0,0.0,0.0,0.0,0.0,0.0,0.0,0.0,4.0583,4.0583,4.0583,4.0583,4.0583,4.0583,4.0583,4.0583,4.0583,0.0,4.128,4.2102,4.3056,4.3156,4.3931,4.5156,4.5328,4.5397,4.5397,4.5397,4.5397,4.5397,4.5397,4.5563,4.5795,4.5795,4.5972,4.6196,0.0,0.0,0.0,0.0,0.0,0.0,0.0,0.0,0.0,0.0,0.0,0.0,0.0,0.0,0.0,0.0,0.0,0.0,0.0,0.0,2.0843,2.1452,2.2098,2.2606,2.2888,2.262,2.262,2.2888,2.3882,2.4742,2.5471,2.5837,2.626,2.6665,2.6125,2.5577,2.5061,2.458,2.3688,2.2543,2.2294,2.1649,2.0798,2.0583,2.051,2.0527,2.0728,0.0,0.0,0.0,0.0,0.0,0.0,0.0,2.2169,2.2819,2.4208,2.5939,2.7642,0.0,0.0,3.4531,0.0,3.8204,3.8684,0.0,0.0,0.0,0.0,0.0,0.0,0.0,0.0,0.0,0.0,0.0,0.0,0.0,0.0,0.0,0.0,0.0,0.0,0.0,0.0,0.0,0.0,4.051,4.051,4.051,4.051,4.051,4.051,4.051,4.051,4.051,4.051,4.051,4.0952,4.1814,4.3039,4.3872,4.4682,4.5397,4.5397,4.5397,4.5397,4.5397,4.5397,4.5397,4.5397,4.5563,4.5795,4.5795,4.5972,4.6267,0.0,0.0,0.0,0.0,0.0,0.0,0.0,0.0,0.0,0.0,0.0,0.0,0.0,0.0,0.0,0.0,0.0,0.0,0.0,0.0,0.0,2.1772,2.1815,2.2062,2.2577,2.2207,2.2251,2.2751,2.363,2.4341,2.4931,2.5641,2.6334,2.6974,2.6568,2.6001,2.5367,2.4957,2.3779,2.218,2.2125,2.144,2.0458,2.0489,2.051,2.0527,2.0728,2.0794,2.0732,2.0258,0.0,0.0,0.0,0.0,2.1871,2.2488,2.3721,2.5318,2.7073,0.0,3.1219,3.4595,3.6454,0.0,3.8263,0.0,0.0,0.0,0.0,0.0,0.0,0.0,0.0,0.0,0.0,0.0,0.0,0.0,0.0,0.0,0.0,0.0,0.0,0.0,0.0,0.0,0.0,4.0345,4.0345,4.0345,4.0387,4.0412,4.0412,4.0412,4.0419,4.0419,4.0419,4.0419,4.0717,4.1646,4.322,4.4681,4.5371,4.5397,4.5397,4.5397,4.5397,4.5397,4.5397,4.5397,4.5397,4.5563,4.5812,4.5952,4.6182,4.6512,0.0,0.0,0.0,0.0,0.0,0.0,0.0,0.0,0.0,0.0,0.0,0.0,0.0,0.0,0.0,0.0,0.0,0.0,0.0,0.0,0.0,2.109,2.1133,2.1162,2.1249,2.1743,2.2033,2.212,2.3838,2.4752,2.4907,2.5527,2.6258,2.6974,2.6468,2.5913,2.5367,2.4957,2.4036,2.2818,2.2324,2.1731,2.1121,2.0676,2.051,2.0527,2.0728,2.0794,2.0811,2.091,2.0575,0.0,0.0,0.0,2.0492,2.1086,2.2678,2.442,0.0,0.0,3.1676,0.0,3.5573,3.7256,0.0,0.0,0.0,0.0,0.0,0.0,0.0,0.0,0.0,0.0,0.0,0.0,0.0,0.0,0.0,0.0,0.0,0.0,0.0,0.0,0.0,0.0,3.9807,3.9807,3.9807,3.9807,3.9858,3.9977,3.9977,4.0037,4.0146,4.0146,4.0146,4.0163,4.158,4.2782,4.3818,4.4772,4.53,4.5397,4.5397,4.5397,4.5397,4.5397,4.5397,4.5397,4.5397,4.5563,4.5882,4.6586,4.7011,4.7345,0.0,0.0,0.0,0.0,0.0,0.0,0.0,0.0,0.0,0.0,0.0,0.0,0.0,0.0,0.0,0.0,0.0,0.0,0.0,0.0,0.0,2.0645,2.066,2.0816,2.1099,2.1027,2.1326,2.1989,2.3543,2.4476,2.4868,2.6242,2.6864,2.6899,2.7073,2.6674,2.5834,2.5333,2.4485,2.3392,2.2834,2.2267,2.1738,2.1683,2.1682,2.1653,2.1468,2.1444,2.1385,2.0703,2.0574,2.0572,1.9887,0.0,0.0,0.0,2.1644,2.2835,2.4974,2.784,3.0664,0.0,3.411,0.0,0.0,0.0,0.0,0.0,0.0,0.0,0.0,0.0,0.0,0.0,0.0,0.0,0.0,0.0,0.0,0.0,0.0,0.0,0.0,0.0,0.0,0.0,3.9703,3.9703,3.9703,3.9703,3.9729,3.9781,3.9781,3.9807,3.9884,3.9961,4.0037,4.013,4.1654,4.2641,4.3148,4.4421,4.5086,4.53,4.5371,4.5397,4.5397,4.5397,4.5397,4.5397,4.5397,4.584,4.6517,4.6865,4.743,4.8135,0.0,0.0,0.0,0.0,0.0,0.0,0.0,0.0,0.0,0.0,0.0,0.0,0.0,0.0,0.0,0.0,0.0,0.0,0.0,0.0,0.0,2.0135,2.0135,2.0333,2.0733,2.0391,2.0712,2.18,2.3057,2.4027,2.4853,2.6637,2.7229,2.6835,2.7579,2.7322,2.6365,2.5849,2.5103,2.4213,2.3707,2.3239,2.2871,2.3049,2.3101,2.3061,2.2623,2.2494,0.0,0.0,0.0,0.0,0.0,0.0,0.0,0.0,0.0,0.0,0.0,0.0,2.8996,3.1158,0.0,0.0,0.0,0.0,0.0,0.0,0.0,0.0,0.0,0.0,0.0,0.0,0.0,0.0,0.0,0.0,0.0,0.0,0.0,0.0,0.0,0.0,0.0,0.0,3.9451,3.9478,3.9504,3.9504,3.9573,3.9668,3.9651,3.9651,3.9703,3.9833,3.9935,4.0079,4.1593,4.2339,4.2505,4.4079,4.494,4.5167,4.5274,4.5371,4.5397,4.5397,4.5397,4.5397,4.5397,4.6048,4.703,4.7222,4.7937,4.8924,0.0,0.0,0.0,0.0,0.0,0.0,0.0,0.0,0.0,0.0,0.0,0.0,1.9511,2.0179,2.064,2.0779,0.0,0.0,0.0,0.0,0.0,1.9454,1.9454,0.0,1.9479,1.9962,2.0533,2.1249,2.2389,2.3606,2.4839,2.6199,2.6849,2.6835,2.7579,2.7503,2.6831,2.648,2.6009,2.5473,2.5047,2.4935,2.4921,2.4611,2.45,2.4463,2.41,0.0,0.0,0.0,0.0,0.0,0.0,1.9801,1.9236,0.0,0.0,0.0,0.0,2.5602,0.0,0.0,0.0,0.0,0.0,0.0,0.0,0.0,0.0,0.0,0.0,0.0,0.0,0.0,0.0,0.0,0.0,0.0,0.0,0.0,0.0,0.0,0.0,0.0,0.0,0.0,3.886,3.8914,3.9023,3.905,3.9175,3.9501,3.9528,3.9563,3.9703,3.9833,3.9901,3.9943,4.1523,4.2313,4.2364,4.4024,4.4886,4.5005,4.5167,4.5274,4.5397,4.5397,4.5397,4.5397,4.5397,4.6048,4.7082,4.777,4.8705,4.9758,0.0,0.0,0.0,0.0,0.0,0.0,0.0,0.0,0.0,0.0,0.0,0.0,0.0,2.0492,2.074,2.0901,2.0451,0.0,0.0,0.0,0.0,1.9581,1.9581,1.9578,1.9538,1.9723,2.0072,2.0562,2.1791,2.2803,2.3627,2.5792,2.6806,2.6835,2.7486,2.7467,2.6945,2.6463,2.6214,2.6078,2.578,2.591,2.6329,2.6528,0.0,0.0,0.0,0.0,0.0,0.0,0.0,0.0,0.0,2.0759,2.034,1.9335,1.9922,0.0,0.0,0.0,0.0,0.0,0.0,0.0,0.0,0.0,0.0,0.0,0.0,0.0,0.0,0.0,0.0,0.0,0.0,0.0,0.0,0.0,0.0,0.0,0.0,0.0,0.0,0.0,0.0,0.0,0.0,3.8832,3.886,3.8887,3.8969,3.9175,3.9175,3.9309,3.9563,3.9703,3.9807,3.9918,4.154,4.2286,4.2337,4.3959,4.4776,4.5005,4.5059,4.5194,4.5397,4.5397,4.5397,4.5449,4.5966,4.6792,4.7787,4.857,4.9544,5.0504,0.0,0.0,0.0,0.0,0.0,0.0,0.0,0.0,0.0,2.0041,0.0,0.0,0.0,0.0,2.1327,2.1338,2.1082,2.0769,2.0459,2.0139,1.9889,1.9708,1.9708,1.9672,1.9632,1.9611,1.9831,2.0294,2.1064,2.198,2.2999,2.4689,2.572,2.617,2.655,2.6922,2.7202,0.0,0.0,2.7005,0.0,0.0,2.8398,0.0,0.0,0.0,0.0,0.0,0.0,0.0,0.0,0.0,0.0,2.1876,2.1051,1.9752,1.9968,0.0,2.1114,0.0,0.0,0.0,0.0,0.0,0.0,0.0,0.0,0.0,0.0,0.0,0.0,0.0,0.0,0.0,0.0,0.0,0.0,0.0,0.0,0.0,0.0,0.0,0.0,0.0,0.0,0.0,0.0,0.0,3.8738,3.8722,3.8805,3.8996,3.9067,3.9202,3.9432,3.9599,3.9755,3.9866,4.1514,4.2286,4.2337,4.3904,4.4765,4.5005,4.5005,4.514,4.5397,4.5397,4.5397,4.5483,4.6303,4.7207,4.8205,4.8988,4.9981,5.0891,0.0,0.0,0.0,0.0,0.0,0.0,0.0,0.0,2.0124,2.0283,0.0,0.0,0.0,0.0,0.0,2.2293,2.2283,2.1798,2.0644,2.0665,2.0423,1.9768,0.0,0.0,1.9708,1.9647,1.9886,2.0472,2.0294,2.1161,2.2995,2.2912,2.3577,2.4834,2.4795,2.5839,2.7607,0.0,2.7561,2.8261,0.0,2.9826,3.108,0.0,0.0,0.0,3.1999,3.1702,0.0,2.8699,0.0,0.0,0.0,2.3058,2.118,2.0376,2.0119,0.0,0.0,0.0,0.0,0.0,0.0,0.0,0.0,0.0,0.0,0.0,0.0,0.0,0.0,0.0,0.0,0.0,0.0,0.0,0.0,0.0,0.0,0.0,0.0,0.0,0.0,0.0,0.0,0.0,3.8391,3.8448,3.8604,3.8588,3.8727,3.8996,3.9175,3.9299,3.9299,3.9573,3.9703,3.972,4.1488,4.2286,4.2337,4.3904,4.4765,4.5005,4.5005,4.5157,4.5397,4.5397,4.5414,4.5518,4.632,4.7269,4.8222,4.9023,4.9981,5.0891,0.0,0.0,0.0,0.0,0.0,0.0,0.0,2.1901,2.2173,0.0,0.0,0.0,2.3659,2.3592,2.3557,2.358,2.2797,2.2197,2.1966,2.1153,2.0613,2.0438,1.9944,1.9708,1.9708,1.9672,1.974,1.9842,2.0169,2.0573,2.1015,2.1858,2.2678,2.3476,2.3925,2.4718,2.5716,2.6245,0.0,2.8261,2.8785,3.0099,0.0,0.0,0.0,0.0,0.0,3.3834,3.3534,0.0,3.0389,2.9355,0.0,0.0,0.0,2.1165,2.0522,0.0,2.0463,0.0,0.0,0.0,0.0,0.0,0.0,0.0,0.0,0.0,0.0,0.0,0.0,0.0,0.0,0.0,0.0,0.0,0.0,0.0,0.0,0.0,0.0,0.0,0.0,0.0,0.0,0.0,3.8391,3.8436,3.8448,3.8628,3.8777,3.886,3.9148,3.9299,3.9299,3.9573,3.9703,3.972,4.1488,4.2286,4.2364,4.4014,4.4831,4.5005,4.5096,4.5247,4.5397,4.5397,4.5742,4.6355,4.7205,4.813,4.9067,4.9926,5.0527,5.0891,0.0,0.0,0.0,0.0,0.0,0.0,2.3064,2.3181,2.3381,0.0,0.0,0.0,2.4558,2.4394,2.4354,2.4543,2.3672,2.306,2.2965,2.2058,2.1291,2.0718,2.0333,1.9989,1.9708,1.9708,1.9672,1.9632,1.9927,2.014,2.0289,2.0951,2.1567,2.2142,2.2817,0.0,0.0,0.0,0.0,0.0,2.9335,0.0,0.0,3.4048,3.5208,0.0,0.0,0.0,3.5806,3.4307,3.2585,0.0,0.0,0.0,0.0,0.0,0.0,0.0,0.0,0.0,0.0,0.0,0.0,0.0,2.3977,2.4875,0.0,0.0,0.0,0.0,0.0,0.0,0.0,0.0,0.0,0.0,0.0,0.0,0.0,0.0,0.0,0.0,0.0,3.8391,3.8391,3.8391,3.8391,3.8391,3.8391,3.8639,3.8805,3.8805,3.9121,3.9299,3.9299,3.9573,3.9703,3.972,4.1488,4.2286,4.2364,4.4024,4.4886,4.5005,4.514,4.5463,4.5897,4.5897,4.6173,4.6717,4.7917,4.8774,4.9416,5.0268,5.0729,5.0891,0.0,0.0,0.0,0.0,0.0,0.0,0.0,2.4166,2.4261,0.0,2.4629,2.4807,2.5049,2.5112,2.5199,2.5388,2.4799,2.4236,2.3738,2.3152,2.2239,2.0976,2.0857,2.0516,1.9864,1.9831,1.9801,1.9708,1.9647,1.9853,2.0321,2.0172,2.0391,2.095,0.0,0.0,0.0,0.0,0.0,2.8261,3.0078,3.2139,0.0,0.0,3.7281,3.82,3.8861,3.8672,3.7963,3.6836,3.4233,0.0,0.0,0.0,0.0,0.0,2.4461,0.0,0.0,0.0,0.0,0.0,0.0,0.0,2.2776,2.3818,2.4669,0.0,0.0,0.0,0.0,0.0,0.0,0.0,0.0,0.0,0.0,0.0,0.0,0.0,0.0,0.0,3.8278,3.8278,3.8311,3.8391,3.8391,3.8391,3.8391,3.8639,3.8805,3.8805,3.9121,3.9299,3.9325,3.9573,3.9703,3.9746,4.1471,4.2313,4.2364,4.4051,4.4913,4.5032,4.515,4.5748,4.6613,4.67,4.6786,4.6993,4.8533,4.9243,4.952,5.033,5.0747,5.0891,0.0,0.0,0.0,0.0,0.0,0.0,0.0,2.5757,2.6316,2.6989,2.7286,2.7455,2.7496,2.7272,2.7018,2.6751,2.6169,2.5396,2.4462,2.3789,2.3113,2.2415,2.1873,2.1325,2.0755,2.0681,2.0387,1.978,1.9665,1.9649,1.9749,1.9623,1.9849,2.0396,0.0,0.0,0.0,0.0,0.0,2.7743,2.9925,0.0,3.4927,3.6107,3.7483,3.8872,3.9438,3.962,3.9383,0.0,3.5829,3.3596,0.0,0.0,0.0,0.0,0.0,0.0,0.0,0.0,0.0,0.0,0.0,0.0,2.2831,2.273,2.2661,0.0,0.0,0.0,0.0,0.0,0.0,0.0,0.0,0.0,0.0,0.0,0.0,0.0,0.0,0.0,3.7441,3.7506,3.7776,3.8359,3.8391,3.8391,3.8391,3.8639,3.8805,3.8805,3.9121,3.9352,3.9475,3.9625,3.9755,3.9892,4.1514,4.2366,4.2505,4.4197,4.5032,4.5167,4.53,4.5845,4.6665,4.7251,4.7855,4.8424,4.9042,4.9639,5.0234,5.0667,5.0873,5.0891,0.0,0.0,0.0,0.0,0.0,0.0,0.0,0.0,2.7451,2.8155,2.8761,2.9184,2.9229,2.8872,2.8619,2.8588,2.7394,2.6475,2.6114,2.4852,2.3863,2.333,2.2666,2.2043,2.1508,2.1137,2.0748,2.0342,1.9906,1.9665,1.9593,1.9538,1.9786,2.0338,0.0,0.0,0.0,0.0,2.6649,2.8081,3.0265,0.0,3.5185,3.6794,3.83,3.9654,4.0419,4.0689,4.0389,3.8795,3.7304,0.0,0.0,3.2452,3.0792,0.0,2.869,2.7395,0.0,0.0,0.0,2.4505,0.0,0.0,0.0,2.2226,2.2031,2.2345,0.0,0.0,0.0,0.0,0.0,0.0,0.0,0.0,0.0,0.0,0.0,0.0,0.0,0.0,3.674,3.6821,3.6967,3.7323,3.7663,3.7885,3.7952,3.8498,3.8832,3.8914,3.9148,3.9352,3.9501,3.9625,3.9755,3.9918,4.154,4.2366,4.2558,4.4224,4.5086,4.522,4.5344,4.6069,4.7182,4.7534,4.84,4.9532,4.9757,5.0122,5.0537,5.0792,5.0891,5.0918,0.0,0.0,0.0,0.0,0.0,0.0,0.0,0.0,2.8535,2.9153,3.0052,3.0671,3.0781,3.0548,3.044,3.0646,2.8952,2.7894,0.0,0.0,0.0,2.4437,2.3658,2.298,2.2448,2.1656,2.1129,2.0948,2.018,1.9741,1.9629,1.9763,2.0016,0.0,0.0,0.0,0.0,0.0,0.0,2.8818,0.0,3.3081,3.5413,3.7475,3.9098,4.0419,4.1366,4.1534,4.1107,3.9821,0.0,3.7658,3.6166,3.458,0.0,0.0,0.0,0.0,0.0,0.0,0.0,0.0,0.0,2.2807,0.0,0.0,0.0,2.1779,0.0,0.0,0.0,0.0,0.0,0.0,0.0,0.0,0.0,0.0,0.0,0.0,0.0,0.0,0.0,3.593,3.6092,3.6092,3.6724,3.7215,3.7492,3.8199,3.8712,3.8996,3.9218,3.9379,3.9554,3.9668,3.9848,4.0171,4.1634,4.2487,4.2805,4.4346,4.5113,4.5247,4.5526,4.6414,4.7717,4.79,4.8875,5.0246,5.0359,5.0481,5.0612,5.0819,5.0918,5.0945,2.4795,2.4908,0.0,0.0,0.0,0.0,0.0,0.0,3.0445,3.1092,3.1995,3.2597,3.2582,0.0,0.0,0.0,0.0,0.0,2.943,0.0,0.0,0.0,0.0,0.0,2.4045,2.2738,2.1751,2.1088,2.0219,1.978,1.9792,2.0318,0.0,0.0,2.2426,0.0,0.0,0.0,2.8118,0.0,3.1614,3.3803,0.0,3.7496,3.9275,4.1075,4.1802,4.1709,4.1302,0.0,4.0217,3.8646,0.0,3.719,0.0,0.0,0.0,0.0,0.0,0.0,0.0,0.0,2.5878,0.0,0.0,0.0,2.1917,2.131,0.0,0.0,0.0,0.0,0.0,0.0,0.0,0.0,0.0,0.0,0.0,0.0,0.0,0.0,0.0,3.4596,3.5325,3.5325,3.5995,3.6729,3.746,3.7768,3.8263,3.898,3.9218,3.9432,3.9677,3.9677,4.0169,4.1059,4.2029,4.2934,4.3765,4.4736,4.5247,4.5405,4.6138,4.6914,4.7769,4.8609,4.951,5.0387,5.0369,5.0481,5.0612,5.0819,5.0972,5.1079,2.5033,2.5288,0.0,0.0,0.0,0.0,0.0,0.0,3.221,3.2511,3.3697,3.4525,0.0,0.0,0.0,0.0,0.0,3.1901,0.0,0.0,0.0,0.0,0.0,0.0,0.0,2.3923,2.3069,2.2321,2.1124,2.0694,2.096,2.0813,0.0,0.0,2.3044,0.0,2.5433,0.0,2.9107,0.0,0.0,0.0,0.0,3.7646,3.9518,4.1781,4.2355,4.2476,4.2318,0.0,4.1206,0.0,0.0,0.0,0.0,0.0,0.0,0.0,0.0,0.0,0.0,0.0,0.0,0.0,0.0,0.0,2.2114,0.0,0.0,0.0,0.0,0.0,0.0,0.0,0.0,0.0,0.0,0.0,0.0,0.0,0.0,0.0,0.0,0.0,0.0,0.0,3.4468,3.5317,3.5722,3.7121,3.8107,3.852,3.911,3.9511,3.9703,3.9781,4.028,4.1221,4.2089,4.2985,4.3928,4.4797,4.5274,4.5432,4.6242,4.7027,4.7769,4.8695,4.9625,5.0415,5.0481,5.062,5.0801,5.0972,5.1052,5.1105,2.5339,0.0,0.0,0.0,0.0,0.0,0.0,0.0,0.0,0.0,0.0,0.0,3.6298,3.6396,0.0,0.0,0.0,3.3913,0.0,0.0,3.0359,0.0,0.0,0.0,0.0,0.0,0.0,2.3493,2.2091,2.1584,2.1901,0.0,0.0,0.0,0.0,2.5166,2.6986,0.0,0.0,3.1928,3.3668,3.5651,3.7745,3.8733,4.0368,4.2185,4.292,4.3207,4.3069,4.2284,4.1996,0.0,4.0053,0.0,0.0,0.0,0.0,0.0,3.4945,0.0,0.0,0.0,0.0,0.0,0.0,0.0,0.0,0.0,0.0,0.0,0.0,0.0,0.0,0.0,0.0,0.0,0.0,0.0,0.0,0.0,0.0,0.0,0.0,0.0,0.0,3.1459,3.3071,3.4211,3.4546,3.6551,3.7866,3.8247,3.9066,3.959,3.9755,4.0034,4.0661,4.156,4.2447,4.3371,4.4289,4.4953,4.5421,4.5759,4.6552,4.7365,4.8163,4.9063,4.9855,5.0481,5.0602,5.0774,5.0918,5.1052,5.1132,5.1185,2.6082,2.5961,0.0,0.0,0.0,0.0,0.0,0.0,0.0,0.0,0.0,0.0,0.0,0.0,0.0,0.0,0.0,3.6571,3.6402,0.0,3.3124,0.0,0.0,2.9547,0.0,0.0,0.0,0.0,0.0,0.0,0.0,0.0,0.0,0.0,0.0,2.6288,2.769,2.9609,3.1225,3.2662,3.4842,3.7142,3.9412,0.0,4.2022,4.2247,4.3506,0.0,0.0,4.3297,4.2652,0.0,0.0,0.0,0.0,0.0,0.0,0.0,0.0,0.0,0.0,3.1072,0.0,0.0,0.0,0.0,2.452,0.0,0.0,0.0,0.0,0.0,0.0,0.0,0.0,0.0,0.0,0.0,0.0,0.0,0.0,0.0,0.0,0.0,0.0,3.006,3.2145,3.3791,3.4658,3.6124,3.7373,3.8369,3.9101,3.9633,3.9901,4.0617,4.1456,4.2464,4.3422,4.4306,4.5142,4.5327,4.5811,4.6613,4.7327,4.8197,4.9125,5.0011,5.0446,5.0612,5.0819,5.0891,5.0918,5.1052,5.1167,5.1324,0.0,0.0,0.0,0.0,0.0,0.0,0.0,3.3747,0.0,0.0,0.0,0.0,0.0,4.0202,4.061,0.0,0.0,3.8907,3.7819,3.6984,0.0,0.0,0.0,3.2016,0.0,0.0,0.0,0.0,0.0,0.0,0.0,0.0,0.0,0.0,0.0,2.6675,0.0,0.0,0.0,0.0,0.0,3.8144,3.969,0.0,0.0,4.2966,4.4062,4.4204,0.0,4.339,4.296,4.2441,4.1841,4.1284,4.0654,3.988,3.8957,0.0,0.0,0.0,3.4249,3.1753,0.0,0.0,0.0,0.0,0.0,0.0,0.0,0.0,0.0,0.0,0.0,0.0,0.0,0.0,0.0,0.0,0.0,0.0,0.0,0.0,0.0,0.0,0.0,2.934,3.0663,3.1951,3.3176,3.4809,3.6314,3.7644,3.8564,3.9311,3.9884,4.0728,4.1585,4.2507,4.3439,4.434,4.5203,4.5344,4.5908,4.6775,4.7519,4.8362,4.9298,5.0167,5.0575,5.0612,5.0819,5.0945,5.1052,5.1167,5.1272,5.135,2.8354,0.0,0.0,0.0,0.0,0.0,0.0,0.0,0.0,0.0,3.8882,0.0,4.1437,0.0,4.2286,0.0,4.2132,4.1222,3.9918,3.9491,0.0,3.5441,3.5477,0.0,0.0,0.0,0.0,0.0,0.0,2.5336,0.0,0.0,0.0,0.0,0.0,2.7018,2.912,0.0,3.1884,0.0,0.0,3.8745,0.0,0.0,4.2821,4.295,0.0,4.4069,4.3673,4.334,4.2993,4.2645,4.2111,4.172,4.1338,4.0535,3.9665,3.8758,3.7765,3.663,0.0,3.3208,3.1786,0.0,2.9255,0.0,0.0,0.0,0.0,0.0,0.0,0.0,0.0,0.0,0.0,0.0,0.0,2.1604,0.0,0.0,0.0,0.0,0.0,0.0,2.7079,2.8296,2.965,3.0971,0.0,0.0,3.5819,3.7385,3.8321,3.9295,4.0348,4.1221,4.2106,4.3028,4.3928,4.4677,4.5291,4.5699,4.6367,4.7236,4.8053,4.8916,4.9829,5.0365,5.0657,5.0729,5.0846,5.0972,5.1105,5.1246,5.1359,5.1462,0.0,0.0,0.0,0.0,3.1886,0.0,0.0,0.0,3.7674,0.0,4.0457,4.2045,4.3007,4.3645,4.4238,4.4621,4.4133,0.0,4.2536,4.2198,0.0,0.0,3.782,3.6707,3.469,0.0,0.0,0.0,0.0,0.0,0.0,0.0,0.0,0.0,2.5932,0.0,2.9873,3.1014,3.2362,3.3965,3.6847,3.9005,4.0601,4.165,4.2037,4.22,4.3302,4.3368,4.2933,4.3147,4.2831,4.2332,4.1963,4.1915,4.1766,4.0532,4.0288,4.0094,3.8609,3.7801,3.6954,3.5328,3.3416,0.0,0.0,0.0,2.8627,0.0,0.0,0.0,0.0,0.0,0.0,0.0,0.0,0.0,0.0,0.0,0.0,0.0,0.0,0.0,0.0,2.543,2.6224,2.6998,2.9141,3.08,0.0,0.0,3.583,3.7595,3.8369,3.9556,4.1187,4.2072,4.2977,4.3911,4.478,4.5274,4.5414,4.6377,4.7201,4.7964,4.8881,4.9811,5.0612,5.0612,5.0729,5.0891,5.0918,5.0998,5.1132,5.1272,5.1479,5.1708,3.1464,3.2349,3.3193,0.0,3.3656,3.4377,0.0,0.0,0.0,0.0,4.1385,4.2377,4.4226,4.4734,4.5068,4.5328,4.5367,0.0,0.0,0.0,0.0,4.0946,4.0128,3.88,3.6769,3.4751,0.0,3.0874,0.0,0.0,2.6034,0.0,0.0,0.0,0.0,0.0,2.9873,3.1014,3.3577,3.694,3.7836,3.9122,0.0,0.0,4.1367,4.1557,4.3144,4.3368,4.2933,4.3147,4.2831,4.2412,4.2579,4.2323,4.1865,4.114,4.0684,4.0094,3.8707,3.8243,3.7661,3.5676,3.4804,3.4058,0.0,0.0,0.0,0.0,0.0,0.0,0.0,0.0,0.0,0.0,0.0,0.0,0.0,0.0,0.0,2.1911,0.0,0.0,0.0,2.4067,2.506,2.639,2.8071,2.9606,0.0,0.0,0.0,3.6828,3.7691,3.9157,4.1325,4.2107,4.3003,4.4069,4.4833,4.5274,4.5414,4.6377,4.7254,4.8082,4.9027,4.9975,5.0819,5.0819,5.0846,5.0918,5.0998,5.1185,5.1402,5.1428,5.1556,5.1779,3.334,0.0,0.0,3.6144,0.0,0.0,3.7901,3.8814,0.0,4.2278,4.3156,0.0,4.559,4.6222,4.6666,4.6845,4.6859,0.0,0.0,0.0,0.0,4.2842,4.2184,4.0909,3.8862,3.683,0.0,3.2764,0.0,0.0,2.7188,0.0,0.0,0.0,0.0,2.7552,0.0,3.1858,3.4742,3.8144,3.8259,0.0,0.0,4.0932,4.1117,4.1245,4.2388,4.2572,4.2373,4.2635,4.2526,4.2349,4.2665,4.2621,4.2359,4.1727,4.1222,4.0608,3.9641,3.8937,3.8204,3.7025,3.6058,3.5148,3.4242,3.2978,3.1946,0.0,0.0,0.0,0.0,0.0,0.0,0.0,0.0,0.0,0.0,0.0,0.0,0.0,0.0,0.0,0.0,2.3697,2.458,2.5763,2.7566,2.9125,0.0,0.0,0.0,3.6612,3.7523,3.9229,4.1878,4.2424,4.3348,4.4602,4.5067,4.5526,4.6047,4.6968,4.7847,4.8747,4.9695,5.0415,5.0891,5.0891,5.0891,5.0918,5.1114,5.1316,5.1505,5.1556,5.1658,5.1815,0.0,0.0,0.0,0.0,0.0,0.0,0.0,4.0898,0.0,4.3791,0.0,4.6243,4.6836,4.7695,4.8309,4.8479,0.0,4.7896,4.7474,4.7256,4.6254,4.4373,4.3929,4.2786,4.0812,3.8723,0.0,0.0,0.0,0.0,0.0,0.0,0.0,0.0,0.0,0.0,0.0,3.304,3.569,3.8308,3.8325,3.9238,4.0558,4.0966,4.1117,4.1169,4.1505,4.1588,4.1654,4.198,4.2109,4.2142,4.2492,4.2836,4.2965,4.2228,4.1712,4.1288,4.0773,3.9707,3.8723,3.8673,3.7278,3.5891,3.5591,3.4527,3.3625,3.3584,3.255,3.1626,0.0,0.0,0.0,0.0,0.0,0.0,0.0,0.0,0.0,0.0,0.0,0.0,0.0,0.0,0.0,2.5146,2.729,0.0,0.0,0.0,0.0,3.6463,3.7562,3.9452,4.2253,0.0,4.3692,4.5093,4.5319,4.59,4.682,4.7726,4.8625,4.9545,5.0486,5.0891,5.0891,5.0918,5.0945,5.0998,5.1246,5.1402,5.1531,5.1658,5.169,5.1815,0.0,0.0,0.0,0.0,0.0,4.2223,4.3574,4.3661,4.4066,4.5342,4.6154,4.6911,4.755,4.8129,4.8479,4.8525,4.8833,0.0,0.0,0.0,0.0,4.6466,4.5139,4.3725,4.2279,3.9677,3.7061,0.0,0.0,0.0,0.0,0.0,0.0,0.0,0.0,0.0,3.2585,3.3677,0.0,3.8308,3.8424,3.939,4.0765,4.1,4.1153,4.129,4.1522,4.1588,4.1654,4.198,4.2109,4.2142,4.2492,4.2836,4.2965,4.2228,4.1712,4.1316,4.0875,4.0163,3.942,3.9016,3.8652,3.8075,3.6892,3.5966,3.5213,3.4733,3.3956,3.3174,3.2542,0.0,0.0,0.0,0.0,0.0,0.0,0.0,0.0,0.0,0.0,0.0,0.0,0.0,0.0,0.0,0.0,0.0,0.0,0.0,0.0,0.0,3.7081,0.0,0.0,0.0,4.3486,4.4466,4.5217,4.6005,4.682,4.7805,4.8705,4.9545,5.0486,5.0891,5.0918,5.1025,5.1211,5.1402,5.1454,5.1556,5.1665,5.169,5.169,5.1904,0.0,0.0,0.0,0.0,0.0,0.0,0.0,4.6214,4.6548,4.6838,4.7419,4.7927,4.8232,4.9007,4.9542,4.9542,4.9697,4.9643,4.9329,4.865,4.8006,4.7482,4.6183,0.0,4.3648,4.1324,3.8954,3.6569,0.0,0.0,0.0,0.0,0.0,0.0,0.0,3.1432,0.0,0.0,0.0,3.8455,3.8859,3.9732,4.0833,4.1034,4.1187,4.1323,4.1522,4.167,4.1784,4.2013,4.2174,4.2318,4.2539,4.2836,4.3031,4.2687,4.2008,4.1399,4.1387,4.0531,3.9671,3.9598,3.9325,3.894,3.8241,3.7257,3.6405,3.6199,3.5286,3.4321,3.3662,3.2303,0.0,0.0,0.0,0.0,0.0,0.0,0.0,0.0,0.0,0.0,0.0,0.0,0.0,0.0,0.0,0.0,0.0,0.0,0.0,0.0,0.0,0.0,0.0,0.0,0.0,4.4413,4.5217,4.6274,4.7587,4.8085,4.9012,5.0248,5.0688,5.0945,5.1025,5.1158,5.1324,5.1505,5.1505,5.1582,5.169,5.169,5.169,5.1922,0.0,4.2656,0.0,0.0,4.5416,0.0,4.7288,4.829,4.8696,4.8058,4.8537,4.8928,4.8976,4.989,5.0501,5.0581,5.0471,5.0345,5.0196,4.9314,4.8615,4.8165,4.7093,4.599,4.4818,4.2833,4.0801,0.0,0.0,0.0,0.0,0.0,0.0,0.0,0.0,0.0,0.0,0.0,3.7353,3.8769,3.9342,4.0093,4.0867,4.1068,4.1239,4.139,4.1555,4.1736,4.1947,4.2045,4.2238,4.2413,4.2571,4.2836,4.3113,4.3113,4.2404,4.168,4.1855,4.0933,3.9956,4.0071,3.9747,3.9404,3.9258,3.84,3.7598,3.7578,3.6469,3.5299,3.4751,3.3518,0.0,0.0,0.0,0.0,0.0,0.0,0.0,0.0,0.0,0.0,0.0,0.0,0.0,0.0,0.0,0.0,0.0,0.0,0.0,0.0,0.0,3.9026,4.0246,0.0,4.3583,4.4272,4.5233,4.6595,4.8312,4.8339,4.9275,5.0891,5.0918,5.1025,5.1185,5.1298,5.1428,5.1531,5.1531,5.1607,5.169,5.169,5.1822,5.2205,0.0,0.0,0.0,0.0,0.0,0.0,4.9132,4.9509,4.9364,4.8725,4.919,4.9693,4.995,5.0313,5.0581,5.0775,5.0967,5.0823,5.0226,4.9734,4.9309,4.8893,4.781,4.668,4.5526,4.3541,4.1509,0.0,0.0,0.0,0.0,0.0,0.0,0.0,0.0,0.0,0.0,3.6415,3.7631,3.9431,3.966,4.0295,4.1068,4.1239,4.139,4.1588,4.1588,4.1818,4.2077,4.2109,4.2238,4.2413,4.2571,4.2836,4.3113,4.3113,4.2766,4.2327,4.2005,4.1318,4.0611,4.0189,4.0137,4.0041,3.9522,3.9326,3.9118,3.8584,3.737,3.6177,3.5533,3.4718,3.4199,0.0,0.0,0.0,0.0,0.0,0.0,0.0,0.0,0.0,0.0,2.7413,0.0,0.0,0.0,0.0,0.0,0.0,0.0,3.3948,0.0,3.8663,3.8801,4.186,4.3422,4.3534,4.5175,4.6776,4.8295,4.8443,4.9372,5.0918,5.1025,5.1237,5.1454,5.1479,5.1556,5.1665,5.1665,5.169,5.169,5.169,5.2237,5.3089,0.0,0.0,0.0,0.0,0.0,0.0,0.0,5.0844,5.0743,5.0496,5.0685,5.0799,5.0652,5.09,5.098,5.079,5.1058,5.1109,5.084,5.0258,4.9809,4.956,4.8311,4.7404,4.6819,4.4818,4.3002,0.0,0.0,0.0,0.0,0.0,0.0,0.0,0.0,3.5691,3.7153,3.7969,3.8769,3.9554,4.0158,4.0668,4.1102,4.1239,4.1423,4.1621,4.1752,4.1899,4.2109,4.2238,4.2381,4.2539,4.2571,4.2836,4.3113,4.3113,4.2815,4.251,4.254,4.1686,4.0795,4.078,4.0603,4.0368,4.0109,3.9832,3.9566,3.9427,3.8321,3.7341,3.7111,3.612,3.5371,0.0,0.0,0.0,0.0,0.0,0.0,0.0,0.0,0.0,0.0,0.0,0.0,0.0,0.0,0.0,0.0,0.0,0.0,3.4162,0.0,3.9041,3.9492,4.2124,4.3743,4.4311,4.5466,4.687,4.8496,4.8469,4.9407,5.1025,5.1264,5.1402,5.1505,5.1582,5.164,5.169,5.169,5.169,5.1769,5.2326,5.2777,5.3301,4.8165,0.0,4.9592,0.0,5.0656,5.1164,5.1802,5.1904,5.1962,5.2151,5.218,5.1875,5.1189,5.1268,5.1294,5.0976,5.1073,5.1214,5.1214,5.0554,5.0215,5.0227,4.8938,0.0,4.7912,4.6111,4.4526,4.3187,4.134,0.0,0.0,0.0,0.0,0.0,3.6368,3.7384,3.8462,3.9449,3.9992,4.0257,4.0976,4.1239,4.1187,4.1323,4.1489,4.1621,4.1833,4.198,4.2142,4.2349,4.2476,4.2602,4.2665,4.2867,4.3096,4.3174,4.3039,4.2858,4.2958,4.2222,4.1416,4.1244,4.1002,4.0783,4.0561,4.0274,4.0038,3.9967,3.9264,3.8657,3.8518,3.7508,3.6704,3.6761,0.0,0.0,0.0,0.0,0.0,0.0,0.0,2.957,2.9321,0.0,0.0,0.0,0.0,0.0,0.0,0.0,0.0,0.0,0.0,0.0,4.0448,4.2503,4.4004,4.4893,4.5933,4.7173,4.8591,4.9038,4.9978,5.1237,5.1402,5.1531,5.1582,5.1665,5.169,5.169,5.174,5.1908,5.2201,5.2899,5.3483,5.4108,5.0294,5.0749,5.1178,5.1534,5.1599,5.1817,5.2521,5.2609,5.2775,5.3413,5.3486,5.2967,5.1572,5.1414,5.1343,5.1227,5.1214,5.1214,5.1214,5.0554,5.0425,0.0,0.0,4.8877,4.8578,4.7265,4.5911,4.4594,0.0,0.0,4.0397,0.0,3.7461,3.7461,3.7477,3.8616,4.0493,4.0681,4.1171,4.179,4.2203,4.1933,4.1323,4.1522,4.1588,4.1621,4.1833,4.198,4.2142,4.2349,4.2476,4.2634,4.2837,4.2976,4.3143,4.3342,4.3492,4.3505,4.3091,4.3004,4.2691,4.1497,4.1393,4.1408,4.0681,4.0704,4.0734,4.0219,4.0201,4.011,3.957,3.8818,3.8331,3.8546,0.0,0.0,0.0,0.0,0.0,0.0,3.1491,3.1172,3.0358,0.0,0.0,0.0,0.0,0.0,0.0,0.0,0.0,3.5449,3.7767,0.0,4.1267,4.2899,4.41,4.4911,4.6593,4.7783,4.8548,5.0286,5.122,5.1497,5.1505,5.1582,5.169,5.169,5.169,5.1715,5.1858,5.2373,5.3103,5.3246,5.4395,5.5873,5.2032,5.2229,5.2441,5.2559,5.2733,5.2978,5.3181,5.321,5.3283,5.3486,5.3658,5.3524,5.2824,5.2373,5.2038,0.0,5.1468,5.1214,0.0,5.102,5.0906,5.1015,5.0135,4.9504,4.9358,4.7989,4.685,4.5957,0.0,0.0,0.0,4.0601,4.0293,4.0293,4.0293,4.0978,4.2153,4.2189,4.2419,4.2747,4.2977,4.294,4.2724,4.2437,4.2432,4.2436,4.2123,4.2158,4.2349,4.2476,4.2571,4.2665,4.2929,4.3082,4.3143,4.3342,4.3492,4.3638,4.3726,4.3361,4.2959,4.2746,4.2505,4.2151,4.1425,4.1168,4.1065,4.089,4.0617,4.0393,4.0257,3.9211,3.8428,3.8583,3.7787,0.0,0.0,0.0,0.0,0.0,0.0,3.2065,0.0,3.1131,0.0,0.0,0.0,0.0,0.0,0.0,0.0,0.0,3.9308,0.0,4.2316,4.3886,4.5025,4.5797,4.6881,4.8115,4.9502,5.0795,5.1402,5.1523,5.1607,5.1665,5.169,5.169,5.169,5.1769,5.243,5.2863,5.3247,5.4586,5.5408,5.5981,5.3218,5.3337,5.3437,5.3348,5.341,5.3515,5.3515,5.3515,5.3568,5.3658,5.3815,5.3928,5.3904,5.3334,0.0,5.2229,5.1603,5.1214,5.1214,5.1214,5.1221,5.1395,5.0712,5.0264,5.0082,4.8958,0.0,4.6973,4.588,4.4572,4.3094,4.2833,4.2586,4.2325,4.215,4.2535,4.3278,4.3458,4.355,4.3678,4.3823,4.3737,4.3469,4.3197,4.316,4.3236,4.2716,4.2639,4.2783,4.2636,4.2665,4.2759,4.3021,4.3143,4.3235,4.3432,4.3539,4.3687,4.401,4.3762,4.3412,4.3405,4.328,4.2988,4.2338,4.2116,4.1992,4.1714,4.1501,4.1336,4.1149,4.012,3.9266,3.9101,3.8503,3.7666,3.656,0.0,0.0,0.0,0.0,0.0,0.0,3.2913,3.3218,0.0,0.0,0.0,0.0,0.0,0.0,3.8375,4.0531,4.2339,4.3728,4.4647,4.5648,4.6727,4.7857,4.9139,5.0521,5.1197,5.1531,5.1582,5.1665,5.169,5.1708,5.2029,5.2187,5.2308,5.3247,5.3807,5.4295,5.5512,5.6147,5.6472,5.3952,5.411,5.4252,5.3956,5.371,5.3515,5.3515,5.3515,5.3605,5.3904,5.3956,5.4178,5.4737,5.4229,5.3421,5.2381,0.0,0.0,5.1214,5.1214,5.1463,5.2002,5.1364,5.0935,5.0774,5.0051,4.9004,4.7604,4.6973,4.6326,4.5649,4.5041,4.4425,4.3793,4.3314,4.3448,4.4074,4.4429,4.4526,4.4495,4.4709,4.4417,4.3829,4.3782,4.3907,4.4018,4.3467,4.3392,4.3492,4.2894,4.2809,4.2996,4.3068,4.3251,4.3449,4.3568,4.3598,4.3687,4.401,4.4097,4.4016,4.3591,4.3688,4.3776,4.3381,4.338,4.3315,4.2619,4.2649,4.2655,4.2175,4.1386,4.0618,4.0071,3.9325,3.829,3.6774,0.0,0.0,0.0,0.0,0.0,0.0,3.54,3.5757,0.0,0.0,0.0,0.0,0.0,3.8646,4.0822,4.1654,4.3107,4.5294,4.5316,4.6125,4.7798,4.9361,5.0604,5.1505,5.1505,5.1582,5.169,5.1744,5.1779,5.1833,5.2661,5.3059,5.3283,5.4162,5.508,5.5909,5.6034,5.6554,5.7188,0.0,0.0,5.4553,5.4252,5.4008,5.3815,5.3815,5.3815,5.3904,5.4149,5.4451,5.4634,5.4803,5.4395,5.3813,5.3025,5.2351,5.1753,5.1244,5.1214,5.1463,5.2002,5.1364,5.1148,5.1467,5.0297,4.9004,4.7604,4.745,4.7019,4.6357,4.6188,4.6034,4.5849,4.5402,4.5337,4.565,4.5373,4.5337,4.5482,4.5518,4.546,4.5254,4.4685,4.4691,4.4907,4.4203,4.4198,4.4366,4.367,4.3555,4.3647,4.3232,4.3251,4.3449,4.3568,4.3704,4.3852,4.4039,4.4167,4.4276,4.4322,4.4123,4.3913,4.401,4.3744,4.343,4.3297,4.3016,4.2813,4.2829,4.1722,4.0795,4.0802,3.9682,3.8683,3.829,3.7738,0.0,0.0,3.686,3.7019,3.6392,3.7363,3.8097,0.0,0.0,0.0,0.0,4.123,4.1309,4.1711,4.3616,4.4903,4.5446,4.6589,4.795,4.9521,5.0001,5.0698,5.1505,5.1607,5.1665,5.1726,5.2358,5.2626,5.2697,5.3586,5.3977,5.41,5.5145,5.5703,5.5963,5.6649,5.7043,5.7188,5.5194,5.4991,5.4737,5.4553,5.4267,5.4097,5.4097,5.4097,5.4215,5.4487,5.4671,5.4854,5.4941,5.4779,5.4251,5.3264,5.2576,5.1917,5.1259,5.1214,5.1463,5.2002,5.1653,5.1529,5.1713,5.099,4.9943,4.8558,4.8235,4.7881,4.7511,4.7204,4.7065,4.7019,4.633,4.6088,4.6193,4.5798,4.5698,4.5807,4.5807,4.5807,4.5776,4.5437,4.5492,4.5677,4.5076,4.5023,4.5144,4.4545,4.4431,4.4557,4.4306,4.436,4.4514,4.4575,4.4278,4.3927,4.4068,4.4196,4.4367,4.4692,4.4579,4.446,4.4751,4.468,4.4456,4.4133,4.3943,4.3669,4.3094,4.2369,4.1679,4.1134,4.0374,3.9718,3.9342,3.9008,0.0,3.8241,3.8672,3.8834,3.8384,3.9409,4.0233,4.0515,4.1191,0.0,4.3286,4.3697,4.385,4.3742,4.5275,4.6276,4.6649,4.8174,4.9362,5.0196,5.0702,5.118,5.1607,5.1665,5.1886,5.2261,5.2715,5.3108,5.3474,5.4416,5.4835,5.4992,5.6006,5.644,5.6545,5.7018,5.7188,5.7188,5.5194,5.4991,5.4854,5.4803,5.4553,5.437,5.437,5.437,5.4487,5.4839,5.4839,5.4955,5.5194,5.5194,5.464,5.3294,5.2665,5.2022,5.1274,5.1214,5.1463,5.2002,5.2002,5.1956,5.1867,5.1652,5.0928,4.9682,4.8958,4.862,4.8604,4.8019,4.7758,4.7696,4.6882,4.6452,4.6334,4.605,4.5902,4.5807,4.5807,4.5807,4.5807,4.6024,4.6187,4.6253,4.5869,4.585,4.589,4.5424,4.5342,4.5471,4.558,4.5689,4.5798,4.5798,4.5059,4.4256,4.4269,4.4296,4.4452,4.4896,4.5005,4.5059,4.5344,4.5607,4.5621,4.4995,4.4991,4.4718,4.3502,4.3174,4.2721,4.155,4.1207,4.086,4.018,0.0,4.0159,4.0285,4.0524,4.0742,4.0851,4.1589,4.2286,4.2848,4.3438,4.4127,4.4928,4.5624,4.6088,4.632,4.6781,4.7464,4.8366,4.9681,5.0375,5.0524,5.1319,5.169,5.169,5.1815,5.2243,5.2911,5.3161,5.3625,5.4286,5.523,5.5684,5.5893,5.6706,5.7105,5.7188,5.7188,5.7188,5.7188,5.5194,5.5194,5.5042,5.4854,5.4737,5.4737,5.4737,5.4737,5.4839,5.5093,5.5143,5.5143,5.5194,5.5194,5.464,5.3294,5.3084,5.2516,5.1289,5.1214,5.1463,5.2002,5.2002,5.217,5.256,5.1436,5.0466,4.9682,4.8958,4.862,4.862,4.8496,4.845,4.8419,4.8109,4.7637,4.7013,4.6743,4.6329,4.5807,4.5807,4.5807,4.5807,4.6024,4.6187,4.6317,4.64,4.6576,4.6651,4.6106,4.6077,4.6143,4.5729,4.5689,4.5798,4.5798,4.5849,4.5791,4.5172,4.4786,4.4626,4.494,4.5005,4.5059,4.5344,4.5607,4.576,4.5656,4.5341,4.5075,4.4947,4.3915,4.3054,4.2949,4.1902,4.1056,4.0931,0.0,4.0432,4.1115,4.1971,4.2754,4.3441,4.4195,4.4617,4.4602,4.4605,4.5219,4.6551,4.6748,4.7408,4.8705,4.8264,4.8669,5.0113,5.0363,5.0809,5.1469,5.1637,5.169,5.1708,5.2411,5.2786,5.2983,5.4277,5.4955,5.5266,5.6212,5.6667,5.6796,5.7076,5.7163,5.7188,5.7188,5.7188,5.7232,5.5194,5.5194,5.5143,5.5042,5.4991,5.4991,5.4991,5.4991,5.5042,5.5194,5.5194,5.5194,5.5194,5.5194,5.464,5.3294,5.3174,5.2621,5.1304,5.1214,5.1354,5.1787,5.1941,5.2216,5.2713,5.1744,5.0913,5.0236,4.9528,4.8989,4.862,4.862,4.862,4.8589,4.8388,4.8121,4.777,4.7073,4.6629,4.6313,4.595,4.5807,4.5844,4.6116,4.6243,4.6333,4.6633,4.6807,4.6913,4.6859,4.6896,4.6979,4.6913,4.6926,4.7022,4.707,4.6724,4.6254,4.6114,4.5937,4.5857,4.6107,4.6174,4.6172,4.6067,4.623,4.6317,4.5882,4.5743,4.5589,4.524,4.4717,4.4218,4.3891,4.3355,0.0,4.3001,4.2803,4.2815,4.3192,4.3734,4.4234,4.4614,4.533,4.5755,4.5648,4.6295,4.6972,4.7609,4.8015,4.8764,4.9924,4.962,4.9977,5.1137,5.1155,5.1333,5.169,5.169,5.169,5.1726,5.2536,5.31,5.3564,5.4785,5.5597,5.6107,5.6677,5.6951,5.7028,5.7156,5.7188,5.7188,5.7188,5.7257,5.7332,5.5194,5.5194,5.5194,5.5194,5.5194,5.5194,5.5194,5.5194,5.5194,5.5194,5.5194,5.5194,5.5194,5.5059,5.4491,5.3279,5.3039,5.2456,5.1289,5.1214,5.1308,5.1587,5.188,5.2261,5.2608,5.2007,5.1374,5.0697,5.002,4.9312,4.862,4.862,4.862,4.8589,4.8544,4.8448,4.827,4.7561,4.7087,4.6755,4.625,4.5986,4.588,4.6207,4.6333,4.6439,4.6772,4.6876,4.6961,4.7369,4.752,4.7554,4.7902,4.8001,4.8033,4.8163,4.7554,4.6864,4.6811,4.6786,4.6874,4.713,4.7187,4.7136,4.6911,4.707,4.7065,4.6456,4.6407,4.6302,4.5747,4.5499,4.5204,4.4638,0.0,4.4603,0.0,4.4711,4.4886,4.5065,4.5396,4.5683,4.5882,4.6621,4.7065,4.697,4.7976,4.8637,4.8734,4.9281,4.9959,5.0762,5.078,5.1083,5.169,5.169,5.169,5.169,5.169,5.1797,5.1993,5.2796,5.359,5.4383,5.5275,5.6053,5.6689,5.6925,5.7028,5.7054,5.7163,5.7188,5.7188,5.7188,5.7264,5.7424,5.5194,5.5194,5.5194,5.5194,5.5194,5.5194,5.5194,5.5194,5.5194,5.5194,5.5194,5.5194,5.5194,5.4655,5.3982,5.3249,5.2621,5.1977,5.1274,5.1214,5.1308,5.1587,5.2033,5.2306,5.2352,5.1903,5.1374,5.0697,5.002,4.9312,4.862,4.862,4.862,4.862,4.9066,4.887,4.8332,4.8639,4.7988,4.6803,4.674,4.647,4.6096,4.6243,4.6439,4.6598,4.6807,4.6876,4.6961,4.7369,4.752,4.7554,4.7902,4.8001,4.8033,4.8163,4.8401,4.8346,4.7145,4.6786,4.6874,4.713,4.7187,4.7256,4.7548,4.7833,4.7996,4.7944,4.7604,4.7292,4.7239,4.6222,4.5386,4.5328,0.0,0.0,4.4603,4.4711,4.5083,4.5817,4.6643,4.7427,4.8165,4.8974,4.9395,4.9274,4.9358,4.9686,5.0298,5.0388,5.078,5.1583,5.1601,5.1637,5.169,5.169,5.169,5.169,5.169,5.2083,5.284,5.3581,5.4419,5.5337,5.617,5.6688,5.6977,5.7003,5.7061,5.7206,5.7206,5.7188,5.7188,5.7188,5.7264,5.7521,5.5194,5.5194,5.5194,5.5194,5.5194,5.5194,5.5194,5.5194,5.5194,5.5194,5.5194,5.5194,5.5194,5.4596,5.3937,5.3234,5.2576,5.1917,5.1259,5.1214,5.1308,5.1587,5.1757,5.1956,5.2109,5.2077,5.1538,5.045,5.0334,4.9728,4.862,4.862,4.862,4.862,4.9113,4.9175,4.8925,4.8922,4.8573,4.8051,4.764,4.7436,4.7421,4.7588,4.7806,4.7986,4.8149,4.8275,4.8451,4.8711,4.89,4.8937,4.8762,4.868,4.8663,4.8425,4.8658,4.879,4.8308,4.8156,4.8246,4.8545,4.8616,4.8585,4.8426,4.8612,4.8692,4.8205,4.8085,4.8082,4.8082,4.7716,4.7459,4.7557,0.0,4.7422,4.751,4.7556,4.7704,4.8007,4.8409,4.8783,4.9088,4.9392,4.9548,4.9501,4.9895,5.024,5.0495,5.0976,5.1369,5.169,5.169,5.169,5.169,5.169,5.169,5.1708,5.2215,5.2608,5.2947,5.4267,5.5061,5.5453,5.6427,5.6899,5.7003,5.7105,5.7138,5.7188,5.7188,5.7496,5.7931,5.805,5.8485,5.9083,5.5194,5.5194,5.5194,5.5194,5.5194,5.5194,5.5194,5.5194,5.5194,5.5194,5.5194,5.5194,5.5194,5.4401,5.3698,5.3219,5.2396,5.1693,5.1244,5.1214,5.1261,5.1448,5.1541,5.168,5.1895,5.2124,5.1741,5.061,5.0688,5.0097,4.8943,4.8727,4.862,4.862,4.9113,4.9316,4.9284,4.9253,4.9078,4.8841,4.8399,4.8257,4.8313,4.844,4.8661,4.8865,4.8957,4.9121,4.9319,4.9513,4.9739,4.9864,4.954,4.9526,4.9543,4.9272,4.9274,4.9357,4.9357,4.9187,4.9063,4.9428,4.9518,4.944,4.9217,4.9398,4.9437,4.8936,4.8828,4.8837,4.8863,4.8782,4.8751,4.8884,4.9008,4.9148,4.9269,4.9293,4.9293,4.9293,4.9597,4.9812,4.9812,5.0044,5.0205,5.0205,5.0633,5.0887,5.0887,5.1637,5.2065,5.2065,5.2297,5.2422,5.2422,5.219,5.2065,5.2083,5.2937,5.3463,5.3731,5.4916,5.5604,5.5925,5.6673,5.701,5.7079,5.7163,5.7188,5.7224,5.7478,5.7938,5.8497,5.8853,5.9441,6.0101,5.5194,5.5194,5.5194,5.5194,5.5194,5.5194,5.5194,5.5194,5.5194,5.5194,5.5194,5.5194,5.5194,5.3982,5.3174,5.3174,5.1977,5.1214,5.1214,5.1214,5.1214,5.1214,5.1448,5.1587,5.1587,5.2079,5.197,5.1297,5.089,5.0359,4.9666,4.8958,4.862,4.862,4.9113,4.9316,4.9316,4.9717,4.9521,4.8904,4.8889,4.8745,4.853,4.853,4.8735,4.901,4.901,4.9138,4.9336,4.9529,4.9756,4.9963,5.0152,5.0442,5.071,5.071,5.0403,5.0101,5.0101,4.956,4.9111,4.9428,4.9518,4.9577,4.9906,5.0092,5.0246,5.0387,4.9916,4.9555,4.967,4.9169,4.8768,4.8901,4.9025,4.9148,4.9287,4.9311,4.9311,4.9311,5.0031,5.0513,5.0513,5.1226,5.169,5.169,5.1708,5.1708,5.1708,5.2483,5.2911,5.2911,5.3635,5.4001,5.4001,5.326,5.2911,5.2929,5.3862,5.4683,5.54,5.5556,5.6117,5.7003,5.7003,5.7079,5.7188,5.7206,5.7206,5.7279,5.8094,5.8497,5.8714,5.9521,5.9965,6.0316,5.5194,5.5194,5.5194,5.5194,5.5194,5.5194,5.5194,5.5194,5.5194,5.5194,5.5194,5.5194,5.5194,5.3982,5.3174,5.3174,5.1977,5.1261,5.1494,5.1649,5.1756,5.1756,5.1463,5.1308,5.1308,5.1834,5.1744,5.1075,5.0846,5.0359,4.9666,4.8958,4.862,4.862,4.9113,4.9316,4.9316,4.9717,4.9765,4.9615,4.9827,4.991,4.9987,5.0117,5.0327,5.0536,5.0536,5.0758,5.105,5.1123,5.1355,5.1558,5.1115,5.0841,5.071,5.071,5.0773,5.0879,5.0879,5.0727,5.0367,4.9684,4.9518,4.9577,4.9906,5.0092,5.0246,5.0387,5.0317,5.0325,5.0495,5.04,5.0295,5.0409,5.0565,5.0693,5.0819,5.092,5.0976,5.0976,5.1191,5.1333,5.1333,5.1547,5.169,5.169,5.2208,5.2761,5.3296,5.3546,5.3671,5.3671,5.3876,5.4001,5.4001,5.3769,5.3741,5.3897,5.4675,5.5237,5.5574,5.6261,5.6742,5.7003,5.7105,5.7163,5.7243,5.7804,5.8039,5.8112,5.9038,5.9743,6.0339,6.0763,6.1327,6.1933,5.5194,5.5194,5.5194,5.5194,5.5194,5.5194,5.5194,5.5194,5.5194,5.5194,5.5194,5.5244,5.5345,5.4145,5.3383,5.348,5.2277,5.1602,5.1741,5.1895,5.2002,5.2002,5.171,5.1509,5.1509,5.1926,5.1911,5.15,5.1245,5.0743,5.0066,4.9374,4.8938,4.8759,4.9153,4.9356,4.9437,4.9757,4.9876,4.9916,5.0168,5.0418,5.0628,5.082,5.101,5.1183,5.1183,5.1445,5.1778,5.1778,5.2086,5.2343,5.1895,5.164,5.1581,5.1581,5.1597,5.1657,5.1657,5.1437,5.1061,5.0506,5.0359,5.0467,5.0784,5.069,5.061,5.0793,5.0662,5.0592,5.0846,5.0891,5.0945,5.1079,5.1193,5.135,5.1479,5.1632,5.169,5.169,5.1976,5.2154,5.2154,5.244,5.2618,5.2618,5.3064,5.3528,5.3983,5.4287,5.4465,5.4465,5.4768,5.4955,5.4955,5.5009,5.4945,5.4755,5.5612,5.6075,5.6153,5.6794,5.7079,5.7061,5.7163,5.7387,5.7713,5.8202,5.8601,5.8963,5.9898,6.0602,6.1126,6.1668,6.2233,6.2679,5.5194,5.5194,5.5194,5.5194,5.5194,5.5194,5.5194,5.5194,5.5194,5.5194,5.5244,5.5345,5.5581,5.4405,5.3751,5.399,5.2807,5.2033,5.2033,5.2033,5.2033,5.2033,5.2033,5.2033,5.2033,5.2231,5.2306,5.2306,5.1888,5.139,5.0774,5.0082,4.9531,4.9089,4.9303,4.9459,4.9597,4.9797,4.9876,4.9916,5.0223,5.0434,5.0628,5.082,5.1048,5.1183,5.1221,5.1483,5.1815,5.1851,5.2122,5.2409,5.2409,5.264,5.2903,5.2903,5.2657,5.2418,5.2418,5.1928,5.1485,5.1819,5.193,5.1942,5.2144,5.1671,5.1289,5.1547,5.1065,5.069,5.0942,5.0996,5.105,5.1158,5.1299,5.1448,5.1649,5.1803,5.1904,5.1904,5.2547,5.3001,5.3001,5.3617,5.4019,5.409,5.4108,5.4126,5.4197,5.492,5.5312,5.5312,5.6026,5.6401,5.6401,5.6546,5.625,5.5551,5.6531,5.7003,5.701,5.7138,5.7243,5.7297,5.7297,5.775,5.851,5.8583,5.9054,5.9822,6.076,6.1199,6.1419,6.2303,6.2705,6.278,5.5194,5.5194,5.5194,5.5194,5.5194,5.5194,5.5194,5.5194,5.5194,5.5194,5.5381,5.5531,5.5581,5.4601,5.3943,5.399,5.2916,5.2215,5.2215,5.2427,5.2533,5.2533,5.2533,5.2533,5.2533,5.2412,5.2306,5.2306,5.1888,5.1636,5.1467,5.079,5.024,4.9786,5.0004,4.9897,4.9597,4.9797,4.9876,4.9931,5.0379,5.055,5.0628,5.0994,5.1146,5.1221,5.1387,5.1594,5.1851,5.2158,5.2338,5.2409,5.2409,5.264,5.2903,5.2903,5.3043,5.3247,5.3247,5.3129,5.306,5.3437,5.3485,5.3274,5.2402,5.2067,5.2037,5.2363,5.23,5.212,5.1836,5.1768,5.1768,5.1796,5.1915,5.2289,5.3042,5.3265,5.3371,5.3484,5.3645,5.3778,5.3778,5.3894,5.4251,5.4902,5.4955,5.5223,5.5847,5.6044,5.6133,5.6133,5.6311,5.6401,5.6401,5.6653,5.6652,5.649,5.6835,5.7054,5.7156,5.7206,5.7532,5.8148,5.8148,5.8601,5.9398,6.0031,6.0429,6.0796,6.1727,6.2167,6.234,6.2631,6.2798,6.278,5.5194,5.5194,5.5194,5.5194,5.5194,5.5194,5.5194,5.5295,5.5381,5.5381,5.5631,5.5709,5.5459,5.4663,5.3938,5.3406,5.2826,5.2503,5.2503,5.2608,5.2713,5.2713,5.2713,5.2713,5.2713,5.2563,5.2503,5.2503,5.2255,5.2021,5.1698,5.1344,5.0978,5.0594,5.0704,5.0579,5.0261,5.0381,5.0232,4.9931,5.0418,5.0589,5.065,5.1032,5.1183,5.1221,5.1424,5.1684,5.1977,5.2302,5.2409,5.2409,5.2409,5.264,5.2903,5.2903,5.3161,5.3501,5.3501,5.3501,5.3568,5.3932,5.398,5.3873,5.3401,5.3046,5.2879,5.3162,5.2926,5.2678,5.259,5.2576,5.2576,5.2576,5.267,5.2976,5.3519,5.3726,5.386,5.3975,5.4322,5.4715,5.5116,5.5152,5.533,5.574,5.5776,5.5955,5.6383,5.6401,5.6401,5.6401,5.6757,5.7009,5.7064,5.764,5.7972,5.8034,5.7786,5.7691,5.7786,5.8166,5.8565,5.8981,5.8981,5.9434,6.0212,6.0709,6.1169,6.163,6.2258,6.2526,6.2629,6.2755,6.278,6.2805,5.5194,5.5194,5.5194,5.5194,5.5194,5.5244,5.5244,5.5341,5.5465,5.5465,5.5592,5.5548,5.5147,5.4585,5.3791,5.2776,5.2713,5.2713,5.2713,5.2713,5.2713,5.2713,5.2713,5.2713,5.2713,5.2713,5.2713,5.2713,5.2713,5.2421,5.1882,5.1927,5.176,5.1506,5.1506,5.1408,5.1148,5.1148,5.0816,5.0319,5.0785,5.0957,5.098,5.1403,5.1556,5.1561,5.1673,5.1893,5.2175,5.2338,5.2409,5.2442,5.2594,5.2824,5.3121,5.3273,5.3582,5.389,5.389,5.389,5.394,5.4154,5.4185,5.4249,5.4434,5.4029,5.3673,5.3931,5.3517,5.3148,5.3315,5.3366,5.3394,5.3394,5.3496,5.3644,5.3944,5.4089,5.4224,5.4394,5.5009,5.5669,5.6329,5.6401,5.6401,5.6401,5.6401,5.6454,5.6597,5.6597,5.665,5.6793,5.7435,5.7858,5.7997,5.8807,5.9267,5.9402,5.8993,5.8746,5.8637,5.9307,5.9687,5.9814,5.9814,6.0267,6.1036,6.1151,6.1612,6.2291,6.2526,6.261,6.2654,6.2755,6.2805,6.2855,5.5194,5.5194,5.5194,5.5194,5.5194,5.5295,5.5531,5.5099,5.482,5.4971,5.4696,5.4506,5.4446,5.4052,5.3499,5.2775,5.2713,5.2713,5.2713,5.2713,5.2713,5.2713,5.2713,5.2713,5.2713,5.2713,5.2713,5.2713,5.2713,5.2667,5.2575,5.2798,5.2663,5.2254,5.2437,5.2272,5.1859,5.1859,5.1812,5.1774,5.2236,5.2413,5.2453,5.2873,5.3045,5.2987,5.272,5.2507,5.2338,5.239,5.2409,5.2525,5.3302,5.3663,5.3993,5.4824,5.522,5.5412,5.5412,5.5412,5.5329,5.5042,5.4938,5.4866,5.4571,5.4425,5.4419,5.4624,5.4674,5.4547,5.408,5.4069,5.4156,5.4156,5.4156,5.4499,5.5455,5.56,5.573,5.6052,5.6169,5.6276,5.6383,5.6401,5.6401,5.6401,5.6401,5.6686,5.7382,5.7445,5.7721,5.8353,5.8478,5.8634,5.8849,5.9077,5.9267,5.9402,6.0133,6.0122,5.9452,5.9561,5.9995,6.0647,6.0647,6.1154,6.2013,6.204,6.2253,6.2552,6.2603,6.2679,6.2798,6.278,6.288,6.2978,5.4072,5.4072,5.4241,5.4765,5.4875,5.506,5.5735,5.5338,5.5043,5.511,5.4784,5.4374,5.4006,5.3469,5.3037,5.2744,5.2713,5.2713,5.2713,5.2713,5.2713,5.2713,5.2713,5.2713,5.2713,5.2713,5.2713,5.2713,5.2713,5.2713,5.2713,5.2982,5.3033,5.2956,5.3216,5.3054,5.2618,5.2618,5.2381,5.2058,5.2523,5.2701,5.2741,5.3163,5.3281,5.3311,5.3395,5.3482,5.3566,5.3566,5.3566,5.3669,5.415,5.445,5.4714,5.5263,5.5542,5.5681,5.5681,5.5786,5.5824,5.5758,5.5807,5.5855,5.5792,5.5443,5.5044,5.4835,5.4917,5.4948,5.475,5.4846,5.4981,5.4981,5.4981,5.5174,5.5808,5.5918,5.6032,5.6373,5.6401,5.6579,5.7025,5.7061,5.7239,5.7667,5.7685,5.7846,5.8203,5.8221,5.8381,5.8692,5.9137,5.9513,5.9785,6.0272,6.0645,6.0847,6.1263,6.1064,6.0303,6.0756,6.1109,6.1453,6.1453,6.1761,6.2203,6.2283,6.2441,6.2603,6.2679,6.2755,6.2805,6.288,6.2953,6.3026]}]]